GFSNW_700_spd_000.txt.gz
Wind_Speed
10 10 7 3 3 5 3 1 5 7 17 16 19 26 31 23 13 9 19 23 23 16 19 14 7 13 17 22 20 17 17 5 8 15 9 10 12 9 8 4 2 5 2 8
8 7 6 3 4 6 7 3 9 6 7 11 22 27 26 25 11 11 12 14 16 20 19 9 12 12 14 19 19 15 16 7 8 5 6 11 14 15 15 15 12 11 4 5
7 6 7 4 3 7 9 7 8 10 12 23 23 20 18 15 9 10 11 14 17 16 10 9 12 17 13 15 12 9 11 9 7 6 6 6 6 10 10 13 10 16 25 28
7 6 7 2 2 7 9 8 10 10 15 16 14 12 14 11 14 14 14 15 15 11 9 13 16 12 15 11 8 7 6 7 5 7 6 9 12 17 20 24 29 25 36 30
6 3 4 1 3 7 8 12 9 13 11 10 15 13 13 11 12 12 11 14 12 10 12 8 14 10 11 7 8 6 4 2 7 12 10 12 19 25 27 29 33 37 37 41
6 5 0 2 1 6 9 12 11 7 6 6 8 10 10 11 11 11 11 14 11 10 9 8 9 8 7 5 6 7 8 6 5 5 5 9 19 7 9 12 15 21 28 22
7 7 4 5 3 4 8 13 10 10 6 8 9 10 11 14 12 11 12 10 10 9 9 8 7 7 9 10 11 13 9 5 5 7 9 4 4 7 12 17 20 20 24 25
9 9 9 8 8 6 6 8 11 10 13 11 13 13 11 11 9 10 9 8 7 7 7 6 4 3 3 5 7 9 13 15 8 5 8 14 23 18 22 25 25 23 29 27
8 10 11 11 11 11 11 9 9 10 11 16 16 16 14 12 10 7 6 4 5 5 7 7 6 5 5 4 4 5 4 6 12 10 5 5 6 8 13 23 25 5 3 9
10 11 12 13 13 13 13 13 12 10 11 13 16 18 17 14 12 9 9 8 5 7 7 7 7 7 7 4 5 6 7 7 19 20 11 10 15 20 20 10 13 22 27 33
10 11 13 15 15 16 14 15 14 13 11 10 14 16 15 13 13 13 10 9 9 8 5 5 6 6 8 8 9 7 11 8 11 11 7 9 2 6 15 22 28 36 39 39
11 11 13 14 17 18 18 17 16 15 16 12 16 18 19 20 17 15 14 13 12 7 6 5 6 9 9 12 8 14 18 18 6 10 7 10 15 19 30 35 35 36 38 36
14 13 13 14 15 17 19 18 18 20 19 18 20 17 18 21 24 23 20 20 21 20 18 19 18 16 14 11 13 19 18 18 25 22 29 29 28 28 35 40 37 33 32 32
15 15 15 15 17 18 18 18 20 19 19 19 16 12 20 20 22 23 26 22 21 18 17 17 17 18 16 16 22 28 25 25 30 32 31 30 24 24 32 36 39 45 48 49
17 16 16 15 17 17 14 13 13 13 15 11 10 23 26 23 20 18 20 20 20 19 18 21 22 24 21 24 27 29 20 22 22 28 27 30 34 34 38 42 44 44 44 42
18 17 17 16 16 17 16 14 14 12 11 15 14 14 17 18 16 21 21 21 24 23 21 19 23 24 18 14 25 26 19 20 23 31 33 34 35 36 41 42 42 44 45 47
21 18 17 17 17 16 16 15 14 14 16 15 7 9 13 17 18 17 20 21 22 20 19 23 22 21 19 25 34 18 21 21 25 28 32 32 32 35 34 37 41 42 39 37
23 19 19 18 17 16 16 17 15 10 12 13 6 7 10 10 9 12 12 11 11 15 16 23 28 25 25 28 20 21 21 21 22 24 26 30 32 33 36 39 39 37 36 32
23 20 19 20 18 17 15 13 15 15 14 7 10 10 6 9 11 11 12 14 16 22 27 30 23 27 25 25 26 19 18 23 25 25 27 29 33 34 35 37 38 38 36 31
23 21 20 19 17 15 14 14 15 16 19 21 23 16 13 9 9 10 11 10 13 12 14 13 20 32 30 18 17 18 20 22 24 29 31 31 29 31 36 37 38 39 32 29
26 24 21 18 13 12 14 13 11 11 12 14 22 24 27 21 17 16 8 6 6 6 8 9 9 25 22 16 18 21 20 23 25 29 33 34 34 36 32 32 32 25 26 23
25 24 21 18 15 11 9 10 10 9 11 11 11 12 14 14 15 11 8 9 7 9 10 8 15 20 23 20 22 23 22 24 27 31 35 32 26 25 24 21 20 22 22 25
24 23 18 10 12 16 11 14 11 14 10 8 8 7 5 5 8 10 10 7 9 10 8 11 26 22 19 26 21 21 27 31 33 35 36 26 25 24 21 19 20 22 24 27
25 21 15 12 9 10 18 14 13 12 13 12 6 2 4 6 9 11 7 10 8 8 11 30 28 18 14 17 23 31 35 36 35 37 28 26 24 22 21 22 24 26 29 31
23 15 12 19 19 9 9 11 11 10 6 3 6 9 11 12 10 9 9 6 9 9 11 10 14 23 21 27 32 37 41 35 35 32 27 24 22 22 24 26 28 31 33 34
26 20 17 12 17 22 19 12 9 9 9 10 13 17 15 13 10 12 15 11 12 26 26 23 30 37 36 37 43 44 42 34 33 28 24 24 24 25 27 29 31 33 35 37
30 35 26 14 15 17 18 7 6 9 13 16 19 15 12 10 12 15 17 31 33 32 33 36 36 35 37 45 44 43 36 34 29 25 26 26 26 28 31 32 34 36 38 41

GFSNW_700_spd_003.txt.gz
Wind_Speed
9 9 9 6 1 1 1 5 1 9 4 7 11 20 22 16 19 21 23 27 40 29 29 16 14 19 20 23 26 15 10 8 14 16 10 13 14 15 12 5 2 3 1 3
6 7 9 5 3 5 5 5 5 8 10 8 18 22 18 15 17 18 21 16 35 25 15 10 11 18 20 26 24 15 11 7 10 7 10 14 14 15 14 13 8 7 3 3
3 4 7 3 3 7 7 2 6 6 5 14 23 19 14 12 14 16 18 21 22 24 14 5 13 16 16 19 16 14 15 12 5 11 7 11 16 17 17 17 14 17 30 24
3 1 4 1 2 8 10 5 8 4 14 17 19 15 14 9 17 20 21 20 20 21 9 13 16 15 20 16 14 13 10 13 8 8 5 6 8 13 15 20 23 21 29 29
6 4 1 1 2 8 12 12 10 14 11 10 12 15 15 14 18 16 16 19 15 13 18 12 20 22 19 13 12 12 11 10 10 7 8 12 19 23 26 28 30 34 33 33
7 7 5 2 3 8 13 16 11 9 9 9 9 13 14 15 14 16 20 19 15 12 14 18 16 13 12 10 10 10 8 8 6 3 5 10 18 16 14 15 14 12 17 15
9 8 9 8 6 9 13 19 16 10 7 8 8 8 11 14 12 16 15 12 12 13 14 14 12 10 8 6 7 8 8 7 5 4 5 3 4 5 7 11 13 15 17 20
10 10 11 11 11 11 13 16 17 15 14 10 12 12 11 11 10 12 12 11 11 11 10 9 6 7 8 11 13 13 12 11 5 4 9 16 13 10 12 14 16 18 21 27
11 12 12 13 15 15 14 13 13 13 13 17 17 17 15 13 13 14 12 10 9 8 9 9 7 5 6 6 5 11 12 15 11 8 3 5 3 5 8 12 14 4 6 10
11 11 14 15 14 17 17 16 14 12 11 13 15 18 17 14 13 12 11 10 11 11 13 11 8 7 8 5 5 8 12 12 17 14 7 10 12 14 11 4 6 16 23 28
10 11 13 16 17 15 16 17 17 16 16 15 18 19 17 16 15 12 11 11 11 12 12 9 8 8 11 9 11 9 10 8 7 11 9 10 3 5 8 13 20 27 31 31
10 10 11 13 17 19 16 15 15 17 18 13 18 23 22 20 18 16 15 14 9 12 10 9 7 7 8 12 7 16 10 16 6 12 6 8 11 15 25 28 31 33 36 36
11 10 11 12 14 16 20 18 16 16 15 17 18 23 25 24 23 22 22 21 19 17 16 13 15 15 14 14 17 19 15 13 19 19 18 24 29 30 32 36 40 43 37 36
10 10 11 13 13 13 15 18 21 22 18 19 17 21 24 23 28 28 28 24 21 19 18 20 19 16 12 17 16 19 17 18 21 25 24 24 26 30 32 34 36 38 39 40
13 10 10 12 14 14 14 15 17 18 20 12 19 21 16 19 24 25 24 25 23 20 20 20 18 18 16 19 24 23 5 8 15 18 17 24 24 26 30 33 35 37 39 41
16 13 10 11 12 13 15 15 15 15 17 21 16 15 19 29 24 20 19 20 21 21 22 22 22 20 16 13 18 11 7 10 15 19 21 23 27 29 31 32 35 37 38 39
17 14 12 12 12 12 14 12 11 13 14 14 8 9 18 23 22 23 22 24 25 22 23 25 21 13 11 19 22 10 11 13 15 18 21 23 24 27 28 30 33 35 35 36
19 17 14 14 13 13 12 13 11 11 15 15 7 7 11 18 23 23 22 22 23 20 20 20 16 14 18 17 6 9 12 16 18 19 20 23 23 25 28 31 32 32 35 37
22 20 17 15 16 14 13 11 11 11 14 9 10 13 9 14 15 14 17 18 16 15 19 23 14 18 20 11 15 17 17 14 16 16 19 21 25 30 32 33 34 35 35 33
25 23 20 18 15 13 12 12 12 13 18 19 17 13 13 11 13 14 11 10 14 9 15 15 21 27 15 13 16 14 12 16 14 16 19 23 29 34 34 33 31 30 30 30
29 26 21 16 11 14 13 10 11 11 11 16 23 24 22 17 16 15 11 7 7 6 10 11 7 14 9 7 8 8 11 11 12 18 25 31 36 36 32 28 27 29 28 25
30 24 20 16 12 9 10 10 11 9 13 11 17 22 26 24 22 18 11 12 8 7 10 10 6 3 9 6 6 9 8 12 18 25 30 35 35 34 30 29 28 25 23 22
27 24 21 12 13 16 11 15 12 15 11 13 17 16 17 18 18 11 9 9 8 6 7 6 4 6 7 11 9 8 14 20 25 28 34 32 30 29 28 26 23 22 22 24
28 22 18 13 10 13 23 22 20 17 16 15 19 18 12 12 13 7 5 6 4 5 5 14 15 6 2 9 14 20 26 30 32 34 34 31 29 27 23 22 22 23 25 26
25 17 13 21 18 11 15 21 17 18 21 22 19 13 10 9 6 6 6 5 7 6 3 2 7 12 17 24 28 33 33 33 36 34 33 31 28 25 24 24 24 25 27 29
17 20 14 15 22 17 14 18 17 22 20 16 11 7 5 7 6 8 9 6 7 13 17 21 25 28 31 37 38 41 41 40 37 36 34 30 26 25 26 25 26 29 31 33
39 30 23 10 16 23 21 23 20 17 14 11 7 5 8 6 7 10 12 23 19 21 27 27 29 33 36 37 37 38 35 35 37 35 32 27 27 28 28 28 30 32 34 36

GFSNW_700_spd_006.txt.gz
Wind_Speed
8 8 7 4 3 3 1 0 2 2 4 3 0 8 9 15 12 13 24 38 42 28 31 24 10 30 23 33 30 16 20 16 25 21 17 26 24 20 17 6 5 5 1 4
9 8 7 3 4 6 6 6 1 3 2 4 7 12 11 17 13 20 39 30 24 34 25 14 22 25 24 31 28 18 16 10 14 8 13 21 20 25 23 19 10 8 4 3
9 8 6 4 7 10 6 2 2 3 10 10 9 15 8 13 16 25 36 27 31 21 18 16 21 24 22 23 26 15 12 14 13 17 8 17 25 21 20 20 13 17 20 10
10 9 5 5 7 10 9 6 6 3 10 13 17 12 11 13 20 24 34 18 27 19 15 21 19 22 21 20 20 17 15 11 8 11 8 12 15 21 23 26 25 19 19 20
11 12 7 6 7 12 12 10 13 12 13 16 14 10 14 16 19 20 17 29 19 14 10 9 18 19 21 19 18 17 16 14 14 11 10 11 14 16 19 22 23 26 26 29
11 13 11 7 9 14 15 15 18 13 12 14 13 13 16 19 15 19 21 18 21 17 16 9 12 14 16 13 14 14 14 10 12 6 11 12 13 12 20 25 28 21 15 10
10 14 14 11 10 14 18 21 20 16 13 13 12 14 14 16 14 21 22 21 15 16 23 23 20 17 13 16 16 13 11 10 9 5 5 2 6 9 6 4 5 7 10 15
11 12 16 14 12 14 19 22 18 16 16 14 14 13 16 15 11 18 18 16 13 16 20 19 12 11 9 11 12 13 12 11 6 5 8 10 8 6 7 8 6 11 16 17
11 12 16 16 18 16 18 23 19 13 14 16 15 14 15 14 15 17 16 16 17 18 18 13 8 7 8 7 7 15 15 14 12 8 4 5 5 8 7 7 9 17 17 18
12 13 15 19 20 20 19 21 19 18 14 14 16 16 15 16 16 16 17 16 16 15 15 14 7 7 9 6 7 8 13 14 16 14 6 7 11 12 13 7 6 15 16 19
11 12 14 18 21 23 22 20 19 18 18 15 17 17 15 14 14 14 15 16 16 16 14 9 7 7 10 9 9 8 12 11 13 15 8 9 11 12 13 11 14 20 26 31
12 12 13 16 21 22 23 23 22 21 20 15 21 20 20 19 18 16 15 17 13 14 14 12 10 9 9 14 6 16 10 13 8 10 5 10 12 16 16 20 25 29 34 37
14 13 14 15 18 22 23 22 21 21 21 21 21 25 25 24 23 22 20 20 17 15 14 11 11 8 11 13 17 17 17 17 21 19 20 18 17 22 25 30 34 36 38 35
15 15 14 15 16 19 23 25 23 22 20 22 22 25 27 28 27 25 24 22 21 21 19 19 18 17 15 18 21 21 17 19 23 28 24 20 23 27 31 35 33 32 31 30
16 14 13 14 16 17 18 22 25 25 24 14 25 22 27 29 29 29 28 27 29 24 23 22 21 19 19 23 21 23 19 26 27 26 19 21 22 22 25 26 27 27 30 31
17 15 13 13 15 17 17 21 23 25 28 23 19 22 27 28 28 30 28 26 25 26 24 24 18 16 16 12 15 6 12 12 14 16 17 18 20 22 24 25 26 27 29 32
19 15 13 13 14 15 17 13 14 16 19 23 16 16 24 29 28 23 26 26 25 23 21 22 20 18 20 27 30 11 12 13 15 15 16 19 20 22 22 22 24 28 31 32
21 17 14 13 13 13 15 15 12 13 17 16 7 8 14 24 26 27 30 27 25 25 26 23 17 20 24 18 6 11 12 14 14 16 18 19 19 19 21 24 29 32 32 32
22 19 15 14 13 13 13 12 11 13 18 10 10 13 11 14 23 24 20 22 19 20 22 22 17 19 17 9 8 11 13 15 17 15 16 16 17 19 23 28 32 30 29 28
24 23 19 16 15 12 12 11 11 8 18 19 16 15 13 15 19 20 18 14 15 7 14 14 19 32 19 15 19 21 18 14 13 15 13 14 18 22 28 31 31 28 27 28
31 28 22 14 13 16 14 10 11 12 11 18 23 21 17 18 21 17 15 10 10 8 11 13 9 14 10 16 11 10 12 11 11 12 15 20 24 28 31 31 29 28 28 27
33 25 21 17 16 11 12 12 11 10 13 10 16 25 24 19 19 14 14 8 8 6 10 12 5 9 12 10 10 11 12 14 15 19 25 28 30 32 31 29 28 27 24 23
32 29 25 16 14 14 13 19 14 16 12 11 14 22 26 23 21 12 10 11 9 6 9 7 7 14 14 13 13 14 11 15 20 26 30 33 32 31 30 28 26 25 24 24
34 24 23 21 12 15 24 24 23 19 15 17 19 22 23 20 21 10 8 10 8 8 8 9 11 14 14 15 12 11 16 24 30 34 36 35 35 32 30 27 25 25 25 26
30 15 13 22 24 17 16 25 27 24 21 17 19 22 16 21 11 11 8 11 7 9 5 7 8 12 11 13 19 24 29 33 35 34 33 28 28 28 27 25 25 25 27 28
17 16 15 19 25 23 17 21 27 26 24 23 28 17 13 11 7 10 8 7 5 5 4 4 11 15 20 25 27 29 31 31 33 33 31 31 32 29 27 26 26 27 29 30
12 18 22 13 22 23 21 22 22 23 29 37 21 14 11 10 9 9 9 2 5 10 16 19 20 22 25 29 29 30 33 34 34 35 34 32 29 29 27 26 28 30 31 33

GFSNW_700_spd_009.txt.gz
Wind_Speed
10 14 11 13 9 9 6 8 5 6 0 4 1 10 2 20 24 12 13 15 20 33 27 24 7 26 14 36 34 19 22 15 25 27 19 28 29 25 24 14 7 7 3 6
10 13 11 12 9 9 7 6 6 5 3 2 4 7 14 22 8 15 20 22 27 25 31 14 17 30 29 37 33 15 24 10 15 14 21 20 30 30 25 25 15 10 5 4
11 13 12 11 9 9 9 6 6 7 9 4 7 4 5 13 19 22 26 31 26 32 19 15 26 26 28 34 31 20 25 14 18 22 21 27 31 35 32 30 22 18 20 11
11 12 12 10 10 13 16 11 7 7 4 6 12 3 5 15 29 21 26 28 33 26 12 22 29 26 29 28 34 19 14 9 12 18 13 19 27 32 34 32 31 21 20 19
11 12 13 11 10 12 15 13 11 8 8 16 14 9 7 7 28 31 27 26 24 23 18 16 26 24 27 29 26 27 16 9 13 16 17 15 16 19 28 29 28 28 27 26
12 12 14 13 11 13 16 12 11 10 12 18 15 12 12 14 16 25 28 19 19 23 25 17 12 16 19 17 23 22 18 15 16 7 12 10 11 20 21 24 26 25 25 21
14 11 16 15 14 13 17 14 15 15 15 15 14 12 16 21 14 16 31 24 16 13 17 20 17 13 12 15 16 16 14 12 12 5 8 3 9 12 14 14 17 21 20 17
16 12 16 17 17 14 18 18 20 15 13 14 12 16 14 18 12 24 23 22 25 18 18 17 15 16 14 14 14 16 16 15 8 6 8 6 7 12 13 13 12 15 16 17
17 13 16 18 19 16 18 21 24 17 11 16 14 14 17 14 22 23 21 21 21 26 27 18 10 9 11 12 11 21 19 18 15 8 4 5 6 14 14 13 14 18 16 15
18 15 16 19 20 20 18 22 24 20 12 12 17 19 18 17 21 21 21 21 22 22 22 17 8 7 13 8 10 12 20 19 19 16 7 6 11 13 12 9 9 13 15 14
18 17 16 19 21 23 21 20 23 20 18 11 16 18 18 17 18 19 19 20 22 22 17 11 7 7 12 9 8 6 10 10 11 13 8 8 12 15 15 13 12 11 12 16
19 18 16 19 21 24 25 23 22 20 18 13 17 19 19 19 18 16 14 15 15 17 16 12 10 7 8 12 6 14 10 12 8 9 7 9 7 14 14 16 16 19 24 29
20 18 16 18 22 24 26 26 25 23 20 18 16 22 22 21 20 18 17 19 12 18 15 12 10 6 9 8 11 13 15 15 18 17 17 15 14 15 17 20 22 27 31 34
20 18 17 17 20 23 24 26 26 26 25 23 20 22 24 23 23 23 22 21 19 17 15 15 13 12 11 13 15 17 17 17 21 24 23 16 18 19 21 24 28 31 32 30
20 18 17 17 18 22 23 25 25 25 25 15 28 22 24 25 26 25 24 24 22 20 19 18 18 17 18 23 27 31 23 27 24 22 17 19 24 27 28 28 26 28 29 29
21 19 17 16 16 20 22 25 28 25 25 27 16 22 27 26 28 27 27 25 22 22 22 22 23 23 20 14 14 11 16 19 23 27 27 24 21 20 22 25 26 27 27 27
22 19 18 15 14 16 22 20 24 30 31 25 20 19 23 29 27 27 28 28 29 28 31 25 24 23 23 29 31 11 7 11 13 13 14 16 19 22 23 24 23 24 26 30
23 20 18 16 15 15 17 18 15 20 27 24 13 13 15 24 26 24 23 25 27 26 23 26 24 23 22 23 19 15 23 22 18 17 18 19 22 22 22 21 24 27 30 32
24 21 18 17 17 16 16 15 14 14 19 12 13 16 12 16 23 28 24 19 20 19 23 25 22 25 17 11 14 13 13 15 16 17 19 21 19 19 22 24 26 29 31 30
27 24 22 20 21 17 16 15 14 17 20 19 16 13 12 11 20 23 21 19 20 10 19 19 24 35 31 21 15 13 13 14 16 19 18 19 20 22 24 25 29 32 31 29
32 30 27 19 18 18 17 12 12 14 12 16 23 24 17 14 15 21 17 8 9 7 11 13 8 19 20 23 29 25 25 22 20 19 19 20 20 22 26 32 33 31 30 28
35 32 27 24 22 13 12 12 12 11 14 11 19 23 22 18 20 15 13 9 10 7 11 12 7 16 11 12 15 16 15 14 16 17 16 18 23 28 31 32 31 30 29 27
38 34 30 18 17 15 14 20 16 17 15 16 19 24 26 22 20 12 9 9 8 6 9 8 10 14 18 17 16 16 16 15 16 16 20 26 32 34 32 29 28 28 27 26
41 25 25 20 12 15 23 20 23 23 18 16 21 26 27 22 22 9 6 8 6 7 8 9 17 19 21 20 18 17 15 15 17 23 30 34 32 30 28 27 28 27 26 26
26 17 13 20 22 18 16 24 23 22 18 19 26 29 17 27 10 12 10 10 8 10 11 15 16 18 19 19 18 17 18 22 27 31 30 29 29 29 29 29 27 26 27 28
14 18 16 18 25 22 17 19 21 24 24 22 28 23 12 13 9 13 11 10 9 8 15 16 15 15 17 19 21 23 26 26 26 27 29 29 30 31 30 29 28 28 28 29
12 17 28 22 12 20 20 22 26 25 27 33 20 15 13 10 10 11 13 10 13 14 12 9 10 14 19 22 23 23 25 25 27 28 29 30 30 29 29 29 30 29 27 28

GFSNW_700_spd_015.txt.gz
Wind_Speed
18 16 17 16 14 13 13 10 13 12 13 25 30 27 22 11 9 16 11 17 20 30 35 31 24 24 11 33 38 26 23 24 17 26 20 24 25 27 28 13 4 12 2 8
19 16 16 16 14 13 11 8 9 10 6 25 21 19 15 8 21 21 15 13 20 27 38 12 23 28 27 27 40 29 27 13 13 14 19 18 28 30 28 31 19 17 7 4
20 17 16 15 15 13 12 9 6 8 15 19 11 10 11 15 22 22 14 12 20 26 29 12 29 16 23 29 37 28 23 12 24 17 12 21 27 30 30 31 28 23 28 22
21 18 17 16 16 15 13 14 12 11 13 18 13 14 7 21 11 15 13 12 25 28 30 17 30 24 24 30 33 39 21 12 19 23 29 22 34 37 39 41 39 26 33 33
22 19 18 16 18 17 14 17 16 16 15 18 14 10 7 9 11 16 19 15 28 25 32 28 21 34 32 35 34 40 28 21 20 19 21 23 23 37 39 37 37 38 40 37
21 20 19 18 18 18 15 15 14 15 12 13 8 11 8 6 19 15 19 17 32 22 22 26 9 22 35 38 37 37 27 20 23 12 14 16 16 33 36 37 39 39 40 35
22 21 20 18 18 18 15 13 13 12 13 9 9 5 4 9 14 13 21 25 20 26 19 18 16 17 28 26 36 23 24 17 10 8 12 3 14 15 24 27 26 30 37 36
23 23 21 18 17 18 17 14 14 12 11 8 11 9 6 4 15 21 26 24 16 29 31 27 22 21 19 25 37 26 19 20 9 8 17 6 7 14 17 23 26 27 21 26
24 23 21 19 17 17 18 15 14 14 11 8 10 12 9 14 10 18 27 17 24 25 23 12 8 7 11 11 17 29 26 23 20 11 5 6 4 12 13 11 16 18 22 22
25 24 21 21 17 18 19 16 14 15 13 12 7 11 13 14 15 13 21 29 29 25 15 12 7 6 15 11 14 26 31 21 25 16 7 5 11 7 11 12 10 13 19 16
26 24 22 21 17 18 20 18 15 16 15 9 5 10 12 14 12 13 23 21 23 29 16 12 6 5 12 11 12 16 24 17 17 17 9 9 14 13 14 11 8 10 15 16
26 24 22 21 18 19 20 19 17 18 16 10 12 10 13 14 14 16 13 14 21 17 12 9 9 10 14 15 10 14 14 17 11 12 8 9 8 18 20 12 6 8 11 11
26 24 22 22 19 19 20 20 19 18 17 14 12 13 14 15 17 16 19 19 9 22 21 13 9 7 12 11 15 13 15 17 11 9 12 9 9 12 15 12 13 12 12 13
26 24 23 22 20 19 21 22 20 18 16 16 15 16 16 16 18 20 15 19 15 17 17 19 13 9 9 12 10 13 13 13 14 16 15 13 14 15 14 14 14 14 15 17
26 25 23 22 20 19 21 22 21 20 19 9 18 15 18 19 18 18 18 16 20 14 16 16 15 14 11 11 13 14 13 12 13 17 17 15 14 16 17 16 15 16 17 15
27 25 23 22 20 18 21 22 24 23 24 21 11 17 20 19 20 21 20 19 18 20 19 18 17 16 14 9 15 17 13 10 15 15 15 19 18 15 15 15 15 16 14 14
28 26 24 23 22 21 25 21 24 26 24 19 12 12 15 21 21 21 22 22 23 23 20 21 21 20 19 23 25 20 17 17 18 16 11 14 16 17 17 18 12 12 13 14
29 27 25 23 23 22 27 25 17 25 23 21 12 12 16 19 20 19 22 21 21 23 22 22 23 22 24 21 24 23 22 21 20 17 15 11 11 13 12 10 11 12 13 16
31 27 25 24 25 26 27 22 17 21 26 13 16 15 13 14 19 20 21 22 19 16 20 22 21 27 19 20 19 19 20 16 17 17 19 18 14 12 10 10 10 12 14 16
32 30 29 29 28 25 26 22 23 23 26 25 21 21 22 16 18 21 18 13 16 9 20 18 27 42 39 35 32 27 23 21 16 13 16 16 12 9 10 9 12 12 16 22
37 37 33 26 28 25 22 13 18 16 13 23 30 25 19 21 19 20 17 8 9 7 10 13 10 26 24 25 30 31 30 23 13 14 14 9 9 9 9 11 13 17 22 26
42 39 29 25 27 13 13 13 13 12 16 13 24 25 23 20 18 12 15 9 9 6 7 8 9 22 17 15 17 26 25 20 16 16 10 9 7 8 11 14 18 23 28 29
43 34 31 22 19 15 14 20 17 17 18 25 21 26 26 22 18 10 11 10 10 6 7 7 10 4 4 13 12 17 22 22 22 17 13 10 9 12 16 19 22 28 30 28
41 26 27 19 13 17 19 24 27 25 22 17 22 26 25 21 20 9 8 10 7 7 8 7 6 10 11 11 13 14 16 19 18 16 12 10 13 17 21 24 29 30 28 28
25 19 15 25 21 19 23 22 24 26 23 19 22 26 15 22 10 10 8 10 7 10 5 5 7 11 13 15 16 20 20 17 14 11 11 13 18 22 27 30 28 27 27 27
12 13 14 25 27 19 22 28 26 26 26 25 28 23 11 11 9 11 10 8 8 6 5 2 6 12 17 18 19 17 14 11 8 10 15 20 25 26 26 26 26 26 27 29
8 13 19 12 21 19 18 25 27 28 31 35 24 15 12 9 9 11 11 10 10 7 4 7 11 14 19 19 16 11 7 7 11 16 20 22 24 24 25 26 26 27 28 28

GFSNW_700_spd_018.txt.gz
Wind_Speed
26 24 23 20 16 16 15 18 15 12 10 15 27 33 30 19 17 14 18 13 15 22 25 22 20 20 13 26 29 21 19 10 8 12 9 16 26 19 19 9 6 5 1 2
26 25 24 20 16 16 15 16 12 11 13 17 25 26 25 27 23 14 25 19 17 24 24 17 19 19 22 18 36 20 20 9 12 7 8 15 20 23 22 17 12 14 10 4
27 26 24 21 16 17 16 15 9 12 17 17 18 22 25 17 14 20 13 14 17 23 25 23 16 16 24 17 25 24 21 8 17 15 12 19 23 28 29 25 23 17 19 12
27 26 24 21 17 18 19 18 17 16 16 17 15 16 19 14 15 20 18 18 20 24 25 22 18 19 25 21 33 24 17 7 15 16 14 12 23 32 32 35 34 23 25 27
29 26 25 21 18 20 23 20 20 16 18 15 17 18 17 21 21 17 23 16 24 24 24 23 24 28 29 32 38 38 22 8 11 11 15 16 19 22 27 32 33 35 26 26
28 27 25 22 19 21 24 21 19 19 14 11 16 16 13 6 18 13 17 13 22 25 24 25 8 24 19 16 42 42 24 14 7 5 9 9 13 28 30 30 33 34 34 31
26 28 25 23 20 20 21 18 17 20 18 13 15 5 5 7 14 12 18 14 25 21 18 22 11 14 20 15 33 40 28 17 12 4 6 3 11 14 21 30 29 33 34 32
25 28 25 24 20 20 21 19 17 17 15 11 4 8 3 3 15 13 19 21 28 19 14 23 20 17 24 23 24 27 31 23 8 6 13 9 11 12 17 22 26 26 25 30
22 27 25 24 21 19 20 20 18 17 15 8 8 9 6 5 11 25 23 25 28 24 27 23 10 8 11 11 20 22 28 25 14 10 2 5 5 11 11 11 17 16 21 27
23 28 25 25 21 19 19 21 18 17 17 10 4 7 6 7 13 20 25 25 21 35 23 20 15 5 14 13 15 24 20 15 17 16 7 9 14 8 7 9 6 9 14 18
21 28 26 25 21 20 19 21 19 17 18 10 10 8 9 14 13 13 25 29 29 30 22 10 10 8 12 10 15 28 25 16 17 18 9 13 14 13 14 11 9 7 9 13
25 26 25 24 22 20 20 21 20 18 18 12 11 8 10 12 12 12 16 31 29 21 18 11 9 8 16 14 14 20 23 26 16 15 14 16 11 17 18 16 10 7 9 12
26 28 26 25 23 21 21 22 21 19 19 15 11 13 11 14 14 10 8 19 13 24 21 9 12 5 10 16 13 22 23 27 21 19 20 13 12 12 12 12 13 9 11 12
28 27 26 26 23 21 22 23 20 20 17 17 16 14 15 14 14 14 11 14 7 14 14 15 9 10 11 14 9 17 18 19 23 20 13 11 10 11 12 12 11 11 11 12
28 29 27 26 23 21 23 25 19 22 20 10 17 17 17 16 17 16 14 13 17 11 18 16 15 14 9 9 11 14 15 13 14 11 10 12 13 14 16 16 14 14 14 14
29 29 27 26 22 22 23 27 26 22 22 14 8 20 20 19 18 18 17 16 16 20 16 14 17 13 12 7 12 16 13 13 14 12 12 10 12 16 18 18 17 17 15 14
29 28 28 25 23 24 27 23 27 28 28 24 16 10 17 22 22 20 19 19 18 17 19 20 19 18 17 21 23 16 14 14 15 16 15 13 14 16 19 20 18 15 12 10
32 31 28 25 23 24 28 22 22 28 22 21 8 10 20 21 24 23 19 20 20 20 21 21 22 23 22 22 26 23 22 21 20 17 15 13 12 17 19 19 16 12 10 8
33 31 28 26 26 28 29 22 19 22 26 14 15 14 13 16 21 21 20 20 22 21 23 24 22 29 22 20 22 21 18 15 11 11 14 17 15 15 16 14 11 9 8 8
34 33 32 29 28 29 28 20 24 21 24 29 16 19 19 17 23 23 22 19 18 9 16 13 25 37 33 32 29 22 17 14 13 9 11 16 20 15 13 11 10 8 8 9
38 40 37 31 34 32 26 15 21 18 16 24 32 23 21 21 20 20 16 9 9 7 11 15 11 32 27 25 32 36 29 21 19 11 9 14 14 12 11 10 8 7 9 13
44 44 37 30 26 14 13 14 14 13 20 15 29 35 27 19 21 14 15 9 10 6 9 9 8 16 13 15 19 25 23 24 17 11 13 15 11 12 10 7 8 10 14 17
43 36 28 23 20 16 14 20 18 19 17 26 20 29 32 23 22 11 11 10 9 7 9 7 10 8 8 11 16 21 25 20 17 19 20 9 11 9 7 9 12 15 18 21
35 27 28 17 13 18 19 27 24 25 18 18 22 29 29 23 23 9 8 10 7 7 8 7 7 10 9 13 17 20 19 21 22 22 15 10 10 8 9 13 16 20 21 20
22 21 22 26 22 25 30 18 26 29 24 20 26 31 20 24 10 10 9 10 8 10 6 5 7 11 12 14 15 21 22 22 21 17 13 11 9 11 14 17 20 21 22 22
14 13 16 31 27 17 23 27 21 28 28 27 30 23 11 12 9 11 9 8 8 8 9 8 10 14 14 15 19 23 23 19 17 14 11 10 12 15 17 19 21 22 22 22
12 14 15 18 27 21 18 25 29 29 30 37 23 15 12 9 10 12 12 10 10 10 9 9 12 15 18 21 25 26 22 17 13 10 10 11 13 16 19 21 22 23 23 24

GFSNW_700_spd_021.txt.gz
Wind_Speed
29 29 27 26 24 19 21 20 23 20 16 21 25 38 39 31 26 18 21 19 15 16 20 21 17 17 15 16 17 18 6 3 8 13 17 20 31 20 18 14 5 4 5 7
31 30 29 26 24 24 21 24 23 22 16 22 29 33 31 35 29 18 11 16 19 16 21 19 17 13 14 10 21 17 9 5 7 8 16 24 21 20 23 14 5 14 8 8
32 31 29 28 24 23 21 25 14 17 23 21 25 24 27 26 22 20 16 16 16 15 21 21 13 11 9 12 23 12 7 4 10 4 8 24 19 23 24 22 20 14 18 8
31 28 27 29 23 23 24 27 22 22 17 17 16 20 22 11 8 12 15 19 22 21 22 26 13 15 14 20 22 22 7 4 4 2 7 13 17 23 28 28 26 20 18 21
32 28 32 30 24 24 31 30 28 22 24 17 19 17 30 33 21 16 18 15 17 22 19 23 16 16 18 14 19 27 13 6 2 6 9 10 15 20 26 29 29 28 24 22
33 27 26 29 27 28 30 32 29 21 15 13 16 21 22 15 15 19 25 17 21 22 17 19 4 17 17 6 21 32 15 7 5 5 7 6 12 25 25 26 29 27 32 25
34 28 28 30 27 27 27 29 28 25 21 15 18 23 15 9 9 17 19 22 26 24 20 19 11 17 15 13 15 27 22 13 4 2 7 5 9 9 21 27 26 26 28 21
39 33 30 28 25 25 25 26 27 25 20 13 18 16 10 7 10 16 20 22 24 29 24 18 12 16 15 18 17 27 22 17 4 5 10 9 11 9 13 21 22 26 23 20
22 26 21 25 23 23 24 23 26 25 17 13 15 11 8 8 13 14 17 20 24 27 26 18 11 8 9 10 12 27 31 20 12 6 4 4 4 7 9 7 12 10 16 21
33 33 30 25 24 23 23 23 26 24 19 17 11 9 6 2 8 17 23 25 24 28 25 17 10 4 13 11 15 26 26 24 20 12 6 8 13 11 3 6 3 4 9 15
31 27 25 24 22 22 23 22 25 23 20 13 16 11 10 8 1 9 25 28 29 26 20 18 11 6 11 6 16 28 24 18 16 11 7 10 9 8 9 7 8 6 7 9
36 27 27 24 22 22 21 22 24 20 21 15 14 11 13 12 5 12 9 28 25 24 15 15 14 8 14 11 9 20 20 20 12 14 11 11 9 9 11 15 11 10 7 7
35 27 25 25 22 22 22 22 23 21 19 17 14 12 11 13 12 8 8 24 23 25 18 17 13 8 17 14 9 16 22 28 22 16 20 20 14 13 11 11 11 8 6 6
35 28 26 25 23 23 22 23 20 19 16 17 11 14 13 13 13 8 8 10 19 26 21 18 7 11 13 12 12 16 21 16 23 27 25 14 16 15 12 12 12 10 10 11
37 30 29 26 24 23 22 25 21 20 19 9 18 13 13 14 14 11 8 8 6 6 8 9 9 6 5 12 13 17 20 22 21 19 21 19 14 13 14 15 14 13 13 13
39 32 28 26 24 24 22 26 26 25 24 11 6 17 19 16 15 16 15 12 13 11 15 16 15 13 11 7 13 14 10 13 13 14 11 13 12 13 15 17 17 17 15 14
37 30 28 26 25 25 29 27 28 22 23 20 7 6 21 19 18 17 17 17 16 18 18 18 15 14 16 19 17 8 9 14 15 15 15 14 13 14 16 19 20 18 16 14
35 28 27 27 26 23 27 21 25 19 31 23 12 11 16 23 23 20 19 19 18 18 19 19 21 20 21 21 22 20 20 19 19 18 17 17 16 13 17 19 19 18 15 13
34 31 29 27 26 29 29 16 21 30 27 19 11 14 15 23 23 24 20 19 20 18 22 24 20 25 18 20 24 23 22 18 18 14 18 18 17 16 17 19 19 17 15 13
39 35 32 28 30 26 29 24 19 18 31 23 13 17 14 12 22 20 19 17 16 9 20 21 30 39 35 32 30 25 18 15 15 15 15 13 16 18 19 19 18 16 14 12
41 42 41 35 29 23 30 14 20 11 11 22 34 19 16 18 19 23 18 8 8 6 11 14 11 28 27 24 30 32 26 19 17 19 18 14 12 17 19 18 16 14 12 10
45 45 34 30 34 13 16 11 14 12 22 12 22 28 23 19 18 15 13 8 6 6 7 8 9 24 20 21 18 28 29 23 21 21 17 17 21 21 19 17 15 11 9 10
42 37 35 27 22 17 15 23 19 21 13 25 21 28 31 21 18 13 8 10 9 6 7 7 11 9 10 11 15 20 28 26 23 22 17 19 18 17 17 14 9 7 9 13
41 28 28 18 17 19 20 27 29 28 25 11 26 27 27 24 23 10 8 10 7 6 8 9 12 11 11 10 12 17 24 24 23 20 22 19 17 17 13 7 6 9 13 16
20 20 23 28 23 24 22 15 21 25 23 17 23 28 21 23 10 11 10 8 8 10 11 11 10 9 11 12 16 21 23 24 22 23 23 15 16 12 7 6 10 13 16 18
21 11 19 29 26 18 22 24 17 23 25 24 27 20 10 12 9 11 11 8 8 9 12 11 9 9 12 15 19 23 23 22 22 22 18 14 11 7 7 10 13 16 18 19
11 17 17 21 26 19 15 21 21 23 26 33 22 15 12 10 11 12 13 11 11 11 12 10 9 10 11 15 21 25 24 21 20 18 14 10 7 7 9 12 15 18 20 21

GFSNW_700_spd_024.txt.gz
Wind_Speed
23 27 34 31 26 25 23 25 26 24 23 29 32 38 36 34 34 25 21 23 21 15 14 19 21 14 8 8 21 22 22 10 10 8 15 26 18 24 10 1 5 1 5 5
23 26 36 33 29 28 26 29 23 22 22 29 33 32 35 35 38 31 16 17 16 16 13 14 21 16 12 13 22 9 7 8 1 6 20 20 17 21 19 4 6 3 3 7
29 11 35 29 24 27 28 32 21 27 23 25 25 25 32 34 32 28 29 26 21 16 14 18 8 20 12 16 11 13 12 8 12 2 10 30 26 20 24 9 3 2 3 19
24 7 36 34 28 28 31 29 26 25 21 26 24 30 24 20 14 9 7 19 22 18 15 17 20 8 12 14 13 16 8 3 4 13 10 27 22 26 25 24 16 7 6 8
30 22 39 30 27 27 31 32 32 22 21 20 18 16 28 29 26 22 18 20 16 20 19 20 25 10 15 13 16 20 13 8 7 9 9 8 7 17 22 28 22 20 14 10
25 4 34 26 29 27 32 33 30 31 19 17 17 22 22 25 19 20 25 19 13 22 21 10 17 18 16 8 15 25 15 6 4 7 11 10 9 20 20 23 24 25 27 22
21 22 35 39 29 24 29 32 30 30 28 17 14 18 24 27 24 19 17 18 22 17 12 13 21 16 16 13 9 16 20 7 3 4 9 2 5 4 18 25 25 26 29 23
27 14 36 25 23 24 28 30 30 32 30 26 10 17 26 28 12 16 18 24 23 19 17 15 10 16 13 14 13 17 21 14 3 3 9 5 11 8 11 20 26 23 22 19
14 15 33 28 22 22 25 27 27 31 29 25 12 16 21 11 7 12 24 19 27 24 19 14 7 6 7 11 10 23 24 17 11 6 3 2 2 3 4 6 13 15 16 25
21 15 36 27 23 23 25 25 24 30 25 22 13 11 16 6 7 10 12 23 28 32 26 19 9 9 13 9 13 15 22 19 20 11 3 5 11 7 1 6 1 2 10 20
21 19 31 26 26 22 23 22 22 28 28 23 12 12 12 11 5 9 16 26 23 27 24 15 8 6 11 9 11 15 22 16 15 16 6 9 4 5 6 3 1 1 1 7
16 24 32 26 22 23 22 21 20 24 24 17 11 17 13 12 8 9 16 19 24 21 22 14 10 9 11 9 8 14 18 19 14 15 12 4 5 3 4 8 10 9 6 4
19 27 32 26 24 22 21 20 20 21 22 16 15 15 10 9 9 0 9 18 19 26 22 18 13 9 13 13 9 10 20 22 13 14 18 13 13 14 10 8 7 5 4 4
21 28 28 24 25 23 21 19 20 21 17 12 12 15 11 8 10 4 5 4 18 22 23 22 18 17 15 19 11 10 15 19 29 24 15 12 13 12 13 10 8 8 7 8
23 30 31 28 24 21 20 19 22 19 17 4 10 11 12 9 10 10 1 3 17 14 14 15 12 9 12 13 13 15 15 14 16 21 16 21 20 13 9 10 10 9 8 8
26 35 30 24 24 22 22 21 25 21 18 8 3 10 12 11 11 11 9 4 7 8 7 7 8 8 7 6 10 6 7 12 17 15 13 7 12 14 12 12 13 13 13 13
30 37 30 25 26 25 26 19 22 25 21 21 8 5 15 14 12 12 14 13 9 11 11 12 9 10 12 13 13 4 13 11 12 13 12 11 13 12 11 14 15 15 15 14
33 35 30 26 25 24 26 17 17 25 23 18 9 7 10 20 18 16 14 14 13 14 14 14 16 14 13 13 12 15 14 11 12 13 14 14 15 13 13 14 16 17 17 15
39 36 28 25 26 28 28 24 16 15 21 13 11 15 11 15 22 20 17 15 14 13 17 20 13 18 15 13 15 16 14 15 15 17 18 18 17 14 13 15 18 19 17 15
36 34 33 33 31 27 22 23 22 16 23 23 16 17 16 14 21 21 16 13 13 6 13 15 22 32 29 27 24 21 18 14 13 17 18 17 17 15 15 17 19 18 16 14
36 34 31 31 29 25 22 14 12 13 14 23 31 17 14 14 17 19 11 7 7 5 10 11 8 25 23 23 29 34 32 20 18 17 18 16 14 11 13 16 17 15 14 12
41 34 30 31 28 14 14 12 13 11 16 12 21 31 15 11 14 11 12 8 6 5 7 7 8 22 21 20 20 22 26 24 19 21 19 16 12 13 15 16 15 15 13 10
38 39 37 28 22 17 15 20 14 17 12 16 13 20 27 20 16 9 7 7 8 5 7 6 9 10 8 8 10 18 20 24 23 22 19 15 14 17 18 17 15 12 9 7
41 14 19 18 19 16 20 26 25 20 17 8 19 23 24 21 19 9 7 9 6 6 7 8 13 12 11 11 7 10 17 21 22 20 15 14 17 18 17 15 12 8 6 7
11 11 11 22 22 26 24 18 20 31 22 15 14 26 21 20 10 9 9 7 7 9 10 11 10 9 9 8 8 11 19 21 20 16 17 18 19 18 17 13 8 5 6 9
9 10 13 23 22 18 21 26 13 22 29 24 23 22 10 11 8 10 11 7 7 8 9 9 9 8 7 8 11 16 19 19 18 20 19 18 18 17 12 6 5 6 9 12
8 9 13 15 21 17 13 20 25 21 26 32 22 16 12 10 10 12 13 16 15 14 11 8 9 6 7 12 17 20 20 20 18 18 19 16 16 11 6 5 6 9 12 15

GFSNW_700_spd_027.txt.gz
Wind_Speed
16 18 18 27 23 35 38 36 34 32 28 33 38 39 34 33 30 25 19 21 25 24 14 15 22 23 17 10 12 18 23 11 13 14 8 23 31 30 31 20 14 37 8 1
21 19 8 26 34 44 41 38 33 29 30 29 38 36 34 33 30 30 25 18 14 11 20 13 21 21 13 20 16 7 10 11 7 2 15 20 32 37 44 59 19 3 5 8
25 22 15 36 41 32 36 33 31 26 27 29 29 31 33 31 26 30 32 29 22 14 18 22 7 21 13 17 17 12 19 17 16 7 1 26 30 32 26 31 6 5 9 24
29 23 20 35 46 37 37 38 31 30 34 33 27 24 23 20 19 16 9 16 25 20 17 19 20 18 18 15 12 14 17 15 16 21 15 20 24 17 22 16 13 12 22 22
28 16 12 20 40 34 35 37 24 30 22 16 18 23 25 21 22 26 26 20 13 17 27 21 15 17 17 14 14 16 16 18 22 7 12 21 25 20 20 17 8 13 11 10
21 19 7 31 30 31 33 32 33 18 22 21 18 22 16 13 17 21 15 13 22 20 19 12 12 16 16 11 11 14 12 8 13 5 9 10 3 17 19 19 23 14 14 12
22 16 12 33 38 38 33 29 32 19 23 17 15 14 9 15 22 21 25 18 22 13 18 14 9 20 17 21 11 11 13 6 7 5 6 2 2 2 10 14 14 21 20 16
23 15 17 12 31 26 22 23 30 25 24 27 24 20 10 16 24 28 18 11 15 18 19 15 11 13 12 18 16 7 12 12 1 1 4 4 4 4 6 16 18 18 17 18
19 16 9 19 32 29 25 24 23 27 23 26 24 19 14 19 17 12 16 20 26 25 20 15 11 5 9 10 8 15 13 15 10 3 1 3 3 6 2 6 12 12 18 21
10 18 6 26 27 23 23 21 23 19 23 25 17 9 13 13 10 9 12 20 25 29 24 14 7 6 11 9 10 18 20 16 15 4 2 5 7 3 2 4 3 5 11 14
10 21 5 23 30 28 23 19 19 20 25 26 17 7 12 14 11 8 7 17 22 32 23 13 8 7 12 9 9 16 20 15 12 11 4 8 3 3 4 3 3 4 4 6
12 17 12 25 26 23 20 19 19 21 22 17 15 15 13 11 13 10 7 18 26 22 23 13 13 8 13 14 10 18 16 23 18 15 13 6 6 3 3 3 5 3 1 4
10 14 17 30 28 24 21 19 17 18 19 19 19 11 10 6 10 2 4 14 25 16 36 13 11 9 11 12 12 10 19 21 13 15 20 13 10 9 6 4 4 2 2 5
8 19 20 29 25 21 22 18 16 16 10 11 11 6 8 7 7 2 3 8 17 23 19 27 20 12 13 15 11 13 13 17 23 18 8 16 12 8 9 8 7 4 3 5
10 20 23 29 25 21 21 17 16 18 14 3 6 9 5 6 7 9 3 2 11 20 21 26 21 22 20 21 22 21 17 13 17 12 14 14 9 9 6 6 6 5 4 4
13 19 26 33 29 26 20 18 20 22 17 4 1 3 8 8 8 8 1 3 11 13 10 14 15 14 8 6 13 12 12 12 10 8 5 9 13 15 14 10 9 8 8 9
15 21 33 31 27 25 25 18 19 22 16 12 6 3 9 11 9 10 11 4 3 6 5 3 7 8 8 8 9 7 7 8 8 9 10 9 8 9 11 10 10 11 11 11
18 24 29 30 26 24 23 17 11 19 19 19 6 5 5 15 14 12 12 11 9 5 7 7 8 9 9 9 8 14 7 13 12 10 10 10 7 9 8 9 10 12 12 11
19 27 32 29 28 27 23 17 13 10 20 10 9 11 6 11 16 15 13 10 11 10 13 14 10 13 12 9 8 7 11 12 9 9 11 12 10 11 10 11 12 14 13 13
21 32 33 30 32 26 24 21 16 10 26 21 9 12 12 9 17 15 13 11 10 6 12 12 17 26 21 19 15 9 7 10 12 14 15 16 14 13 11 11 13 14 14 12
27 33 26 23 26 23 23 15 16 13 9 19 27 18 16 14 15 21 14 6 7 5 8 9 7 20 16 19 22 25 24 20 19 15 16 14 12 11 11 13 15 15 14 14
29 24 26 28 28 17 12 15 12 11 19 11 18 25 14 17 19 10 13 7 5 4 5 5 5 4 7 11 15 17 19 25 23 18 17 15 12 10 10 13 15 16 16 13
23 28 38 20 20 17 15 19 15 18 10 19 14 25 24 13 12 7 7 8 5 3 5 6 11 16 15 10 6 11 16 15 19 18 16 14 12 8 13 15 18 15 13 10
28 16 15 15 15 16 21 26 22 23 15 10 20 24 26 21 16 7 6 8 6 5 7 10 10 9 9 9 8 8 10 16 19 18 19 20 14 10 16 17 15 13 11 7
21 8 10 18 19 18 20 15 22 21 18 16 21 25 15 20 9 9 8 7 7 9 8 9 7 6 7 7 6 8 12 17 17 19 18 15 11 12 16 17 15 11 7 5
11 10 10 20 18 17 21 19 17 23 26 18 21 17 9 12 9 10 10 7 8 7 6 5 6 5 5 6 8 12 18 17 17 16 16 16 15 16 16 15 11 8 5 5
12 7 12 13 20 15 16 20 20 18 25 32 23 15 13 10 11 12 12 14 11 9 10 9 8 7 8 10 12 17 19 18 17 16 17 16 17 18 16 11 8 6 5 7

GFSNW_700_spd_030.txt.gz
Wind_Speed
24 32 29 10 14 20 26 32 33 18 38 37 38 35 32 31 23 22 20 20 16 17 17 18 20 26 17 6 9 20 25 14 21 37 39 29 50 48 41 18 14 18 6 12
22 29 35 16 12 23 21 37 18 21 38 43 37 37 37 29 28 26 20 18 20 18 17 15 18 24 21 18 22 12 13 13 11 8 9 22 32 40 49 34 18 28 10 12
18 28 36 10 6 26 18 15 22 33 34 31 39 33 30 31 30 28 24 23 22 18 19 21 10 8 12 14 20 26 23 19 21 15 6 16 25 45 38 41 21 26 29 25
17 23 33 4 8 37 26 22 24 38 43 40 32 31 19 24 29 25 17 12 16 19 20 23 27 24 13 13 18 25 24 22 25 29 31 17 37 40 45 49 34 29 52 39
19 22 26 7 7 27 32 20 30 33 18 36 28 28 26 26 20 17 18 20 17 15 26 23 12 20 13 18 17 21 23 27 26 15 13 19 24 28 38 40 41 45 13 16
21 22 24 14 1 26 35 25 35 31 24 24 25 30 25 21 13 19 12 18 12 18 16 19 13 7 15 16 18 17 25 18 19 11 6 12 12 20 21 27 22 14 12 16
18 17 19 15 10 25 14 32 23 30 20 24 24 18 15 14 14 21 16 17 16 14 8 15 17 11 15 16 21 24 20 15 11 6 6 3 4 2 6 11 9 15 15 16
15 15 12 14 11 40 21 25 28 27 22 15 12 13 15 14 13 15 24 18 19 15 14 15 12 13 14 22 18 20 12 9 7 4 5 3 4 2 2 11 15 15 19 17
13 11 7 4 14 30 14 28 23 25 19 19 17 21 14 12 15 18 13 9 19 25 22 17 9 6 7 6 4 11 8 8 7 5 2 1 4 6 3 4 7 13 17 19
10 8 9 4 22 29 32 19 19 20 21 19 15 9 12 12 11 14 11 18 23 24 23 16 11 10 9 5 7 9 9 12 12 8 3 4 3 3 5 3 2 7 12 17
10 7 7 10 21 27 24 20 17 20 15 14 15 17 11 9 13 10 3 17 31 27 23 11 10 9 12 8 8 9 14 11 7 8 3 5 1 2 3 4 6 4 7 12
10 7 10 18 23 27 25 21 20 18 15 13 14 18 20 13 12 7 8 11 29 23 21 12 8 8 9 11 6 15 12 14 11 11 4 5 5 4 5 3 1 1 5 10
10 6 11 18 26 26 21 17 16 19 17 17 17 11 7 11 7 8 5 16 21 22 27 16 13 7 11 11 13 8 17 14 18 17 14 14 10 9 2 3 3 3 5 8
10 10 13 21 25 24 18 20 17 16 12 9 9 5 10 6 6 3 9 9 18 16 27 26 17 12 10 12 12 12 13 13 16 20 13 17 13 8 2 3 1 2 5 8
10 11 16 24 29 26 21 18 17 15 13 5 5 8 7 9 5 5 3 4 7 19 19 20 31 16 13 15 17 20 18 14 12 4 10 7 13 7 3 2 3 5 5 5
12 14 19 26 31 27 20 19 17 17 17 12 1 2 8 8 5 6 5 4 13 11 16 25 22 24 16 10 21 24 17 17 12 8 8 11 16 10 8 7 5 6 7 9
12 14 20 33 31 24 23 17 19 16 19 14 6 1 6 10 8 7 2 2 8 7 10 8 10 20 17 11 8 4 8 12 14 11 6 6 9 13 14 11 9 9 9 9
15 18 27 34 30 26 22 19 11 15 20 12 4 4 5 13 10 10 10 7 1 2 2 2 2 5 7 7 8 10 7 8 9 15 9 9 8 9 10 10 9 9 9 9
16 19 28 31 29 28 24 17 14 12 21 8 8 9 3 12 14 11 11 9 6 5 7 7 5 9 9 8 7 11 12 10 10 10 10 12 8 8 8 7 9 11 11 11
14 21 26 29 32 24 23 22 14 12 16 24 6 13 9 7 15 15 9 8 7 3 9 11 15 18 14 12 6 6 8 14 13 10 9 11 10 9 9 7 10 12 12 11
13 21 21 19 28 23 25 13 16 13 10 17 28 16 9 7 12 14 11 5 5 4 6 6 6 18 19 17 19 21 17 12 12 15 14 12 10 8 11 10 14 15 13 11
26 21 27 29 29 15 15 10 11 10 17 10 19 24 18 11 11 13 11 7 6 4 5 6 6 6 7 6 12 20 24 23 22 18 15 12 12 11 10 11 14 14 13 12
26 24 34 16 16 14 14 20 15 15 7 17 21 18 21 14 19 9 8 8 5 4 6 6 11 10 11 10 9 10 19 23 24 23 18 14 14 13 12 12 15 15 14 12
20 16 10 14 11 13 17 25 31 25 12 7 20 20 25 15 17 7 5 7 5 5 7 9 11 9 6 7 7 8 10 16 19 20 18 18 14 14 9 11 16 15 12 11
9 6 8 13 15 10 12 13 15 26 21 11 15 21 18 20 7 6 6 6 6 8 6 2 3 4 5 6 6 8 12 17 21 21 20 22 22 16 13 17 18 15 14 12
10 6 6 9 16 12 13 17 13 19 24 23 21 19 9 10 8 9 10 6 8 5 4 3 2 4 6 7 7 9 14 21 20 20 18 19 16 14 13 16 17 16 13 9
8 8 8 10 12 16 17 18 20 20 27 32 21 15 11 10 10 11 12 16 11 7 6 7 9 8 8 8 9 12 17 20 18 18 18 20 20 17 16 16 15 12 10 7

GFSNW_700_spd_033.txt.gz
Wind_Speed
15 20 30 35 4 10 8 12 17 19 28 49 45 42 36 30 26 22 19 18 20 20 15 16 17 22 19 7 9 15 16 16 22 38 39 31 36 41 35 17 12 24 8 21
12 17 24 32 4 4 9 8 15 23 33 53 47 25 33 34 26 23 16 14 15 13 18 12 18 20 19 22 22 9 11 13 12 8 13 29 32 45 45 40 19 24 13 21
12 14 18 27 5 4 9 12 14 43 36 46 39 36 31 31 25 22 22 21 23 20 19 18 12 11 6 11 16 21 25 28 27 21 26 20 18 32 39 46 28 21 35 40
12 15 20 25 20 3 16 14 9 44 47 39 38 32 20 26 26 24 23 22 20 16 17 18 25 19 11 7 13 21 25 34 36 44 43 38 27 29 28 47 48 29 29 38
11 16 18 28 21 3 24 26 8 40 21 40 35 31 30 23 17 21 21 21 15 16 21 23 1 9 17 15 17 18 25 33 32 42 40 23 36 32 30 37 40 39 31 43
9 15 18 26 13 8 21 28 5 31 18 33 31 32 27 26 22 20 20 17 14 19 16 14 12 13 11 13 17 23 20 22 20 14 14 10 7 24 36 37 36 37 34 26
8 8 13 15 2 12 27 20 18 30 25 17 30 27 23 24 19 17 16 14 15 14 10 12 10 20 14 14 19 23 23 21 17 11 7 3 6 5 20 32 38 39 39 16
11 8 10 6 1 13 26 16 23 24 24 18 16 19 15 11 17 19 19 21 23 16 12 7 6 15 18 20 21 22 21 21 10 8 9 4 6 7 12 21 17 14 12 15
12 8 6 4 5 18 25 20 22 21 25 17 11 12 15 14 14 19 21 15 17 21 17 11 8 7 7 4 4 10 16 14 10 8 4 2 5 6 5 10 13 12 17 18
12 8 4 5 9 21 16 21 26 24 20 17 11 14 14 16 18 14 14 12 11 22 23 17 11 9 5 5 5 6 10 9 13 11 4 3 4 6 7 4 5 19 23 23
11 7 6 9 14 18 26 23 19 13 15 16 14 16 15 13 9 10 10 10 16 25 25 12 11 10 9 8 7 8 12 8 7 7 4 3 3 2 3 6 6 2 12 19
9 8 10 13 20 16 22 19 15 17 12 9 13 15 12 14 14 13 9 7 16 20 22 11 10 8 7 10 4 14 9 10 3 5 2 1 2 4 4 2 1 2 6 12
9 9 12 15 20 23 22 19 15 13 16 13 14 13 13 11 11 13 13 10 23 19 29 9 9 6 9 7 10 8 8 11 10 7 10 12 7 4 5 5 4 4 5 9
10 8 12 16 22 26 21 20 14 13 12 12 8 8 11 10 11 10 9 11 12 32 22 23 13 14 9 10 12 10 12 8 9 13 13 8 9 6 1 1 2 4 4 8
10 10 14 20 24 24 20 17 16 14 11 5 5 8 6 7 5 5 10 9 9 11 18 31 18 17 12 11 14 15 13 12 10 7 3 7 3 7 3 5 4 4 6 3
11 12 17 24 25 23 23 16 14 16 10 14 6 3 7 9 5 2 4 6 8 14 8 24 20 24 23 11 12 16 16 17 15 15 7 8 9 11 5 5 5 8 8 9
9 14 21 28 28 27 24 17 18 10 13 12 6 3 4 8 7 4 3 6 7 12 12 12 22 22 19 23 29 16 10 11 13 12 11 9 13 13 8 7 10 10 11 11
10 17 21 27 31 26 23 18 8 11 9 12 5 4 4 8 9 9 5 2 4 5 4 6 10 14 17 17 12 12 5 6 11 12 11 7 6 9 8 10 10 10 10 10
10 16 19 26 30 27 20 16 15 7 14 6 7 7 2 7 8 7 8 4 2 2 4 5 4 6 9 5 9 11 10 5 5 14 11 10 9 9 10 10 11 10 10 11
9 13 20 26 29 25 21 13 11 14 15 18 10 11 7 4 10 9 6 5 4 3 6 8 14 15 10 13 9 10 10 10 9 10 8 12 10 9 8 8 10 10 9 9
12 15 19 20 25 25 22 8 12 11 10 11 21 8 11 8 10 9 7 2 4 4 6 6 6 14 16 16 14 10 10 14 15 16 15 13 9 8 9 9 11 13 13 11
17 19 26 32 23 12 13 10 10 9 14 10 15 23 13 8 6 9 7 5 5 5 5 5 6 9 18 24 23 20 22 20 17 16 13 11 9 10 11 10 12 16 15 12
23 19 24 13 14 12 11 17 13 15 5 17 19 14 24 21 10 7 5 6 5 4 5 5 6 5 9 9 9 11 19 25 25 22 18 16 13 14 13 13 15 15 13 10
20 8 9 9 9 11 12 19 27 19 14 7 14 18 18 19 11 7 5 6 5 4 6 5 5 5 7 10 12 13 12 18 24 23 20 17 15 15 17 17 15 15 15 12
11 5 5 11 11 7 10 11 16 23 20 13 14 21 15 16 8 7 6 6 6 7 5 3 3 2 5 6 8 10 12 15 20 21 21 16 18 14 16 18 17 17 14 12
10 5 4 3 8 9 10 17 12 19 23 17 20 11 7 10 7 7 8 5 7 4 3 3 3 2 3 5 7 9 12 15 17 19 20 21 22 20 19 13 17 19 15 13
12 12 9 6 4 11 13 18 19 24 25 27 16 12 10 8 10 12 12 17 12 6 6 6 8 9 8 7 7 9 13 17 20 20 20 19 23 19 15 14 16 15 12 10

GFSNW_700_spd_036.txt.gz
Wind_Speed
30 14 18 23 31 13 4 5 8 9 26 33 48 35 32 26 23 23 16 14 12 11 8 8 14 18 17 8 5 14 15 12 19 32 35 33 34 37 39 13 8 18 18 30
28 15 16 21 29 12 9 2 10 5 33 39 46 28 31 32 25 21 18 13 12 13 12 6 13 16 14 21 21 7 7 10 10 11 10 17 32 37 44 44 22 24 9 23
27 13 14 18 24 11 3 1 10 17 35 37 45 26 34 29 26 22 21 15 14 13 15 14 10 10 6 10 14 19 20 22 26 20 37 38 21 29 37 44 24 33 40 42
26 10 12 15 17 10 6 6 8 27 41 35 43 29 26 32 27 28 23 24 23 18 11 11 17 21 24 12 9 11 17 27 30 39 42 49 51 46 32 37 48 26 42 38
26 9 9 11 18 9 5 9 3 26 6 38 27 31 28 21 26 25 24 23 14 11 16 15 11 7 14 16 14 15 19 27 27 43 37 32 27 27 39 30 28 38 42 39
22 9 6 9 17 9 3 5 12 10 16 30 26 41 32 23 15 16 17 16 12 15 13 15 14 20 14 13 10 11 17 20 20 27 35 25 10 10 22 27 28 22 31 14
18 9 7 10 15 4 6 15 14 7 19 19 26 33 24 23 20 22 18 12 13 14 7 8 10 12 17 18 18 17 24 24 23 22 21 5 17 20 11 13 18 24 27 22
16 9 6 6 8 5 15 15 12 6 16 12 20 25 19 21 20 21 21 17 17 17 12 9 7 9 12 21 20 19 21 18 13 7 13 11 17 19 17 5 8 12 13 8
15 10 5 8 2 6 9 14 8 8 19 20 11 14 14 13 12 15 17 17 22 16 17 12 6 6 5 2 4 6 15 17 21 11 5 3 12 13 7 9 11 14 18 16
14 7 6 5 6 8 14 19 10 18 16 12 12 9 10 14 16 18 17 15 16 16 22 15 8 7 6 5 3 5 6 11 19 15 5 7 10 9 7 6 3 13 11 10
13 9 5 7 9 16 15 16 17 17 16 11 13 10 10 10 12 12 11 10 10 13 20 16 7 10 11 7 9 5 7 5 7 9 6 3 6 1 4 4 1 5 13 17
13 8 6 10 12 14 19 18 12 11 13 10 14 16 12 14 14 14 12 7 7 14 19 15 12 8 6 9 3 11 7 10 3 6 2 0 5 3 3 3 3 3 8 14
12 8 7 13 18 12 18 18 12 13 14 9 10 12 12 15 15 15 14 10 14 13 22 12 9 6 8 5 8 9 5 9 11 6 3 8 10 2 3 5 5 4 3 10
11 9 9 14 21 21 22 16 13 15 8 9 11 10 9 10 10 11 13 13 10 18 27 23 12 14 6 9 10 9 7 8 5 7 8 11 6 7 1 2 6 5 5 10
11 9 11 15 21 22 22 20 14 11 10 4 5 7 8 7 11 9 10 13 15 14 24 28 26 11 12 14 16 19 11 10 9 4 5 5 2 6 2 1 4 9 10 10
10 11 14 18 23 24 17 16 16 11 9 12 9 4 6 9 9 2 1 11 14 15 21 27 26 27 14 8 12 12 8 9 13 12 7 6 4 9 5 6 6 5 8 11
9 12 18 21 25 23 23 14 11 14 12 9 5 4 3 6 7 3 2 6 6 8 12 13 18 26 24 25 29 22 18 12 12 16 14 13 12 11 6 8 7 5 4 9
7 13 19 21 27 24 23 13 8 10 7 6 4 5 4 4 6 5 2 1 6 8 10 11 14 19 22 22 18 13 12 6 8 10 12 8 8 19 11 10 12 8 9 8
5 12 14 19 25 22 18 14 7 5 10 5 5 5 2 3 6 4 4 2 2 3 7 8 8 15 13 5 8 7 9 6 7 10 13 9 6 11 9 6 13 11 11 10
7 11 12 16 26 19 12 12 14 11 13 13 10 6 6 3 5 4 2 3 5 4 6 8 14 23 14 8 8 9 10 7 5 15 14 8 9 9 10 10 14 13 10 10
10 13 12 15 23 21 22 8 11 9 8 11 15 13 6 8 6 7 5 2 4 4 4 5 6 7 11 14 13 11 12 12 9 9 9 12 10 6 8 10 14 14 13 11
12 17 20 20 23 9 10 8 8 8 10 6 12 15 8 10 8 6 5 5 4 4 4 5 5 6 10 17 16 15 12 11 15 14 13 12 12 12 11 10 12 15 15 14
16 14 17 15 12 11 8 12 9 9 3 9 14 15 20 12 7 4 4 5 6 4 5 5 5 5 5 19 21 20 20 20 20 16 16 16 15 14 14 13 15 15 17 14
19 5 8 9 7 8 9 10 15 14 10 2 8 12 17 17 11 6 4 6 4 4 4 3 4 3 5 9 15 15 15 17 22 20 17 17 16 14 17 17 16 16 15 10
13 3 4 7 7 6 7 12 10 20 16 11 6 15 12 9 8 7 7 5 5 5 3 1 2 2 6 8 10 11 12 13 17 21 20 17 16 16 17 19 19 18 17 16
13 5 4 2 4 12 8 13 13 14 21 14 14 9 7 9 6 7 8 5 6 2 3 2 0 1 1 3 5 8 9 11 14 17 18 19 18 18 16 17 19 17 14 12
12 13 9 1 3 6 12 12 14 17 21 20 16 11 10 7 8 12 10 16 13 4 4 5 5 5 5 5 7 7 8 10 14 17 21 21 21 21 20 18 12 14 16 14

GFSNW_700_spd_039.txt.gz
Wind_Speed
26 29 18 16 24 32 12 5 9 19 26 36 37 23 23 22 20 15 15 14 10 10 12 9 7 9 10 5 6 8 12 9 15 30 31 31 31 33 33 24 12 18 23 36
26 27 14 12 20 26 16 10 4 18 28 29 28 22 20 21 22 20 17 13 11 9 10 4 8 8 4 16 14 4 7 8 8 13 9 15 27 33 41 42 34 23 5 20
26 26 11 8 17 21 12 5 3 37 24 25 27 22 24 24 20 17 15 13 12 9 9 10 5 8 4 3 8 13 18 19 22 19 31 34 35 44 36 36 26 29 37 45
25 23 7 7 15 15 4 5 9 21 18 24 30 23 28 29 26 22 20 17 16 15 8 9 13 11 11 14 9 12 16 24 27 35 40 43 45 47 42 36 46 25 40 34
23 19 4 7 11 17 6 5 7 10 5 23 26 26 28 29 26 17 22 21 16 11 12 13 4 7 4 11 14 17 20 24 24 40 28 27 38 26 25 17 24 36 34 38
20 14 4 5 8 16 4 7 6 12 8 29 27 34 30 28 19 19 18 13 13 12 10 9 9 15 16 10 10 12 18 15 17 16 28 30 9 29 27 13 14 13 29 10
19 14 7 6 3 7 5 4 3 3 12 17 27 25 31 29 15 12 7 10 10 11 8 5 7 8 11 14 21 22 19 16 18 19 24 4 17 25 23 14 10 12 11 3
19 13 8 6 3 6 7 7 6 4 5 10 14 23 23 29 22 17 14 14 13 11 11 8 6 6 11 18 22 21 21 20 12 6 14 21 10 27 25 20 23 6 4 1
16 11 8 4 5 8 4 8 7 7 8 9 6 16 17 21 20 20 15 14 14 16 18 11 5 5 4 4 3 10 19 25 23 10 5 4 11 19 16 14 17 19 15 15
14 9 6 4 7 6 10 8 6 8 9 6 9 11 15 14 14 12 11 13 14 11 15 14 10 8 6 5 5 6 7 11 22 21 7 13 13 14 11 9 1 8 10 15
14 7 5 7 10 10 13 12 13 9 10 9 11 11 7 8 8 12 12 9 13 13 17 15 10 9 11 10 9 7 9 7 6 8 5 7 9 9 9 9 3 1 11 8
12 7 8 11 10 12 17 10 13 13 12 7 9 9 10 11 12 12 16 14 10 11 14 14 10 11 7 11 4 12 8 10 4 7 3 6 5 7 9 9 8 4 9 20
10 9 10 11 13 16 21 15 11 14 9 7 5 8 10 10 14 15 18 18 11 11 15 9 14 9 11 7 9 7 8 10 10 8 2 7 9 4 6 8 6 10 2 8
11 11 13 15 17 16 23 17 13 12 8 8 6 7 8 10 12 16 16 16 13 12 16 19 13 12 6 9 9 8 6 5 5 5 6 10 11 6 3 2 4 7 4 10
11 11 14 17 21 23 26 17 10 11 8 3 6 6 9 10 10 11 10 10 10 14 14 20 18 19 10 14 14 15 11 11 10 5 4 4 2 6 5 4 2 3 6 10
13 10 15 17 20 22 19 19 15 9 14 13 9 7 11 9 9 10 5 9 16 15 17 20 19 24 17 9 13 14 9 9 10 12 10 6 3 7 6 6 10 7 7 9
13 9 16 19 21 20 18 15 16 13 10 10 6 5 3 2 5 5 2 5 10 15 14 19 25 22 21 28 33 19 14 11 15 13 14 12 9 10 9 9 5 11 10 12
8 8 13 15 19 22 14 12 10 10 11 6 4 5 5 4 2 4 2 2 8 9 11 9 15 15 18 22 16 13 16 19 15 12 13 12 10 15 14 11 10 8 13 12
2 7 11 11 18 21 16 11 4 9 8 2 5 5 3 4 5 3 1 1 1 3 8 10 9 18 16 7 7 14 10 9 6 8 14 12 8 6 15 9 9 13 13 14
5 12 14 12 23 20 10 13 10 7 13 13 13 6 5 4 2 3 1 3 3 3 5 7 13 24 16 12 7 9 11 8 8 13 13 12 8 7 10 8 15 18 12 11
5 12 11 16 22 19 12 7 9 9 6 8 12 12 10 6 4 5 3 3 3 3 4 4 5 5 4 14 13 12 12 12 8 13 15 11 11 12 10 12 14 15 13 11
7 13 13 20 21 6 9 6 7 6 5 7 7 14 13 8 8 6 4 5 4 4 4 5 4 3 5 12 15 13 14 16 12 11 14 14 13 14 13 14 14 16 15 14
12 17 15 16 10 8 8 9 8 7 4 2 6 10 13 8 9 5 4 4 5 4 4 4 4 6 4 12 17 15 13 13 12 13 14 15 15 16 15 16 18 17 17 16
15 11 9 10 5 7 7 10 10 11 7 2 1 5 13 9 5 5 3 5 4 4 4 2 4 3 1 6 16 17 16 17 17 16 16 16 15 15 17 18 15 16 18 19
11 6 4 6 5 5 9 12 13 15 16 8 7 9 11 5 6 4 6 4 5 4 2 2 3 2 2 5 7 11 14 14 14 17 17 17 17 16 17 19 18 18 17 14
10 8 6 4 5 11 9 12 13 15 17 12 13 7 6 7 6 6 6 4 4 1 2 1 1 1 1 1 2 5 7 10 13 16 18 18 16 17 19 20 21 21 18 17
9 12 13 5 1 2 11 11 11 13 16 17 13 9 8 6 7 9 9 15 13 3 2 5 5 4 4 4 4 5 7 9 12 16 18 19 19 20 22 19 20 22 16 15

GFSNW_700_spd_042.txt.gz
Wind_Speed
27 27 26 11 14 23 20 17 8 15 25 31 27 25 18 23 23 21 14 11 13 17 16 15 10 8 8 10 11 16 16 10 13 22 16 17 19 19 24 17 11 19 25 41
26 26 18 9 16 23 22 12 11 22 23 25 21 35 23 25 22 17 15 11 10 15 17 7 9 6 9 13 13 7 14 11 7 4 2 7 15 22 29 41 37 39 21 25
26 24 12 8 18 22 14 11 7 26 24 26 26 28 25 24 22 13 13 13 11 11 13 8 6 8 5 7 9 18 12 16 18 14 18 17 30 44 43 35 30 42 42 50
24 19 8 10 14 21 14 14 22 19 26 14 21 19 12 19 19 13 13 11 9 9 8 7 8 8 9 9 10 10 14 17 20 25 29 35 39 38 33 40 46 36 50 29
22 15 6 6 11 15 10 22 13 14 20 15 20 19 12 19 21 14 11 8 5 6 6 9 9 7 7 10 12 17 18 15 16 34 28 20 28 29 24 20 16 23 27 34
19 13 4 3 8 10 9 13 13 8 9 13 20 22 15 21 19 15 8 6 9 6 4 6 8 11 13 11 11 13 14 10 12 15 19 32 5 18 26 18 11 10 11 7
18 12 6 3 8 8 5 5 9 9 7 16 16 17 20 15 16 13 5 9 9 4 7 9 6 8 11 14 19 16 12 10 11 20 22 3 9 18 24 17 21 7 6 3
16 10 6 3 6 6 5 3 3 7 6 9 16 14 19 15 20 10 8 7 11 7 7 5 5 7 10 13 18 22 22 17 11 7 12 21 2 22 22 14 20 14 5 3
15 6 3 4 4 4 3 4 2 7 5 8 13 20 18 17 19 16 11 11 11 9 9 9 5 5 5 3 2 4 18 20 23 10 6 4 8 21 15 7 13 16 14 12
12 5 4 4 4 2 7 5 7 10 8 6 13 13 16 17 15 16 15 14 9 8 12 18 12 9 7 4 3 5 12 20 29 24 10 13 13 13 11 7 10 14 11 12
10 5 7 7 7 10 11 9 9 10 7 9 10 8 8 11 14 11 7 9 13 13 14 11 9 10 9 8 9 7 10 9 11 16 8 9 9 9 10 9 14 5 5 8
13 8 10 10 11 13 14 11 10 8 9 9 10 11 10 12 12 11 11 13 9 7 11 12 8 10 6 9 4 15 9 12 5 11 7 7 10 11 10 11 6 4 4 5
16 8 12 13 15 16 19 15 14 11 10 7 7 10 11 11 11 11 13 16 15 14 11 10 13 9 12 7 13 14 11 12 14 9 2 9 12 12 9 8 11 11 5 17
18 8 12 16 18 18 21 16 13 11 6 5 5 6 6 8 9 9 11 17 14 15 13 18 10 14 7 14 13 10 10 7 8 10 7 9 9 9 7 3 5 7 2 5
19 10 12 17 18 17 19 14 9 10 9 4 5 8 9 9 12 13 13 13 15 16 16 16 21 11 12 12 16 19 14 13 13 9 9 8 7 4 6 2 2 4 4 10
18 10 12 18 21 21 22 17 11 12 11 6 6 6 7 16 13 14 11 16 16 16 15 13 19 22 14 10 14 16 10 11 12 14 14 12 8 5 7 7 6 6 7 11
15 7 12 17 19 17 22 18 14 13 7 9 6 5 4 3 3 5 5 8 14 18 17 19 21 18 21 29 33 22 19 14 12 12 10 12 11 9 9 9 8 11 6 12
9 4 12 16 15 15 20 17 13 9 11 7 5 5 6 6 1 4 3 2 11 14 15 14 14 16 17 22 11 7 13 15 20 23 20 15 15 14 15 16 10 6 11 16
3 10 15 17 18 24 16 12 10 9 10 4 5 5 3 6 2 4 3 2 4 6 13 15 11 17 16 7 9 11 14 11 12 14 14 17 16 13 16 17 14 11 15 15
4 13 16 16 23 22 11 11 6 5 9 12 14 7 5 6 3 4 3 2 3 4 7 10 17 28 21 18 11 7 7 10 10 12 12 17 16 8 8 13 16 18 13 15
5 13 14 18 24 17 13 7 8 6 5 8 10 13 13 7 6 5 3 3 4 4 5 6 6 4 3 7 18 11 10 11 9 10 16 12 11 8 10 14 13 18 17 15
6 12 11 24 19 7 8 6 6 6 5 6 4 7 12 11 5 4 4 5 4 4 5 5 4 2 6 3 13 14 12 11 6 5 10 12 16 10 10 10 12 16 16 13
11 12 14 17 11 8 7 9 7 6 5 3 3 2 6 9 4 5 4 3 4 5 4 4 3 6 5 4 12 14 13 14 11 9 7 10 14 13 11 11 15 14 16 15
14 10 10 9 7 8 8 10 12 11 9 4 3 7 6 6 4 4 3 4 5 4 3 2 4 6 4 3 13 15 13 13 13 12 13 13 14 14 16 17 16 15 17 18
11 8 7 9 7 7 9 10 13 14 14 7 6 8 7 5 5 4 5 4 4 4 3 6 7 6 2 3 9 14 15 15 17 17 15 16 16 17 17 20 21 20 20 21
10 10 8 7 7 11 10 13 16 15 14 11 10 7 5 8 5 6 5 4 3 1 3 6 5 5 3 0 4 8 12 14 16 16 16 17 17 18 19 21 22 22 22 20
6 10 15 10 7 5 13 16 15 14 12 16 12 8 8 6 7 9 10 10 7 4 5 7 9 8 6 6 5 5 7 10 12 16 18 18 19 20 21 22 24 27 23 21

GFSNW_700_spd_045.txt.gz
Wind_Speed
27 27 25 16 16 23 20 17 1 6 15 24 23 22 8 16 21 12 11 10 9 19 23 15 13 14 3 17 15 19 13 5 8 15 9 8 17 14 21 12 9 14 19 39
26 25 20 11 16 24 20 11 17 16 22 10 16 20 14 17 21 13 10 10 11 18 20 10 8 10 12 12 15 12 14 7 3 2 1 12 18 22 27 29 35 37 20 28
25 22 15 12 19 27 19 9 14 18 21 14 18 22 13 22 18 13 10 12 15 18 15 8 12 10 9 11 13 16 10 9 12 7 6 8 14 20 23 28 23 41 46 56
22 17 13 13 19 20 13 17 18 11 16 14 13 20 19 23 18 15 16 14 13 13 7 6 6 8 7 7 10 12 16 13 15 24 24 23 25 28 29 33 44 36 55 46
20 12 10 11 16 19 19 16 8 5 18 19 11 8 9 19 20 16 9 11 10 8 5 4 6 8 8 8 9 12 16 12 13 24 17 14 21 24 25 27 23 27 27 31
16 12 6 8 11 13 8 13 11 15 13 16 13 9 8 13 14 10 8 6 5 3 5 6 7 10 9 7 9 9 15 12 7 8 10 20 7 9 20 13 11 15 20 14
12 7 6 7 10 11 8 10 12 11 10 17 15 14 10 13 11 9 7 5 5 3 4 6 4 4 8 11 14 15 10 11 10 11 12 3 6 12 20 11 12 15 8 8
10 4 3 5 7 6 6 5 5 8 8 14 15 12 12 13 15 10 6 7 8 3 3 0 0 3 8 10 12 17 20 11 5 5 10 19 9 12 19 11 10 17 8 7
9 3 2 4 4 3 5 3 4 7 6 12 15 14 14 13 11 11 9 5 5 5 6 5 1 3 3 3 3 3 22 19 15 4 4 3 2 19 20 8 3 3 10 11
13 4 3 2 1 2 1 4 8 9 7 7 14 15 18 15 15 9 10 8 9 8 5 4 6 6 6 5 6 7 12 18 23 15 9 12 11 13 13 8 11 11 6 10
16 6 6 5 4 5 5 6 7 5 8 11 11 12 9 13 12 7 7 7 10 8 9 5 7 8 7 8 7 5 9 11 8 12 8 10 5 12 10 13 17 14 2 7
17 9 9 9 7 8 9 7 8 7 7 10 11 10 10 10 11 12 10 10 2 5 5 8 6 7 7 8 7 12 9 10 5 10 9 7 16 14 12 12 13 11 8 5
16 9 10 11 10 13 12 12 11 9 5 3 5 7 10 11 10 10 11 11 12 14 11 13 12 11 9 9 11 9 10 12 14 10 3 9 15 14 15 12 10 12 12 15
16 11 10 13 14 16 19 16 13 5 6 4 6 7 8 11 13 14 12 12 12 14 12 14 16 13 11 9 14 11 9 11 9 15 13 8 10 12 9 6 8 12 9 7
17 13 10 14 17 16 17 19 14 9 6 5 5 9 9 11 12 13 15 17 17 14 16 18 17 20 15 15 16 21 17 15 13 7 13 11 13 13 9 8 8 6 7 1
20 12 10 17 19 17 17 16 13 12 10 7 5 6 8 10 14 19 21 19 15 18 19 22 20 20 16 10 12 16 15 17 17 18 18 17 16 12 9 10 10 6 2 2
18 7 11 18 20 18 20 17 13 13 11 7 6 6 4 10 8 7 9 11 19 21 19 20 18 10 14 25 29 17 9 10 13 12 14 13 9 12 12 10 7 6 9 4
11 1 11 19 18 18 20 19 11 11 10 10 5 7 8 6 7 5 5 6 11 15 19 20 18 19 22 24 23 16 19 27 31 25 23 21 17 14 15 13 13 6 6 8
4 8 16 20 19 18 16 17 14 12 10 5 7 6 5 3 5 5 7 4 3 7 13 18 11 18 16 10 9 13 14 14 15 18 22 24 23 17 15 16 13 11 13 13
3 12 18 18 22 20 15 10 10 11 15 16 15 10 6 7 7 3 6 4 5 4 6 8 17 30 23 21 19 14 11 10 13 12 10 11 13 15 16 13 14 12 12 15
5 10 13 21 26 14 10 8 8 8 6 9 11 11 13 11 7 8 4 5 3 3 4 5 6 6 4 7 10 20 15 9 8 9 10 11 14 15 12 10 13 19 14 14
7 10 10 21 21 7 8 7 7 7 7 6 5 5 8 11 8 4 4 5 4 4 5 5 4 4 8 11 8 13 12 9 6 7 7 7 9 11 8 13 15 17 16 14
9 10 17 17 11 8 7 9 7 6 6 5 4 4 4 9 5 4 5 3 4 6 4 4 3 8 11 8 8 12 12 11 8 15 15 14 9 10 10 9 14 15 15 11
9 8 11 11 8 8 9 12 13 10 7 4 3 5 3 4 4 4 4 5 5 4 3 2 8 11 10 6 10 14 13 13 12 12 11 14 14 11 10 13 12 12 14 15
9 7 8 12 11 9 10 12 14 13 11 6 3 6 4 5 5 4 5 4 4 2 3 8 8 8 7 3 5 12 13 11 13 14 13 13 15 17 16 16 18 19 19 17
12 10 9 10 13 13 10 15 15 13 11 8 8 8 5 8 5 6 7 4 2 2 1 5 9 10 10 6 2 6 11 15 17 19 18 17 17 17 17 18 21 21 19 19
7 8 16 14 12 12 15 17 15 14 15 12 9 7 8 5 6 8 7 5 5 3 5 10 12 11 10 9 7 5 6 9 12 15 17 18 18 18 18 20 22 23 24 24

GFSNW_700_spd_048.txt.gz
Wind_Speed
28 22 15 14 21 27 22 13 4 11 11 16 14 6 16 20 15 14 10 10 15 21 25 18 14 14 3 20 15 25 13 8 9 16 5 5 15 16 22 6 5 11 10 15
26 15 12 16 23 26 14 8 11 12 11 8 7 13 8 10 13 10 8 11 14 23 21 16 8 16 7 21 17 15 19 6 3 5 5 14 16 21 19 22 23 28 10 12
22 12 12 17 25 22 7 10 8 11 9 13 9 10 9 14 19 16 14 20 23 23 12 9 14 15 13 18 19 14 10 8 8 4 9 1 11 14 19 25 19 33 41 52
18 11 11 16 23 21 10 12 8 2 9 11 6 6 6 15 12 20 21 16 19 17 10 14 12 10 13 16 20 19 15 9 11 15 17 16 20 24 23 28 36 30 47 46
17 10 9 12 16 17 9 11 4 5 3 10 11 4 15 18 19 15 12 20 16 8 10 5 12 9 7 6 11 12 17 8 9 19 12 7 13 16 19 23 31 33 31 39
19 10 7 9 13 12 7 3 5 11 11 8 10 5 8 11 14 11 13 12 12 11 10 10 12 10 8 7 6 10 8 5 5 6 3 12 16 8 6 14 15 13 24 28
19 10 6 9 10 10 12 8 7 10 11 12 4 9 7 6 7 8 9 10 7 6 5 3 3 3 6 7 9 10 6 4 4 8 12 4 2 6 14 19 13 13 21 19
18 9 6 5 5 7 8 4 2 3 7 12 9 10 6 8 5 7 6 8 7 5 5 6 3 2 1 3 12 14 11 9 4 3 9 15 5 6 17 21 11 9 15 15
19 8 5 1 1 4 5 2 2 3 2 11 11 10 11 7 9 7 6 3 6 3 4 5 4 3 1 2 0 2 11 15 13 3 4 3 6 13 14 16 5 16 15 13
21 10 6 3 3 1 3 6 7 4 3 12 12 15 14 9 11 6 7 6 5 5 4 4 3 3 4 3 5 7 10 15 22 16 7 11 5 10 14 5 10 22 6 12
21 13 7 6 5 5 7 8 7 2 3 9 15 9 16 13 13 7 5 6 8 7 5 3 3 5 4 6 9 6 8 10 11 15 7 10 3 10 13 18 18 21 14 10
21 16 9 9 9 10 8 8 7 11 4 10 10 13 12 17 14 11 9 7 1 5 5 3 3 5 5 4 5 13 7 9 6 11 3 1 10 18 20 19 19 14 15 11
20 18 12 11 12 12 13 14 11 10 7 7 7 8 9 13 14 15 11 11 9 10 9 9 7 9 8 7 11 14 11 13 11 6 4 3 10 13 15 16 10 9 13 10
21 18 15 12 15 14 16 15 12 9 9 5 4 8 10 10 12 11 12 11 10 12 10 12 14 13 9 13 14 17 11 11 10 11 9 7 9 9 15 11 10 10 12 9
21 20 17 14 18 17 17 17 11 11 6 5 6 6 7 9 10 13 15 15 15 14 20 16 18 18 16 17 18 21 19 20 17 7 10 10 14 15 15 13 11 10 11 7
23 21 15 14 21 20 18 17 16 13 10 7 3 5 6 8 10 14 17 18 19 21 21 20 19 15 15 10 14 14 5 11 16 21 19 18 18 13 12 12 12 8 7 5
22 17 10 14 22 21 19 16 13 11 10 7 5 5 3 5 12 19 12 13 18 20 21 23 21 14 18 25 33 17 12 5 11 16 17 16 13 11 11 12 11 8 9 11
18 11 3 14 21 20 16 13 10 8 9 5 5 6 7 8 10 11 6 10 12 16 22 20 20 17 19 20 21 12 15 22 23 26 26 24 23 19 17 15 13 11 8 4
12 4 7 18 21 19 15 13 10 7 10 4 6 7 5 3 9 9 7 7 6 7 12 17 14 17 17 7 7 8 10 10 12 15 15 17 20 20 20 19 13 11 10 10
6 3 11 14 17 14 6 9 5 11 14 16 18 15 10 8 9 9 5 6 5 4 6 7 14 26 24 25 27 24 16 11 9 11 13 11 11 12 13 12 12 11 11 13
1 5 10 16 21 18 10 8 9 7 5 10 16 14 14 14 12 11 6 4 3 3 3 3 4 6 5 7 10 12 14 21 12 9 8 9 11 11 9 9 8 10 11 14
3 7 9 18 14 6 7 7 7 7 7 7 7 6 8 10 10 5 5 5 3 3 4 3 2 5 10 14 14 12 11 12 10 7 9 9 9 8 8 8 10 14 16 18
4 7 10 13 8 7 6 8 6 7 6 6 7 4 1 5 5 4 4 3 3 6 3 1 5 11 14 14 9 2 8 10 6 4 6 10 14 11 9 10 10 13 13 13
5 6 10 10 7 8 8 11 14 11 8 3 2 4 3 3 3 4 4 4 4 3 1 3 10 10 10 8 2 8 10 11 12 10 10 10 8 8 9 11 10 10 11 9
7 7 7 12 12 9 10 15 14 13 11 6 3 4 3 3 5 4 4 3 3 2 2 4 8 10 11 7 3 7 8 6 8 11 12 11 11 10 9 10 11 13 14 14
10 10 9 10 13 15 12 15 14 14 11 9 8 8 5 7 5 5 5 3 3 3 3 2 7 9 10 10 7 0 9 13 13 13 14 15 14 15 17 17 16 18 18 17
7 6 9 17 15 14 17 14 14 13 13 13 8 7 8 6 6 7 6 4 3 3 4 7 9 9 9 9 8 6 4 6 10 14 16 18 18 17 17 18 18 19 22 21

GFSNW_700_spd_051.txt.gz
Wind_Speed
19 14 18 25 29 26 12 12 13 10 7 9 3 3 7 8 29 15 17 7 14 31 18 18 14 19 2 18 25 24 13 9 8 18 4 4 18 21 16 5 3 8 4 14
17 13 18 23 25 22 14 20 13 8 6 2 5 2 5 8 18 13 13 10 14 22 20 16 11 13 7 18 18 25 18 6 5 4 7 13 16 19 18 22 18 19 3 12
14 13 15 19 22 20 15 12 10 8 6 3 7 6 9 11 21 15 13 16 19 26 16 10 16 19 14 19 18 12 11 8 6 7 5 9 13 18 22 23 13 19 29 39
13 11 12 14 16 17 14 11 11 7 7 2 7 8 11 21 22 23 23 29 24 16 12 13 18 16 23 22 18 14 14 8 11 14 15 16 15 19 19 28 33 25 39 38
15 10 10 9 10 9 5 7 5 4 7 4 3 6 17 18 17 17 22 17 11 20 13 9 16 16 21 15 21 19 17 6 8 12 4 11 16 15 17 22 26 35 37 40
18 10 8 6 7 8 3 4 6 7 11 9 11 14 17 17 18 16 15 17 13 12 12 10 7 4 8 6 9 16 12 8 4 4 2 7 9 4 11 11 17 23 25 24
21 9 6 5 3 5 6 5 10 7 9 8 10 9 9 7 9 14 12 12 10 8 10 9 7 7 5 4 5 4 6 7 2 6 5 2 8 4 4 11 13 11 16 20
25 11 6 5 1 3 6 4 4 4 8 8 10 7 8 6 10 8 4 5 6 4 6 9 6 4 4 6 11 9 7 5 2 3 6 13 3 2 9 14 12 13 19 13
24 14 6 8 4 1 4 6 5 5 5 9 10 10 7 8 4 4 4 3 6 4 5 4 5 4 3 4 4 10 14 11 8 0 2 3 6 6 12 13 3 22 20 9
24 19 8 8 9 4 5 6 7 3 1 10 12 14 12 9 7 4 5 5 3 3 5 2 3 3 5 4 5 12 11 11 16 12 5 11 4 3 11 7 10 21 20 18
23 21 11 7 11 8 8 9 9 3 8 12 14 15 14 10 11 7 2 4 4 5 3 3 3 4 4 4 6 5 8 9 9 11 6 9 2 3 11 18 18 20 17 17
23 20 16 8 12 12 11 11 8 5 1 11 17 12 15 14 11 13 7 5 2 3 4 4 3 5 4 4 4 7 7 8 3 10 3 3 6 11 14 16 17 13 11 15
23 22 17 10 13 15 14 12 13 8 10 8 10 12 10 12 17 16 11 9 8 7 7 7 5 8 9 6 7 13 12 11 11 8 4 3 5 10 9 15 13 11 10 15
23 23 19 14 14 19 19 19 14 13 9 8 8 10 10 9 12 14 14 13 11 10 9 10 10 12 12 13 14 16 13 11 13 18 9 12 9 9 12 15 15 9 10 12
26 24 22 16 15 22 22 21 16 13 10 6 8 7 8 9 10 11 13 15 14 14 15 15 16 19 18 19 22 20 13 19 19 20 10 8 10 13 17 13 11 9 9 10
28 26 21 14 16 24 24 21 16 13 12 4 6 5 8 9 10 11 10 13 16 18 18 20 20 17 17 11 12 10 4 8 10 19 23 20 19 16 11 8 9 6 5 8
28 23 15 10 18 26 25 21 18 14 9 6 4 3 5 6 7 10 14 16 14 18 20 23 21 18 16 22 27 15 7 8 9 12 16 20 18 13 11 13 12 10 7 8
24 16 8 7 20 24 21 15 12 13 8 7 4 3 5 7 9 10 13 8 12 17 21 21 21 17 18 18 17 11 11 17 23 26 25 21 19 21 22 19 16 14 11 8
17 9 3 15 21 21 15 13 11 12 8 4 6 5 3 3 5 10 8 7 8 8 11 14 13 16 12 6 7 9 10 10 10 12 15 16 15 15 15 14 13 14 10 7
10 3 10 16 21 17 15 13 11 11 13 14 14 15 11 10 10 12 12 6 5 5 6 6 10 16 15 18 20 23 23 24 16 13 11 12 11 11 11 11 9 9 6 3
4 4 9 15 20 14 10 6 10 9 6 9 11 9 10 14 13 12 7 5 4 4 4 5 4 1 2 6 10 15 17 15 18 21 12 10 9 8 8 7 9 8 8 7
1 6 12 21 16 5 6 8 7 7 7 6 5 6 7 8 10 7 6 6 4 4 4 4 2 3 8 13 13 12 12 12 11 13 12 8 7 8 12 11 10 9 10 11
3 9 17 14 6 7 7 9 7 6 6 6 7 4 3 4 6 6 5 4 4 6 3 3 2 8 12 13 10 2 5 8 8 4 7 9 9 5 3 7 11 10 13 19
3 8 9 10 7 8 7 12 12 10 9 4 3 5 3 3 4 4 4 5 5 3 0 2 6 9 10 7 4 5 8 12 11 9 10 14 11 8 6 7 12 13 14 14
5 6 7 12 11 11 11 15 16 14 13 7 5 4 5 4 5 4 4 4 3 3 4 4 5 8 10 9 5 5 6 11 9 10 8 9 8 4 6 7 7 11 11 10
6 9 8 9 11 15 14 13 15 14 12 13 10 8 5 8 5 5 6 3 4 4 4 1 5 7 8 8 8 3 5 8 8 9 11 13 11 11 11 13 16 18 16 14
6 6 10 14 14 11 11 16 14 15 15 14 9 7 8 6 5 6 6 5 6 7 4 2 3 5 7 7 8 7 5 4 7 11 13 15 15 15 15 15 16 14 14 16

GFSNW_700_spd_054.txt.gz
Wind_Speed
18 17 23 27 25 29 16 14 18 15 13 11 12 12 10 15 17 23 20 12 26 26 21 21 20 19 2 32 22 16 13 7 8 15 6 8 23 17 16 4 3 3 2 10
15 15 19 21 17 17 20 21 19 18 13 11 10 9 14 18 18 15 11 11 19 20 18 11 10 16 4 9 26 21 16 6 6 4 12 16 16 24 25 19 10 13 5 7
12 12 15 17 17 16 17 17 10 12 12 8 16 19 21 17 13 13 9 12 14 22 14 9 13 16 10 17 17 19 11 6 5 8 2 7 17 19 23 25 12 10 23 33
12 10 11 12 12 11 13 11 10 8 7 16 18 21 26 21 21 14 14 17 19 21 11 14 18 15 22 14 18 21 15 7 12 13 10 9 10 12 16 30 31 20 28 33
16 9 10 9 11 5 8 7 8 10 11 16 13 18 19 20 18 24 21 23 17 10 15 8 23 17 23 14 19 15 14 6 8 9 11 17 23 23 23 26 28 35 36 36
21 7 7 8 8 7 5 5 7 7 13 16 19 19 17 15 16 13 14 13 14 10 10 12 10 6 16 6 15 19 17 9 6 1 4 6 12 16 15 19 16 20 27 26
23 9 5 6 5 4 1 7 7 9 11 15 13 10 10 9 9 13 13 10 9 7 10 9 8 8 10 5 8 10 8 11 4 3 3 3 2 6 5 6 9 9 13 18
22 16 4 4 3 4 2 8 6 8 8 7 9 8 9 7 10 8 6 6 6 6 6 7 5 4 3 5 6 7 6 4 2 3 6 13 2 5 2 8 11 3 16 14
20 19 9 5 4 5 5 5 8 8 8 10 10 8 8 8 6 5 3 4 5 5 7 6 4 3 3 4 3 10 9 8 6 1 3 3 7 4 5 11 5 16 18 15
19 20 17 7 8 9 9 7 9 9 8 13 14 13 10 8 5 4 1 3 4 4 5 3 2 2 4 3 6 10 11 13 16 11 6 9 5 9 7 4 8 20 20 17
17 18 18 13 11 10 12 10 10 8 7 8 16 15 15 11 10 4 1 1 2 3 2 3 2 2 5 4 6 6 11 8 8 10 7 9 4 4 4 12 15 18 15 12
16 18 19 17 12 13 14 12 12 10 5 8 15 15 14 12 11 9 5 2 1 1 4 4 3 4 4 5 3 10 7 10 3 8 3 4 5 6 9 10 16 15 14 13
17 19 20 19 16 15 17 16 14 11 5 7 16 13 12 14 14 13 11 8 8 6 5 6 6 5 7 6 9 13 11 9 11 9 4 14 14 11 14 10 16 19 13 13
20 22 23 22 17 16 19 20 16 13 11 7 14 16 15 14 15 16 15 15 13 11 10 10 11 10 9 11 12 16 13 11 11 17 12 10 10 8 8 14 16 15 12 13
22 26 27 23 18 16 21 23 17 19 13 9 12 12 12 12 11 12 14 14 14 15 15 17 16 14 15 18 21 24 18 21 22 22 12 15 10 11 13 15 10 11 7 9
25 29 29 21 15 15 22 25 23 18 12 9 10 12 12 12 13 14 14 15 15 16 18 20 21 17 15 12 13 10 3 11 15 19 21 24 23 21 19 14 7 9 10 9
27 31 24 15 10 19 25 23 21 19 17 10 6 6 10 12 11 13 14 16 19 16 24 26 23 21 20 23 27 17 12 12 12 13 15 18 20 19 18 16 12 13 12 9
27 26 15 5 10 23 24 20 18 18 12 7 4 4 5 7 8 9 10 14 11 21 20 21 19 19 21 20 14 10 13 16 17 22 23 24 23 20 20 22 22 21 15 13
24 15 3 10 20 23 17 14 14 16 12 5 5 5 3 4 5 9 11 9 10 14 19 21 16 18 11 11 14 15 15 15 13 14 11 12 16 18 19 19 17 15 14 11
18 3 11 17 20 18 14 11 11 13 17 13 13 12 9 9 10 8 9 7 8 6 9 8 14 20 19 22 22 21 22 24 24 23 17 15 11 14 15 14 14 14 12 10
11 4 9 20 19 18 13 9 9 9 6 9 13 14 14 13 11 12 6 6 5 4 5 9 6 7 9 7 10 15 18 19 20 19 21 19 15 13 11 11 10 12 10 10
6 7 14 23 18 8 7 9 8 7 7 8 6 6 6 7 7 8 6 8 4 4 4 5 4 5 7 10 13 15 15 14 16 16 15 17 15 11 10 12 11 11 10 12
2 7 14 14 10 9 7 11 7 8 8 8 7 6 4 4 6 6 5 4 5 8 4 2 1 1 5 8 11 12 5 2 4 9 11 11 11 13 12 11 13 16 13 12
3 8 11 10 7 8 10 12 12 12 10 7 5 7 5 4 5 4 4 6 5 3 2 3 4 5 8 9 8 4 5 6 7 5 9 13 11 8 5 4 9 10 12 17
4 7 8 13 13 11 14 14 16 16 13 10 7 8 8 7 5 5 6 4 4 3 3 6 2 6 4 9 11 13 9 7 14 13 14 11 8 6 7 6 9 12 15 15
8 9 9 9 12 17 15 15 15 16 15 14 12 9 5 9 5 6 6 4 5 5 9 5 1 5 7 7 8 10 15 8 5 6 8 11 13 9 6 8 11 12 15 17
7 8 8 13 13 11 13 20 16 16 16 15 11 8 8 6 6 6 7 7 8 10 10 8 5 2 1 5 8 10 9 6 5 7 8 9 11 11 13 13 13 15 16 19

GFSNW_700_spd_057.txt.gz
Wind_Speed
21 15 18 19 18 21 21 14 20 22 17 20 23 27 21 23 28 23 23 20 30 29 26 22 23 23 5 27 17 17 11 8 12 13 6 13 18 16 14 4 4 4 2 5
20 12 14 14 16 16 15 14 19 21 21 19 25 22 22 19 15 15 16 19 21 21 18 14 18 20 3 26 25 13 12 7 8 5 8 12 15 22 18 15 4 6 4 3
18 12 11 12 12 12 13 13 10 15 21 24 25 21 17 16 14 14 13 19 14 19 11 7 22 17 10 18 26 14 9 6 3 5 1 5 14 21 24 24 9 8 24 17
18 11 11 11 10 7 6 9 9 14 15 23 23 22 17 17 17 15 16 16 17 16 8 10 14 18 12 13 19 22 11 3 8 8 6 6 6 11 17 27 30 16 21 26
20 10 9 10 9 4 3 7 8 12 11 17 19 22 19 20 17 18 19 22 15 11 7 5 16 14 20 9 18 20 14 5 5 6 10 16 19 16 15 15 20 29 27 30
20 11 7 8 7 5 1 5 8 9 16 14 14 17 12 13 16 16 17 15 9 7 9 11 8 5 15 4 13 17 11 5 3 1 2 5 12 13 19 23 23 19 26 18
19 17 6 7 5 4 2 2 4 6 10 10 11 9 10 8 11 14 9 9 6 12 12 12 10 9 12 1 9 11 6 8 6 1 3 2 1 5 4 3 3 10 9 13
15 18 11 7 5 4 4 6 4 4 6 7 7 7 6 6 7 6 4 2 3 6 9 9 7 6 6 3 5 8 10 6 2 2 5 12 3 6 3 3 6 5 11 12
13 15 17 8 7 6 5 6 9 6 7 4 5 8 8 8 4 3 3 4 4 4 5 3 3 3 3 4 5 9 9 7 5 2 3 3 6 8 2 7 4 13 15 16
12 13 15 15 9 10 9 9 9 9 10 9 11 9 9 9 6 3 1 2 4 3 4 3 2 3 3 4 6 8 10 10 13 9 6 10 6 9 6 2 4 11 13 13
12 13 15 15 15 12 13 13 12 11 11 10 16 16 13 10 9 4 1 1 1 2 2 2 1 1 5 3 5 4 7 6 6 7 7 7 3 6 2 4 10 13 11 13
11 14 16 17 17 16 16 16 15 15 13 10 15 18 17 15 11 8 5 2 1 0 1 2 2 3 3 5 3 9 7 9 3 7 2 2 4 2 7 10 11 14 16 10
13 14 16 19 21 21 17 19 18 17 14 9 12 18 19 16 12 11 10 7 6 4 3 4 5 6 7 7 9 13 11 11 13 9 3 5 10 11 10 13 12 17 13 12
16 18 19 20 22 24 20 19 20 16 10 8 13 17 17 16 18 16 14 12 11 8 9 8 8 9 9 10 11 13 11 15 14 20 15 11 9 6 10 8 14 12 12 9
18 20 22 25 26 22 19 20 22 20 15 6 12 17 17 14 12 13 14 15 14 14 15 14 14 15 15 16 20 22 14 19 26 28 18 18 13 12 11 13 14 10 9 10
19 21 25 29 22 18 15 18 23 21 17 7 7 12 16 15 14 14 14 15 15 17 19 18 20 19 20 13 13 9 6 8 12 18 19 20 19 21 19 20 18 14 11 10
20 23 27 23 16 10 13 20 23 21 15 8 5 6 14 15 14 14 14 16 18 19 20 24 25 24 22 25 29 19 18 22 17 18 17 13 14 16 18 19 19 18 16 13
19 24 22 15 7 8 19 19 15 18 15 11 4 4 7 10 11 12 12 14 17 20 21 24 20 18 20 21 22 19 18 20 22 19 20 21 20 20 20 20 21 21 22 21
18 19 12 5 8 20 17 8 14 19 14 7 6 7 5 6 7 7 9 12 14 15 20 24 21 22 16 22 16 19 17 17 18 16 18 14 15 17 18 20 21 21 22 21
15 9 5 10 17 14 12 8 12 17 18 15 11 8 6 7 7 8 7 9 7 8 11 10 16 23 20 18 20 22 20 18 18 20 19 20 21 18 14 15 17 17 16 15
12 2 5 15 13 15 7 6 10 10 7 12 17 16 16 14 14 13 8 5 5 5 6 9 6 7 13 14 14 15 14 16 21 25 26 25 25 23 18 15 16 15 14 15
8 4 8 20 10 6 6 7 8 7 9 7 7 7 7 9 9 8 5 5 5 5 4 5 4 9 11 12 13 15 17 20 18 20 21 21 20 17 14 16 14 13 13 16
5 6 13 12 10 9 7 10 8 7 7 5 6 7 6 6 8 7 5 4 4 7 4 3 5 6 4 6 10 13 16 12 9 8 9 12 13 16 16 16 18 20 18 15
4 6 13 10 7 8 9 12 12 10 8 5 6 9 7 7 7 6 4 6 5 4 3 4 4 2 1 6 7 8 9 10 11 9 7 9 12 13 14 15 15 17 17 16
6 6 8 13 13 13 13 12 15 14 12 11 8 8 10 8 7 6 6 4 4 5 5 7 4 2 4 4 5 8 14 5 8 9 11 13 13 11 4 2 9 12 9 10
7 8 8 7 9 16 16 15 14 15 15 14 12 8 6 11 6 6 7 4 6 5 7 10 6 2 2 5 5 9 13 15 9 4 5 4 7 9 9 5 5 9 12 14
9 8 8 9 10 13 13 20 18 16 17 17 12 8 10 6 6 8 8 9 11 8 9 11 9 6 3 1 4 7 10 11 11 11 9 7 5 6 9 10 12 13 13 16

GFSNW_700_spd_060.txt.gz
Wind_Speed
29 19 17 18 16 14 14 21 23 21 19 26 28 30 28 27 25 20 19 21 30 21 21 17 8 11 5 17 13 9 10 6 8 10 6 12 14 14 11 4 5 5 2 2
26 18 16 16 14 11 14 14 19 20 17 20 19 18 23 21 17 18 22 19 19 21 17 10 11 15 1 21 14 13 11 6 8 4 8 11 17 19 17 14 6 7 3 1
25 19 16 14 12 8 11 13 9 18 20 16 17 17 16 17 17 14 16 17 13 17 15 6 21 14 3 23 18 11 8 5 2 6 2 5 12 18 21 19 8 6 14 4
23 19 14 12 10 7 11 11 12 12 13 15 17 14 10 9 16 18 15 15 14 10 5 10 17 14 14 15 21 17 10 3 6 7 7 5 4 7 18 25 24 14 10 14
20 20 12 11 10 4 7 9 8 13 17 20 20 19 16 11 9 9 12 15 12 7 1 2 10 14 12 8 19 22 16 4 5 6 8 13 15 13 11 13 18 25 23 16
18 20 12 10 8 5 3 6 7 8 13 12 13 15 14 13 13 15 13 10 7 6 6 9 10 5 9 2 12 20 14 11 4 2 3 5 10 6 15 19 19 15 16 9
15 17 17 9 7 5 1 2 4 7 8 8 11 11 12 13 11 10 12 11 12 14 13 14 11 9 6 4 8 11 8 6 5 3 3 2 2 5 2 2 3 6 5 5
14 15 16 12 7 6 4 4 4 2 4 2 5 7 9 9 7 6 6 7 7 9 11 12 8 6 4 4 9 12 10 6 2 2 5 10 0 5 4 2 1 3 5 9
14 15 14 15 11 7 7 6 8 7 6 4 4 4 6 6 5 3 3 4 5 7 6 3 3 3 4 4 5 6 7 5 3 1 2 2 3 6 2 3 6 8 8 11
14 16 16 13 13 10 8 9 10 12 12 10 9 10 7 6 5 3 2 3 4 4 4 3 3 3 4 4 4 6 8 7 8 6 4 8 7 9 3 1 0 9 7 10
14 16 17 16 13 13 12 12 14 15 15 13 14 15 12 10 9 7 3 4 3 3 2 2 2 2 4 3 5 3 5 6 5 6 5 6 5 8 5 1 7 9 12 14
15 17 18 19 18 16 15 14 16 19 17 12 16 18 19 16 13 9 7 5 2 3 2 2 2 2 2 3 3 6 5 9 3 8 1 2 3 4 3 5 11 12 14 13
15 18 19 20 20 22 23 19 18 19 21 18 16 15 22 21 16 13 10 8 5 3 4 3 4 5 6 5 7 10 9 10 12 8 2 7 6 11 7 6 9 12 12 12
15 19 20 21 23 24 27 27 20 18 18 18 13 14 21 20 19 15 13 12 10 9 8 6 6 6 7 8 10 12 10 12 12 17 15 15 12 11 6 4 6 11 10 11
18 19 20 23 25 29 32 26 20 19 20 7 13 14 19 19 19 18 17 14 15 14 14 12 12 11 12 16 20 20 11 16 22 27 22 22 17 17 12 9 12 12 11 12
17 20 21 24 30 32 27 18 18 20 23 16 7 12 18 18 16 14 14 14 15 16 16 14 16 15 12 13 18 14 6 10 12 14 14 17 19 20 19 19 17 17 14 13
17 20 22 27 31 25 14 9 13 21 24 15 7 6 14 18 16 15 15 15 16 17 17 20 19 20 18 27 33 24 19 20 21 22 19 14 16 16 17 16 16 16 15 15
16 19 23 26 21 11 7 12 12 18 19 11 4 4 7 15 16 14 14 13 14 18 20 23 22 18 20 21 25 20 19 19 24 25 23 20 20 21 20 19 18 17 18 19
14 17 19 13 1 11 13 5 7 14 13 6 6 6 5 8 10 10 9 11 13 16 19 21 15 20 15 18 19 20 20 19 20 18 19 18 19 19 16 19 20 18 17 18
11 15 7 6 15 11 6 5 8 16 13 10 8 10 7 10 10 8 6 9 9 7 11 12 18 24 29 25 22 21 18 19 19 19 18 23 24 24 22 21 18 15 14 15
10 10 5 12 11 10 4 3 6 8 6 10 17 13 12 11 10 9 7 5 5 5 5 8 6 10 14 14 18 20 17 13 13 16 19 25 28 28 25 26 23 19 17 16
8 7 7 16 9 6 4 4 6 6 7 5 5 8 12 14 13 9 7 8 5 5 5 5 5 12 13 12 14 14 16 18 19 21 18 21 24 26 26 24 21 18 17 15
9 7 9 11 9 9 7 8 6 6 6 6 9 9 7 8 8 6 5 4 6 4 5 4 6 7 7 9 7 9 13 15 15 13 13 12 13 16 18 18 19 18 16 17
8 5 9 9 7 8 10 11 10 11 8 7 7 9 7 9 6 6 4 5 4 4 5 5 6 5 5 3 5 6 10 9 11 12 13 11 8 9 13 17 19 21 20 19
9 7 7 12 12 11 10 13 11 11 13 9 7 8 10 8 6 5 6 4 5 6 6 6 5 3 2 2 4 9 10 8 6 9 10 13 12 10 10 8 8 9 10 15
15 9 8 7 10 14 18 13 13 13 12 13 12 9 6 11 6 7 7 5 6 4 4 7 8 4 2 1 3 6 10 13 12 9 7 2 6 9 8 3 3 4 7 8
10 11 11 7 8 10 12 13 16 17 18 17 8 8 9 7 8 10 10 8 10 9 6 6 10 8 6 4 2 4 8 11 12 13 16 16 15 9 3 7 3 7 5 8

GFSNW_700_spd_063.txt.gz
Wind_Speed
24 24 15 16 15 13 16 18 21 15 17 21 31 26 20 17 14 15 17 16 21 25 16 18 8 11 7 11 9 6 5 7 9 10 7 10 11 10 10 4 5 4 1 1
22 24 15 15 15 12 12 10 17 14 9 15 20 19 18 15 11 9 13 11 12 19 12 7 12 9 7 14 11 7 7 5 8 2 6 12 13 17 16 11 3 5 3 1
20 24 15 14 14 11 12 10 8 13 13 10 11 15 14 14 14 13 11 12 8 14 12 4 11 11 5 14 10 9 10 7 3 4 1 3 10 16 19 18 8 5 10 2
20 22 16 12 12 10 10 11 12 14 13 14 13 12 8 9 14 14 10 10 10 8 5 5 13 11 8 18 16 12 7 3 2 3 4 2 2 7 15 22 24 10 6 9
18 21 19 11 10 8 7 8 10 16 19 18 15 16 13 6 9 4 8 11 8 4 3 2 11 14 11 6 19 15 12 3 1 5 7 9 11 11 9 13 21 26 23 13
17 19 21 13 8 7 3 6 4 6 9 10 12 14 11 11 8 8 7 6 1 2 2 5 11 7 6 5 8 21 15 10 5 1 3 5 9 9 16 18 16 11 15 1
16 17 18 19 10 7 5 0 1 4 6 5 9 12 12 11 11 12 8 6 6 9 13 14 9 9 5 7 7 9 8 9 5 2 2 2 2 4 3 2 4 8 6 3
14 15 16 17 18 9 6 5 4 5 5 3 5 7 7 7 7 7 9 10 9 10 11 9 6 4 2 4 6 8 7 6 2 1 4 6 4 7 8 6 5 6 3 3
13 13 13 14 15 16 9 7 9 9 7 6 4 6 6 5 5 4 5 5 6 8 4 2 3 3 3 4 4 6 9 7 5 3 2 2 6 6 6 3 8 5 2 5
15 14 13 13 14 14 14 10 10 12 13 11 10 10 9 8 6 5 4 6 6 6 5 3 3 3 5 4 5 6 8 8 10 6 4 5 8 9 3 2 4 5 3 7
18 17 14 13 13 13 15 15 13 14 15 13 16 16 14 12 10 7 5 6 6 6 6 4 3 3 5 5 6 4 6 6 4 6 5 4 7 8 6 5 2 4 7 11
19 19 17 15 15 16 15 15 17 17 16 15 15 20 21 18 15 12 10 7 6 7 4 4 3 3 3 5 3 10 5 9 4 7 1 4 2 8 10 6 2 5 9 10
19 21 22 19 17 18 19 19 20 21 21 17 21 19 24 24 17 16 12 11 8 5 6 6 5 6 7 6 9 9 8 10 10 6 1 11 9 10 8 5 2 3 8 10
21 20 21 20 21 22 22 22 26 26 21 22 18 18 25 22 25 19 17 16 13 11 9 8 7 6 6 7 9 10 10 11 10 15 13 10 11 10 9 11 9 5 4 8
23 21 20 20 22 25 27 27 29 27 20 18 13 22 17 20 22 20 17 16 16 14 13 12 11 11 11 15 17 18 15 17 18 21 17 20 18 17 16 17 8 10 11 10
21 20 19 20 23 27 30 31 26 19 19 20 13 9 17 18 21 20 19 19 18 17 17 16 17 16 14 13 15 11 9 11 13 10 11 11 9 13 19 18 16 16 15 14
18 18 18 20 25 30 26 18 13 12 15 16 13 7 12 19 20 19 19 16 16 16 17 20 19 18 17 26 32 23 21 19 21 21 18 20 16 15 14 14 14 15 17 17
16 16 17 20 25 22 12 8 10 9 15 16 5 5 13 21 18 17 15 15 14 16 18 20 17 18 20 23 24 22 11 14 19 24 23 22 21 20 18 19 18 18 18 18
15 13 15 16 8 6 7 4 2 4 12 5 5 3 9 15 16 15 11 12 10 14 18 19 15 20 18 19 20 16 15 16 21 20 19 16 17 18 19 18 16 17 20 19
13 12 10 2 7 4 5 3 2 7 14 8 6 9 4 11 15 10 8 7 9 7 12 11 18 28 29 28 25 23 23 20 20 16 16 20 21 23 24 21 22 18 16 14
12 11 7 7 11 7 2 1 4 5 5 7 13 11 6 9 7 9 6 5 5 5 6 8 7 14 15 16 16 17 17 21 17 14 13 17 21 25 27 26 26 23 20 17
11 9 6 11 12 6 4 4 5 6 6 5 3 7 12 12 9 6 6 8 6 6 6 6 6 12 9 9 11 12 12 13 16 18 19 18 17 19 22 24 25 25 24 22
11 9 5 7 11 10 7 9 6 6 4 6 6 5 5 9 8 6 6 5 6 4 5 5 8 8 8 8 8 8 10 15 19 19 14 14 14 13 13 16 20 21 20 20
10 8 8 8 7 8 11 11 10 9 7 9 7 8 8 6 6 8 4 5 4 4 5 6 7 5 4 6 6 7 9 13 12 10 11 12 13 11 8 10 12 14 18 21
10 6 6 11 11 10 8 11 13 11 13 10 9 9 10 9 7 5 5 4 5 5 4 6 5 4 3 2 2 6 8 13 8 5 8 12 9 10 11 9 11 13 14 16
12 10 8 6 8 13 13 12 13 13 11 10 12 8 5 10 6 7 7 5 6 4 4 4 6 6 4 2 1 2 5 9 13 14 9 7 3 4 8 6 3 4 7 7
10 10 17 14 10 10 11 12 15 16 14 14 9 8 9 6 7 9 9 8 9 8 10 10 8 11 8 7 5 4 5 7 9 11 13 13 13 12 9 1 2 2 3 2

GFSNW_700_spd_066.txt.gz
Wind_Speed
22 25 16 14 11 14 16 14 14 10 16 16 20 19 15 13 14 16 15 14 20 18 17 12 7 10 9 15 10 8 5 8 10 8 6 10 13 11 11 4 4 3 2 2
21 25 18 14 12 10 14 14 11 7 5 12 16 14 13 13 7 8 11 10 14 19 16 6 11 9 13 14 11 7 7 6 7 3 7 13 15 17 17 10 3 5 3 4
20 24 21 13 13 9 13 12 8 9 8 8 8 11 11 11 10 9 9 11 11 11 6 6 10 11 10 13 11 6 7 8 5 4 2 5 12 18 20 17 7 5 6 4
20 22 24 14 12 9 10 11 12 11 11 11 8 7 7 4 8 9 5 7 7 6 4 2 10 10 7 11 12 11 8 6 4 3 2 2 4 9 18 24 21 7 5 9
17 19 20 18 10 9 8 6 6 10 13 12 10 8 7 6 5 2 7 10 8 4 4 3 11 8 6 7 14 12 8 4 2 2 3 7 9 9 9 14 20 21 17 11
18 17 18 18 12 8 5 4 2 2 4 4 6 10 10 8 5 5 5 4 1 1 1 3 11 6 7 7 7 17 11 7 2 2 3 5 7 7 15 14 11 14 14 8
19 18 17 16 16 8 5 5 3 2 1 1 5 8 8 9 8 5 4 3 3 7 9 10 9 6 2 5 6 8 7 10 5 2 1 2 2 3 3 5 10 14 11 8
21 18 16 15 14 13 7 5 7 7 6 4 4 6 6 5 5 6 8 8 9 9 8 7 4 2 3 3 5 7 6 6 2 1 3 5 2 3 6 7 5 8 10 8
23 20 16 15 14 12 11 8 7 9 9 9 6 8 7 6 5 5 7 6 6 10 4 3 3 3 3 3 3 7 8 7 4 2 2 2 4 7 7 6 8 9 7 6
24 21 19 16 14 13 11 10 9 8 12 15 12 11 11 10 9 7 7 8 8 8 5 3 3 3 4 3 4 5 7 6 6 5 4 4 11 10 7 3 8 7 6 4
26 21 18 16 16 15 13 13 12 10 8 13 16 18 16 14 13 11 8 8 9 8 8 4 4 4 6 5 7 5 7 6 5 6 5 4 11 13 8 7 4 4 3 5
29 26 22 21 22 18 17 15 17 17 16 11 14 20 23 20 19 16 13 10 8 9 8 6 4 4 4 6 3 11 6 9 4 7 4 5 10 11 12 13 5 3 3 4
29 28 25 23 21 20 19 18 19 21 23 20 17 17 23 27 23 20 18 15 11 10 10 7 6 7 8 6 9 9 10 10 10 6 8 11 12 12 8 11 10 7 4 3
28 29 27 25 23 22 21 20 22 23 27 29 24 18 23 28 28 25 19 16 17 12 11 11 10 8 7 10 11 11 13 12 11 16 13 11 12 13 11 10 12 13 9 5
26 27 25 24 23 23 24 24 26 27 24 28 25 23 19 25 28 26 23 21 19 16 14 12 12 13 12 16 17 18 15 18 19 14 13 17 17 15 16 17 15 21 13 11
29 24 22 22 23 24 25 28 27 24 22 23 17 14 17 22 23 25 25 22 20 21 20 18 19 16 16 12 15 12 9 8 10 12 11 12 12 13 14 20 23 17 16 15
33 21 20 20 21 25 27 26 22 16 12 11 6 9 10 18 20 23 25 25 24 20 21 22 21 18 19 27 32 22 20 22 22 22 19 18 18 18 16 15 16 16 17 17
29 17 18 17 20 24 21 11 6 8 4 7 3 4 9 16 23 23 26 24 22 19 22 22 21 22 24 25 25 21 20 18 22 20 19 22 24 23 22 20 19 17 18 19
26 14 15 14 15 5 1 3 4 2 4 4 6 6 3 21 17 26 23 21 18 17 19 22 17 22 20 16 18 17 16 15 17 16 19 19 18 21 20 18 20 20 20 21
20 12 11 10 7 6 1 2 3 4 10 14 8 6 7 19 16 26 13 17 15 7 13 14 20 31 30 28 27 25 21 21 22 22 20 17 17 21 21 21 22 23 22 19
15 11 10 9 10 7 2 3 4 5 5 7 10 12 8 9 16 20 14 7 6 6 8 8 7 15 12 12 16 19 20 20 20 20 18 17 17 20 24 26 25 29 27 25
12 10 7 7 12 8 6 5 5 7 5 5 5 6 8 5 6 5 6 5 5 5 6 6 6 9 5 6 6 9 11 13 13 13 16 19 21 19 20 21 25 27 26 27
12 9 6 5 9 11 8 8 7 5 5 4 6 5 3 7 7 5 5 5 6 4 6 6 8 8 7 3 4 5 6 9 14 17 19 18 13 14 16 16 17 21 24 26
13 8 8 9 7 8 12 13 14 11 7 5 6 6 5 5 7 5 3 5 4 4 5 5 10 6 2 3 3 3 4 9 9 7 6 7 11 12 13 11 10 13 16 19
9 8 7 12 12 11 8 12 13 11 10 10 8 7 7 5 5 4 4 4 4 5 4 4 5 2 3 1 4 3 4 9 11 10 7 7 10 11 11 11 9 9 11 14
8 8 8 6 7 11 13 11 13 15 13 11 9 10 5 9 5 6 7 4 5 4 3 4 1 3 4 4 3 2 1 3 6 8 10 11 7 2 4 8 9 9 11 13
9 9 14 17 12 8 8 15 16 14 13 12 8 7 8 6 7 8 8 7 8 7 11 12 10 10 10 9 8 7 7 7 9 11 11 12 12 8 7 5 5 4 4 3

GFSNW_700_spd_069.txt.gz
Wind_Speed
23 26 22 16 14 13 18 17 11 4 14 12 18 16 14 14 13 13 15 12 10 4 8 9 7 6 5 11 15 5 5 6 7 4 8 13 10 6 8 4 3 2 3 3
22 24 26 16 17 11 16 15 11 7 7 7 14 12 12 14 8 7 6 4 4 7 4 3 6 5 15 11 9 4 4 4 7 2 4 11 14 15 10 10 3 5 2 5
22 23 23 19 16 12 13 12 10 5 3 3 5 7 8 7 8 8 6 9 9 4 4 3 6 8 11 11 9 5 5 4 4 1 1 6 13 17 18 16 4 1 4 6
23 21 23 22 15 13 10 9 10 8 6 6 5 4 4 3 4 5 3 3 4 2 1 2 4 7 6 7 10 7 5 4 5 4 2 2 4 10 18 22 17 7 3 4
27 22 20 21 18 12 8 6 5 6 6 7 5 2 4 4 2 1 2 5 4 1 2 5 4 7 5 2 10 9 8 5 4 4 5 7 9 8 12 17 21 18 9 11
30 26 20 18 18 13 9 6 4 7 6 7 6 3 4 3 2 1 5 4 2 4 4 4 9 10 7 6 6 10 6 4 2 2 3 4 9 14 16 15 15 18 15 14
32 30 26 18 18 16 12 9 7 6 8 7 4 0 2 2 2 3 3 4 3 3 4 6 6 3 3 7 9 10 7 6 3 3 2 3 3 3 4 12 11 14 13 12
33 32 29 21 16 17 14 11 10 10 11 10 9 6 4 2 2 1 2 3 5 8 6 5 2 2 0 1 4 4 6 6 3 3 6 7 4 3 6 7 2 12 14 12
37 33 28 26 18 15 16 15 11 11 13 14 13 11 11 9 7 4 5 5 5 6 3 2 3 4 3 3 2 6 6 7 5 3 3 2 2 5 7 8 4 9 13 12
39 37 32 26 24 17 15 17 16 13 13 14 17 15 15 14 12 10 9 9 8 9 3 3 4 3 4 3 4 5 7 6 8 6 4 5 8 8 7 2 5 11 11 10
37 35 31 29 24 22 19 19 19 20 18 13 16 19 20 18 17 14 12 9 11 10 8 4 4 4 5 4 5 4 7 5 5 7 5 5 7 11 5 5 6 10 10 8
36 37 32 29 26 23 22 19 20 22 24 17 19 18 22 24 23 21 18 15 8 13 8 7 6 4 4 5 3 10 5 7 4 7 4 9 8 13 15 13 8 8 6 5
34 39 33 30 28 23 24 22 23 26 28 23 23 21 22 26 29 25 23 18 16 14 14 11 9 6 7 6 9 8 9 12 8 7 6 9 9 11 12 13 12 11 8 7
34 34 30 32 31 25 22 22 21 23 27 31 25 26 25 23 27 30 25 22 20 17 13 14 13 10 9 7 11 10 10 10 9 12 12 9 13 16 15 12 11 14 15 12
28 32 28 30 32 26 22 22 23 25 24 31 35 31 27 24 23 29 28 27 21 20 15 16 15 17 15 17 17 19 18 15 12 7 11 9 10 17 15 16 14 16 17 16
31 31 30 33 31 26 23 25 22 20 25 31 35 20 16 23 25 28 29 28 25 25 17 19 20 18 13 10 10 14 9 10 12 15 16 15 16 15 19 21 21 22 21 18
34 34 30 30 30 24 19 23 27 23 19 19 13 8 12 15 19 24 26 28 29 24 24 25 23 21 19 26 25 17 16 17 19 21 21 20 21 22 16 16 17 16 17 19
36 28 30 31 28 19 18 16 13 10 11 8 6 5 6 9 17 18 24 28 28 27 27 26 26 23 24 23 24 20 19 20 20 21 23 24 26 25 26 25 23 21 21 22
27 28 32 33 22 13 8 4 5 3 4 3 6 8 5 11 14 24 19 31 30 29 27 29 19 24 21 17 20 20 15 14 18 18 16 18 19 20 22 21 22 23 24 22
32 32 29 20 11 10 6 4 6 6 9 13 10 8 11 7 14 20 11 20 14 7 19 17 23 33 32 34 31 31 27 25 23 22 21 23 23 22 19 23 24 22 23 25
28 24 20 12 5 7 5 4 5 5 5 7 7 10 11 8 14 13 22 7 10 7 9 10 7 20 19 13 18 23 27 27 26 25 24 25 25 23 22 21 24 25 25 28
15 12 11 8 6 7 7 6 6 7 4 6 5 7 8 4 5 6 18 5 6 4 7 6 6 14 8 9 9 10 12 14 15 16 15 16 18 20 21 23 23 24 26 28
12 12 11 5 7 10 8 6 6 5 5 6 6 9 5 8 4 3 6 6 5 4 6 6 9 8 8 7 4 6 6 7 10 14 17 19 21 23 21 17 19 21 22 23
13 10 8 7 7 8 11 13 10 13 10 7 9 5 2 4 6 4 2 4 4 4 4 5 10 7 4 3 3 4 3 2 3 4 5 6 8 10 13 14 16 17 16 16
10 7 6 11 13 12 10 11 14 15 12 11 10 9 6 4 4 4 4 3 3 5 4 4 8 2 2 2 4 6 2 3 6 8 8 7 6 8 11 14 15 14 11 11
13 9 8 7 8 11 14 10 11 12 12 12 10 7 4 6 4 4 6 4 4 2 1 6 6 3 3 2 3 3 2 3 5 6 8 8 9 9 9 8 11 12 12 13
8 8 13 16 14 10 8 10 16 14 13 12 10 6 7 5 5 6 6 4 3 4 7 7 4 5 8 9 8 8 8 9 10 11 13 14 14 16 15 13 7 4 5 8

GFSNW_700_spd_072.txt.gz
Wind_Speed
28 27 28 28 21 17 18 18 12 10 11 13 16 13 15 10 10 11 10 7 6 10 8 12 8 6 8 16 14 4 5 9 8 5 8 13 9 7 6 2 2 1 2 2
31 28 27 28 26 20 16 17 12 9 9 9 12 11 10 11 9 8 6 2 5 7 8 5 6 6 14 12 11 5 5 6 7 3 4 10 13 13 12 13 5 4 1 4
36 35 29 27 26 21 15 15 12 12 11 9 8 9 12 11 8 8 5 5 7 6 8 6 4 6 8 5 3 5 5 4 3 4 4 4 9 15 16 14 6 1 4 13
37 38 35 27 24 23 17 14 9 11 13 10 10 7 6 7 6 4 5 5 2 2 3 6 2 3 4 4 4 3 3 2 4 3 1 3 5 11 18 20 15 5 6 4
37 38 39 33 24 23 20 14 13 11 10 11 11 8 6 6 5 4 5 2 4 2 3 3 2 2 2 2 3 6 4 2 2 3 5 6 8 8 12 17 18 18 8 12
39 40 39 38 32 23 20 19 15 13 11 10 10 8 4 6 8 5 6 4 2 7 5 4 7 9 8 5 3 5 4 3 0 1 4 5 9 13 16 15 16 21 24 16
39 40 42 39 36 33 23 19 18 14 14 12 9 8 5 5 6 7 6 6 5 6 1 2 2 2 4 6 7 8 6 5 3 2 4 2 2 3 4 14 10 12 19 11
40 41 42 39 34 32 27 21 20 19 17 16 13 11 11 7 6 9 6 6 6 3 3 4 2 1 2 3 2 5 10 7 3 3 5 8 8 4 5 7 5 12 14 20
39 38 39 37 39 33 32 25 20 21 19 17 16 15 14 13 9 7 8 3 2 4 2 2 3 3 3 2 2 4 8 12 8 4 2 2 3 2 5 7 2 3 15 15
40 34 34 35 37 37 28 27 23 22 24 19 14 16 17 15 11 11 9 10 7 7 4 4 4 3 5 3 4 4 6 6 9 8 4 4 7 5 8 5 6 8 11 11
40 27 29 31 30 30 29 25 22 24 25 23 24 20 15 18 19 14 13 8 9 10 10 5 4 5 4 5 5 5 8 6 6 8 5 6 4 9 7 6 5 10 10 10
45 32 32 36 36 29 27 25 25 25 26 22 22 21 18 19 19 23 21 16 8 11 8 7 6 5 5 4 4 9 7 10 6 7 6 7 5 10 14 10 4 6 11 9
43 38 35 37 30 26 26 26 27 27 29 24 20 21 25 22 22 24 26 21 20 15 15 13 9 8 8 6 8 10 7 12 9 8 7 11 6 12 11 10 11 10 10 9
43 39 33 36 29 27 29 28 24 25 28 32 16 16 21 20 22 25 24 24 20 22 17 15 15 12 11 11 13 10 12 10 6 13 9 9 10 13 13 13 12 11 13 14
38 32 29 37 32 33 36 31 25 24 23 30 31 21 21 25 23 20 20 25 27 18 18 19 18 17 18 21 20 20 18 18 14 5 7 9 11 13 12 14 15 14 13 16
32 29 29 26 31 33 35 30 24 16 22 30 36 19 17 19 22 27 27 24 27 28 20 22 19 19 16 10 11 12 11 11 15 19 20 17 19 21 17 15 19 20 19 19
23 30 24 31 31 30 31 27 22 24 22 20 19 9 8 5 15 17 19 23 31 27 25 27 19 18 16 24 29 22 17 11 12 15 15 16 17 23 20 20 17 15 16 16
20 18 22 21 23 29 31 21 19 15 10 17 8 5 3 2 4 9 13 17 20 27 29 26 26 25 26 23 23 15 13 18 22 17 19 23 24 26 25 26 25 22 21 20
17 17 19 23 30 28 20 15 11 10 9 7 6 6 6 8 7 12 13 18 22 27 24 28 23 26 19 21 24 25 24 15 14 15 17 20 20 19 18 19 22 24 25 24
12 17 25 29 25 17 10 8 9 10 10 14 9 7 12 11 6 7 15 14 17 9 27 11 25 36 32 29 29 31 31 26 26 26 24 22 21 21 23 22 21 23 23 23
11 19 22 18 13 3 3 4 5 5 6 6 6 6 10 9 5 7 9 5 10 5 6 11 14 29 27 21 19 23 27 29 32 31 30 27 27 25 25 26 22 22 23 24
14 15 15 8 6 6 5 5 5 6 4 8 9 11 14 11 3 6 7 6 6 4 7 8 7 19 14 10 12 14 13 13 15 17 19 20 19 19 18 16 18 21 22 23
13 13 6 4 4 7 6 4 6 4 4 8 11 14 11 4 1 2 5 5 5 4 5 5 7 7 11 11 11 8 7 7 7 11 14 15 17 19 20 20 21 21 20 21
12 8 6 6 6 6 9 14 11 5 10 13 13 11 6 4 2 3 2 3 3 3 3 4 7 9 5 7 6 5 5 2 1 3 5 6 8 10 11 12 13 14 17 18
10 6 6 8 9 9 10 10 13 18 16 14 11 11 6 5 3 1 3 2 2 3 3 6 8 6 2 6 1 5 5 3 4 5 7 9 9 9 8 8 11 14 15 15
9 9 7 4 5 6 9 13 12 11 10 9 9 5 4 4 3 3 4 3 2 0 0 6 8 5 4 2 1 2 3 2 2 4 7 10 12 13 12 11 12 11 11 13
8 9 10 12 12 12 11 10 9 12 12 9 7 3 5 3 3 3 3 4 2 3 2 4 4 7 9 6 5 6 7 8 10 10 12 13 13 13 14 15 16 16 10 7

GFSNW_700_spd_075.txt.gz
Wind_Speed
31 31 33 29 27 25 18 18 16 15 14 12 15 12 14 13 10 9 9 10 12 13 13 6 5 6 8 18 13 8 7 13 11 10 8 13 14 18 20 8 7 6 5 2
36 34 33 34 31 28 24 18 15 16 17 12 11 8 11 11 11 7 6 5 8 11 9 4 5 9 14 12 10 5 7 10 9 4 3 12 12 15 17 10 8 9 5 2
36 38 39 36 35 32 28 22 16 18 17 16 15 13 10 8 7 6 5 3 3 3 9 6 5 10 7 6 7 7 7 8 5 9 6 11 19 21 20 17 11 7 5 10
35 38 41 38 38 36 33 28 21 18 19 16 14 10 7 7 7 3 4 1 3 2 1 3 4 4 6 4 4 4 4 8 7 5 4 5 7 15 24 23 14 7 7 13
33 36 37 42 42 40 35 30 27 23 20 19 16 12 9 6 7 4 4 3 2 3 4 3 2 1 3 3 3 6 6 4 6 4 4 5 7 9 17 20 21 16 11 11
29 32 36 36 38 42 41 34 38 29 22 18 19 13 9 8 7 1 9 6 6 6 6 6 6 6 6 4 3 5 6 6 5 3 1 4 9 14 17 17 19 23 19 14
31 33 34 35 38 39 42 32 26 23 22 18 18 20 15 11 7 7 8 7 7 8 1 1 2 2 7 8 8 6 8 6 4 1 2 2 1 3 4 14 11 17 24 24
32 35 39 40 30 28 29 31 29 23 23 21 16 16 17 12 8 9 7 8 3 3 4 2 1 2 2 6 6 12 10 8 2 3 5 7 10 6 7 9 9 14 15 20
37 39 41 42 37 32 29 29 29 26 25 22 19 17 16 17 15 12 7 5 2 4 5 4 4 4 3 2 3 5 12 12 9 5 2 3 1 2 4 7 7 9 15 22
40 40 42 39 37 35 35 35 30 28 28 19 16 14 15 14 15 11 11 9 9 7 7 4 4 4 4 3 4 4 5 10 11 7 4 5 6 4 9 5 4 4 11 17
43 44 46 47 40 39 35 33 31 29 31 26 21 21 19 15 13 15 11 7 10 10 9 5 5 6 5 5 5 4 7 6 6 9 6 7 6 8 9 5 4 6 8 9
46 44 45 44 40 38 30 26 29 34 33 27 26 24 22 20 17 17 17 15 8 9 7 8 5 5 4 5 4 7 7 10 6 8 5 4 5 5 12 7 3 3 8 9
49 51 43 43 33 31 28 27 32 35 38 28 6 5 12 24 24 20 21 20 21 15 13 13 7 7 7 7 9 11 9 9 13 9 9 11 12 7 8 9 9 9 8 9
49 45 33 37 26 31 28 29 28 32 32 34 5 7 13 16 21 21 16 19 21 24 21 15 15 14 10 11 12 13 10 12 8 15 12 6 7 10 8 8 9 9 11 12
47 43 34 30 24 28 23 30 30 27 22 30 33 22 11 21 26 26 21 17 23 20 19 21 17 17 16 18 19 22 18 19 16 8 7 10 10 9 10 10 11 13 13 13
37 29 28 23 23 26 25 27 27 27 24 32 34 18 7 10 16 24 24 24 21 28 26 20 22 20 16 10 13 10 5 10 13 21 17 13 13 14 16 17 16 15 17 18
27 21 17 15 16 18 19 25 26 24 26 26 20 7 11 9 3 13 17 23 23 25 29 30 24 17 20 24 26 17 14 15 11 11 13 19 23 23 19 17 19 19 18 16
19 14 11 12 17 18 23 27 21 18 17 17 8 6 8 9 6 3 6 11 16 22 27 27 24 24 26 22 22 17 10 10 13 15 17 18 21 25 28 26 26 25 25 23
14 10 7 13 18 27 25 18 14 13 11 9 7 8 7 10 3 5 6 8 16 13 22 27 23 24 17 13 20 20 17 16 15 14 15 16 17 20 24 23 21 20 21 23
9 9 14 22 22 21 15 9 10 9 8 6 7 11 12 10 4 4 7 11 11 8 16 13 19 32 30 27 24 24 25 25 25 24 22 22 24 21 21 22 23 23 22 22
4 11 17 17 18 10 4 4 4 5 6 6 10 13 17 13 6 7 6 4 6 5 5 13 9 22 21 23 24 25 25 25 25 26 26 28 29 28 25 26 27 25 25 24
10 14 13 17 8 2 3 3 5 4 3 9 13 17 22 14 3 6 5 6 6 4 7 8 5 11 11 13 15 17 17 16 15 15 16 17 18 19 19 19 19 19 18 20
10 11 10 6 3 4 3 3 5 4 5 6 13 18 16 6 2 4 5 4 5 3 6 4 4 3 8 11 11 10 10 9 7 7 8 9 10 12 15 16 17 20 21 21
8 6 6 6 5 6 8 11 11 11 12 12 14 14 11 8 4 2 2 2 2 3 2 3 7 7 8 4 7 6 6 5 3 2 3 4 6 6 7 7 10 12 13 15
5 5 5 8 9 8 8 11 12 12 14 16 16 12 8 6 4 3 2 2 3 4 1 3 6 5 3 7 2 3 5 5 3 2 2 3 5 7 8 7 7 8 8 11
11 9 8 5 5 7 9 10 12 12 10 9 8 4 4 4 4 3 3 2 2 2 2 5 5 5 5 4 2 1 2 2 1 3 6 7 9 11 12 12 12 12 11 10
8 8 11 13 15 16 16 14 13 10 8 9 7 4 4 3 4 3 3 2 7 2 2 1 2 4 7 8 5 3 4 6 8 10 11 11 12 12 12 13 13 13 13 12

GFSNW_700_spd_078.txt.gz
Wind_Speed
32 34 34 32 29 30 28 23 18 21 19 15 13 10 10 10 13 7 7 6 10 12 10 5 3 2 3 15 15 10 4 14 14 13 12 21 26 20 25 10 7 7 2 5
28 29 32 34 38 38 31 33 29 24 17 19 19 8 4 9 10 7 5 3 6 6 9 2 4 6 13 7 8 5 11 12 12 8 8 15 21 25 27 27 9 20 6 5
21 22 26 31 35 35 32 31 29 28 25 24 21 19 9 4 9 4 4 3 2 2 5 4 5 12 8 6 6 7 5 18 8 9 7 19 26 22 27 29 13 8 22 13
17 20 23 25 30 33 35 34 28 28 20 18 20 18 14 6 6 5 4 4 6 3 4 1 5 7 9 7 6 5 4 9 7 6 5 9 14 20 24 32 26 12 12 14
19 20 24 28 28 31 31 28 30 30 22 18 18 19 16 12 5 7 7 8 8 4 6 8 4 7 6 5 6 8 7 5 7 5 6 6 9 15 22 26 26 26 13 14
24 28 31 33 34 35 32 27 26 25 26 20 17 18 15 11 11 7 8 9 10 9 7 9 8 7 7 6 5 6 8 7 8 3 5 6 11 20 21 25 30 30 26 18
29 33 36 37 38 40 39 30 27 28 25 18 18 18 20 15 13 13 7 9 8 6 4 6 5 6 8 9 9 7 7 8 7 4 5 2 3 3 6 15 19 22 26 20
30 33 37 40 41 44 37 32 32 33 33 35 26 24 15 14 12 13 9 8 8 7 8 6 5 6 3 7 7 12 11 11 4 4 7 10 10 10 9 10 10 20 20 25
29 35 41 42 44 46 40 34 31 29 31 29 27 25 22 14 9 13 11 10 6 10 10 8 6 5 5 4 2 6 14 12 11 6 3 4 1 3 4 8 11 9 17 21
30 37 43 48 52 52 42 30 26 27 31 28 29 29 20 15 12 13 10 13 10 10 9 7 6 5 5 5 5 6 8 12 13 9 4 6 7 5 4 3 4 6 10 18
32 38 46 50 52 52 38 28 27 30 33 24 29 28 21 11 13 16 12 11 13 10 9 5 5 6 7 6 7 5 5 7 9 9 5 7 5 6 8 3 3 2 4 11
34 40 47 53 52 45 31 26 29 29 32 32 23 15 10 17 17 18 13 16 8 12 9 9 7 6 5 7 4 8 5 8 7 8 5 3 3 3 7 7 3 2 6 7
36 40 46 50 47 35 25 25 26 30 33 29 22 11 12 17 13 21 20 16 20 10 9 12 8 7 6 7 10 9 8 8 11 8 8 10 10 9 5 6 7 6 6 6
37 41 48 48 41 30 21 21 24 30 30 26 30 23 25 22 16 19 26 16 22 26 23 10 13 11 8 10 11 11 10 10 10 13 16 13 8 4 6 7 7 7 7 9
37 43 45 39 32 21 16 21 22 24 28 33 30 16 17 16 14 18 18 21 19 22 25 23 19 19 16 17 18 22 16 17 17 14 9 9 11 8 6 9 9 10 11 12
37 36 35 28 18 13 13 21 20 25 28 28 27 13 11 14 10 13 22 20 19 19 22 20 20 16 13 9 14 8 2 4 7 15 19 16 10 11 10 10 13 15 15 14
31 27 19 13 14 12 11 16 24 23 19 18 12 5 10 13 15 3 9 23 24 25 24 30 19 15 19 21 25 18 10 11 10 8 10 15 18 19 19 20 18 16 17 19
23 18 8 8 14 13 16 19 18 15 13 11 7 7 8 13 5 8 3 9 17 17 20 23 23 24 24 22 21 16 12 13 10 10 12 15 17 18 19 21 22 25 25 24
17 13 10 12 15 16 15 13 9 9 8 6 8 16 11 17 5 2 4 6 9 10 18 20 16 20 14 9 16 18 20 13 11 11 13 13 15 17 17 18 23 23 21 20
12 11 13 14 13 14 11 8 5 5 8 8 9 15 19 20 13 4 5 6 7 5 9 11 20 29 24 24 23 22 23 21 18 20 19 21 21 21 23 24 24 24 24 23
14 11 14 12 14 10 4 2 2 4 4 5 9 15 24 24 11 7 4 3 4 4 5 7 5 16 16 18 23 26 28 26 25 23 22 21 21 23 26 28 29 29 28 26
16 13 15 14 7 3 3 2 1 1 2 5 8 16 22 15 6 3 5 5 5 4 5 6 4 6 7 8 10 14 17 18 18 19 19 18 18 18 20 21 20 21 21 21
14 15 12 6 4 5 3 4 3 2 3 5 12 13 18 10 5 5 4 4 4 3 5 3 4 5 8 9 9 10 9 11 12 12 8 8 8 9 11 13 13 16 18 21
14 12 9 6 5 4 3 4 7 7 10 15 17 17 11 12 8 4 4 4 3 3 3 2 6 8 6 7 5 7 6 7 6 5 3 1 2 4 6 6 8 9 11 13
13 7 6 9 8 7 8 8 9 11 11 12 11 10 8 9 6 4 5 3 3 3 1 2 1 2 4 3 2 3 4 6 6 4 1 1 3 3 6 7 8 9 9 9
11 10 9 9 9 8 6 6 9 11 10 11 10 4 4 4 5 4 4 4 2 5 2 0 3 4 4 3 3 3 2 2 1 2 5 7 8 8 8 11 12 13 14 14
11 10 13 16 17 16 16 12 10 13 12 10 8 5 5 4 5 4 4 4 6 5 3 4 3 4 5 6 5 4 3 4 6 8 9 10 11 11 12 13 14 15 16 17

GFSNW_700_spd_081.txt.gz
Wind_Speed
13 16 20 24 27 27 28 27 25 19 21 16 17 14 9 6 3 2 3 2 6 9 9 4 3 1 5 6 12 17 11 11 20 17 15 19 24 21 27 8 5 9 3 10
7 9 15 19 23 24 24 24 23 25 24 21 20 17 12 10 7 5 3 3 3 3 8 3 1 3 15 16 11 9 13 8 10 6 16 17 25 27 26 28 13 14 6 5
10 15 17 23 25 26 25 25 22 24 20 26 22 21 15 12 12 9 7 6 5 4 4 3 2 7 4 8 4 5 5 15 9 11 4 17 23 32 31 30 21 20 27 25
15 17 22 24 26 28 28 27 22 22 23 26 22 20 20 18 14 12 9 7 7 6 4 3 3 12 7 7 8 6 6 16 9 7 7 11 17 24 27 33 37 20 26 23
19 23 25 27 29 30 32 28 26 25 28 27 23 18 18 17 15 13 16 12 11 9 7 7 5 7 8 8 10 9 7 6 11 7 7 9 12 15 27 28 32 38 22 20
21 25 27 29 33 39 41 40 34 27 26 25 22 17 16 18 18 15 14 15 11 10 9 7 9 7 8 8 7 8 9 7 9 4 9 7 12 23 25 28 31 31 37 27
22 26 30 34 39 43 45 42 37 29 25 25 20 17 16 20 22 27 21 15 8 8 7 7 9 9 10 11 10 7 6 8 7 4 6 2 6 6 10 22 24 26 32 29
22 27 32 36 41 45 47 47 39 29 28 25 21 23 23 21 15 18 25 12 9 12 9 9 6 6 4 8 8 9 10 9 4 4 7 11 10 10 10 10 13 17 25 22
23 30 36 40 45 50 50 46 33 29 29 29 27 27 28 22 17 15 21 12 9 8 13 11 6 6 5 4 4 6 10 12 11 6 3 4 2 3 4 7 10 9 11 17
24 32 38 42 48 50 51 42 29 24 29 30 27 31 33 20 13 15 20 12 10 10 11 7 8 5 6 5 6 7 8 11 13 11 4 7 7 5 3 2 4 7 5 14
27 32 38 44 47 51 49 34 30 28 26 27 28 24 18 15 12 12 14 10 4 6 6 4 3 5 7 5 6 4 5 7 9 10 6 7 4 5 5 2 4 7 1 8
30 31 34 40 45 49 43 26 30 26 27 27 20 23 16 15 16 9 15 15 2 6 2 5 5 5 4 8 2 9 5 7 3 6 3 2 1 2 4 6 3 4 1 4
31 29 33 39 45 44 38 24 17 21 31 30 15 24 20 17 11 9 12 19 17 12 2 2 11 7 4 3 5 7 6 7 8 7 5 8 10 10 5 6 8 5 5 2
27 28 33 38 39 33 26 23 17 21 29 28 31 20 16 14 9 7 11 24 19 19 16 13 4 6 5 5 7 7 7 8 8 11 10 14 13 6 5 6 6 6 5 6
25 27 32 35 30 24 24 23 19 21 23 30 19 10 12 16 13 7 13 20 23 19 19 19 11 9 9 12 14 14 12 15 16 16 11 8 6 10 8 8 9 8 8 8
23 26 31 29 20 20 21 23 19 23 25 22 12 9 15 15 21 9 10 13 28 19 19 21 20 19 14 10 12 6 3 1 3 5 12 15 12 7 8 7 8 9 12 13
22 26 27 19 15 18 21 23 24 22 16 14 6 5 12 18 13 12 3 10 14 24 19 17 19 15 21 24 26 16 13 11 10 10 9 9 11 15 16 16 17 17 16 15
21 25 21 14 14 19 22 24 20 13 8 5 5 6 9 17 11 10 10 4 11 17 15 19 20 22 23 20 24 20 16 14 11 11 8 10 11 12 14 15 17 18 19 20
21 21 16 13 15 19 20 20 14 6 2 3 5 11 6 18 14 8 6 5 7 7 10 17 12 16 15 17 20 20 22 17 16 13 9 9 12 13 15 17 19 19 21 23
20 17 13 13 15 19 24 17 6 2 1 2 4 8 16 18 9 3 2 5 6 7 7 5 13 23 24 22 18 11 9 10 11 17 16 16 17 20 21 22 23 25 26 26
18 14 13 15 17 22 16 5 3 3 3 3 4 10 16 14 9 3 3 3 4 5 4 4 4 9 7 11 20 23 26 26 24 21 23 21 19 21 22 22 24 26 28 31
15 14 14 13 17 11 5 4 3 4 3 4 5 11 16 12 8 3 2 5 4 5 3 4 4 5 5 5 9 13 16 19 21 21 19 19 18 18 19 19 20 21 22 23
13 12 9 7 6 6 4 3 4 3 5 8 10 13 15 7 8 5 4 4 5 7 4 4 5 7 9 10 8 9 11 12 12 12 12 10 9 9 11 11 11 11 13 15
12 8 7 5 6 6 6 4 6 7 8 12 16 14 9 12 6 3 4 5 6 4 3 3 7 12 13 8 7 9 8 7 7 6 5 2 1 3 4 6 7 9 12 13
8 6 6 8 8 9 9 9 9 10 11 12 12 12 9 6 4 4 5 4 4 3 4 5 7 8 4 3 1 3 3 3 4 4 3 2 3 6 7 7 7 9 10 10
12 11 10 8 10 10 10 9 8 12 13 11 9 6 4 3 4 4 4 3 3 7 9 3 2 3 4 4 3 3 2 2 2 1 3 6 8 9 9 9 10 12 13 14
10 10 12 14 14 15 15 15 15 13 12 12 9 4 5 4 5 5 5 6 7 7 8 4 5 3 2 4 4 4 4 4 6 8 9 9 10 11 13 14 16 17 18 19

GFSNW_700_spd_084.txt.gz
Wind_Speed
6 9 16 19 23 25 26 25 25 27 28 22 25 24 20 18 14 13 14 12 10 7 8 5 2 2 3 13 20 17 9 8 9 12 9 14 20 23 27 8 5 3 1 5
7 14 17 22 24 25 29 31 28 25 25 24 26 29 29 18 12 13 14 12 9 11 9 5 3 5 9 10 14 15 8 6 10 6 10 15 22 24 23 25 9 9 5 3
12 16 19 23 24 27 32 36 26 30 27 26 33 32 28 16 13 15 14 14 11 9 10 7 5 3 15 12 9 9 14 7 6 9 3 13 21 28 28 24 15 14 24 23
13 16 21 24 26 31 35 39 32 36 30 31 25 24 24 21 17 13 12 14 8 6 6 6 3 1 4 10 5 7 6 5 9 5 10 8 14 23 30 36 35 26 24 25
13 17 22 26 29 33 37 41 39 38 28 23 25 22 15 15 12 14 14 14 13 11 7 7 5 3 4 3 8 5 5 3 13 6 5 7 11 14 18 24 33 35 33 33
14 18 22 27 33 38 42 44 43 40 28 20 21 18 19 21 21 20 14 17 18 3 7 8 8 5 6 4 3 5 7 4 6 3 7 7 11 18 20 22 26 26 31 19
15 18 23 30 36 40 44 48 47 39 26 20 24 21 23 22 20 24 21 23 24 9 3 7 10 8 8 8 7 5 4 5 5 1 4 1 4 7 8 16 24 26 27 23
14 20 26 33 40 43 46 49 45 35 27 22 23 27 31 25 15 15 16 15 18 11 9 8 6 5 4 7 8 9 8 5 2 2 5 11 12 8 8 10 11 11 18 21
15 21 30 36 41 44 47 48 43 31 25 23 28 28 33 27 18 11 8 12 17 8 6 10 6 5 4 4 3 8 9 10 9 3 2 3 2 2 4 6 9 7 12 15
16 23 31 37 41 44 46 45 41 27 20 20 29 24 29 24 24 20 13 9 6 10 9 7 5 4 6 4 4 6 7 7 11 9 5 7 6 7 4 1 4 8 8 8
18 26 33 37 39 41 45 42 34 23 17 22 26 18 30 20 19 19 11 5 7 9 3 1 0 4 9 4 4 2 3 7 8 9 5 7 4 4 4 2 5 7 7 5
19 25 32 34 37 39 41 33 30 25 22 22 17 24 25 20 18 15 8 2 8 11 5 6 1 3 0 7 4 8 4 4 2 5 3 4 2 2 3 7 7 5 3 2
23 26 27 30 34 36 35 28 26 21 23 16 24 24 16 12 13 11 10 7 9 7 3 5 2 3 4 2 7 5 5 5 6 5 2 5 9 8 10 7 8 8 5 2
22 26 25 28 31 32 29 25 24 22 24 17 21 13 13 12 11 9 9 13 16 15 9 8 5 6 8 4 4 5 4 5 6 8 7 8 9 9 5 5 6 4 4 5
20 23 24 26 29 30 24 24 24 23 21 22 14 8 13 13 15 10 10 14 13 19 17 14 11 8 4 7 11 9 7 10 13 16 13 11 6 5 8 6 8 8 7 6
23 21 24 25 28 27 23 25 23 24 23 18 8 6 13 17 14 12 4 12 13 19 19 15 17 15 14 9 7 3 3 4 3 4 7 9 11 9 6 8 7 8 8 10
21 23 23 24 26 22 19 22 24 21 17 12 3 4 9 16 14 12 7 5 11 13 20 20 14 14 15 19 26 18 11 10 11 12 11 8 8 11 14 14 13 14 16 16
23 23 21 23 24 19 19 22 24 20 12 6 3 4 4 13 14 10 9 6 3 10 12 18 21 23 19 18 20 14 16 20 17 14 11 9 9 10 10 11 13 15 17 18
24 20 19 22 20 16 18 21 24 16 7 4 4 6 6 15 13 5 5 5 7 5 8 7 10 15 12 15 15 19 23 21 14 11 11 11 10 11 12 14 16 18 19 20
19 17 18 19 11 15 18 22 14 5 6 6 5 6 12 13 9 4 4 5 4 4 5 5 7 14 13 18 19 13 10 8 14 16 12 13 17 17 18 20 22 24 25 25
17 15 16 16 17 16 17 7 3 3 4 6 6 7 12 12 9 7 4 4 4 4 3 3 4 6 7 8 11 18 22 17 15 17 20 20 21 23 22 23 24 23 24 25
15 14 15 14 14 7 5 3 3 4 4 4 5 9 13 13 9 5 4 4 3 5 4 4 4 7 7 8 9 10 13 17 21 21 19 19 21 20 20 19 17 17 17 17
14 12 10 7 4 5 4 3 4 3 5 7 8 12 14 6 6 4 3 3 5 9 5 4 6 9 12 15 15 12 11 10 11 12 13 13 14 12 12 10 6 5 7 9
12 8 6 5 5 6 5 5 6 7 8 10 11 10 9 10 6 4 5 4 6 4 4 3 9 13 15 12 8 7 9 9 9 9 7 7 5 3 2 4 6 8 9 10
10 5 5 8 9 8 7 7 10 10 10 8 10 10 9 7 5 4 5 3 4 3 5 14 12 12 12 6 4 2 3 4 4 4 4 3 2 4 7 9 10 10 10 12
9 9 8 7 10 8 9 11 12 12 11 13 12 7 5 4 4 5 5 4 4 4 8 9 8 9 8 4 1 2 2 3 3 2 3 4 5 6 8 10 12 14 15 17
9 9 10 15 17 15 13 14 15 15 15 12 9 5 4 3 6 6 6 7 9 9 9 9 9 8 8 5 2 1 2 1 2 4 6 9 12 13 14 16 17 18 19 21

GFSNW_700_spd_087.txt.gz
Wind_Speed
9 11 13 17 20 23 27 32 30 28 28 31 21 24 30 33 13 11 16 14 8 7 12 10 7 1 3 12 14 10 6 7 13 15 7 9 17 15 20 7 5 4 3 2
13 11 15 18 21 25 31 35 31 29 26 24 27 29 27 12 18 17 13 13 14 9 10 6 9 2 2 7 15 12 10 8 8 4 9 10 13 14 23 16 6 9 7 4
14 13 14 19 23 27 32 37 27 30 28 29 26 29 20 19 12 12 9 14 16 7 5 6 7 5 7 13 18 12 8 9 2 7 4 9 16 23 21 24 14 13 16 15
16 13 14 19 24 28 35 39 36 38 31 24 20 21 18 20 21 13 16 5 8 15 1 5 6 8 14 9 9 9 10 2 7 4 6 5 8 18 26 28 27 17 18 22
17 14 15 19 25 30 36 40 40 40 32 22 20 19 18 18 20 23 15 15 15 8 13 7 7 8 4 3 6 9 3 3 6 3 2 6 10 10 13 19 25 29 32 32
18 15 16 19 25 32 38 41 43 44 33 23 21 22 27 22 18 7 17 16 20 17 7 3 3 3 4 5 4 5 3 1 2 1 3 4 9 10 14 16 19 21 27 18
19 16 16 21 27 33 39 41 44 42 26 21 22 22 25 24 16 17 14 6 8 11 11 3 3 3 3 1 2 1 1 2 2 1 3 1 1 3 6 7 9 15 18 19
20 16 16 22 27 34 38 42 43 38 22 20 20 21 26 20 21 13 8 5 8 7 9 5 5 6 4 5 6 7 6 3 2 1 4 8 8 4 5 6 5 7 10 8
19 16 17 23 29 33 36 40 40 33 26 22 22 23 27 24 25 13 9 7 7 8 5 4 2 2 2 4 2 6 7 8 6 3 2 2 1 4 4 4 1 6 8 9
18 16 18 21 30 32 36 38 33 29 23 19 21 26 24 22 22 18 14 11 3 5 6 3 3 3 3 1 1 3 6 5 7 4 3 4 3 5 3 2 3 9 11 11
19 17 17 21 28 30 35 34 29 27 24 18 22 23 21 17 17 16 10 7 8 8 4 3 2 2 5 2 2 1 1 6 5 6 4 5 4 3 2 0 5 7 11 10
19 15 15 25 25 28 32 30 26 24 20 17 21 18 18 15 12 9 7 4 3 4 3 4 3 2 3 4 3 6 3 2 1 4 1 2 3 3 3 4 7 8 7 6
18 12 12 26 22 26 30 27 26 25 19 9 18 13 15 15 15 11 6 3 7 10 6 5 2 1 1 1 6 4 5 4 4 2 2 2 4 4 6 8 7 7 7 4
17 8 14 20 20 25 28 25 24 23 19 12 13 11 14 14 16 16 11 9 9 14 10 7 5 2 2 5 4 5 5 4 5 5 5 6 5 8 7 5 6 5 3 2
16 9 18 16 19 24 25 22 22 20 17 15 10 6 11 14 14 17 14 10 10 10 15 12 6 6 1 4 8 7 6 8 9 9 12 12 10 6 7 6 6 7 6 5
16 16 17 15 19 22 23 21 20 19 18 13 5 4 8 12 14 15 14 11 8 10 11 16 13 11 11 7 6 3 6 8 7 6 4 5 6 8 8 10 11 8 8 7
18 16 19 18 20 21 20 19 20 19 19 10 4 2 6 10 16 12 11 12 10 11 11 12 15 11 12 15 20 12 9 11 12 10 11 10 9 8 11 13 11 11 12 15
17 17 18 19 20 19 19 18 17 18 17 5 1 3 7 10 18 15 10 9 11 9 10 11 10 14 18 16 15 15 13 17 24 21 17 13 10 9 9 10 11 12 14 16
21 18 18 21 17 18 16 18 17 18 7 3 3 4 6 13 15 12 9 8 9 7 8 6 8 9 8 6 7 11 12 18 17 14 11 9 10 11 12 12 13 15 17 19
20 18 18 18 15 15 18 18 14 4 4 3 4 4 7 11 12 9 6 6 6 6 6 7 7 8 5 9 15 19 14 10 8 10 19 14 13 13 15 17 17 20 22 24
21 17 19 17 15 16 14 6 2 3 3 3 4 5 6 10 12 9 3 3 5 4 4 5 5 5 7 9 12 11 11 18 13 11 14 18 18 18 21 21 23 23 25 24
20 17 16 16 15 8 6 4 3 3 3 3 4 6 9 11 10 4 4 3 4 5 4 5 4 7 10 12 14 15 13 9 18 22 23 24 25 24 23 22 20 18 14 11
16 16 16 11 9 9 6 6 5 4 4 5 6 9 11 8 4 4 3 4 6 6 5 4 6 10 15 17 20 17 12 11 8 10 13 15 16 17 16 14 8 4 5 6
18 15 13 9 8 8 9 9 6 5 5 6 6 7 7 10 6 3 4 5 5 5 4 4 10 15 16 18 14 10 8 9 9 9 8 10 12 10 7 4 3 5 7 8
17 13 9 13 11 11 10 8 6 6 5 5 4 8 8 8 5 5 6 5 5 5 4 9 10 10 12 14 11 8 5 5 5 4 4 3 4 4 5 4 5 8 10 12
18 13 11 10 12 13 12 10 8 8 7 8 8 7 6 5 4 5 7 5 6 6 6 7 9 9 10 9 9 6 2 1 2 3 4 3 2 4 7 9 11 14 16 17
16 18 20 17 14 14 14 13 11 11 11 11 8 5 5 5 7 8 10 13 15 13 13 14 13 12 11 11 8 5 4 3 3 4 5 7 10 12 12 12 14 19 21 23

GFSNW_700_spd_090.txt.gz
Wind_Speed
17 12 12 15 18 21 27 33 28 31 24 28 25 24 21 12 14 17 14 13 12 13 9 9 7 4 7 14 14 8 1 7 7 7 7 10 13 16 9 3 3 4 1 6
18 15 13 14 16 21 28 33 30 31 27 21 22 19 16 12 13 12 8 9 13 19 9 5 11 10 10 17 15 10 6 7 9 9 4 5 12 17 17 7 4 4 0 7
20 16 14 14 16 20 28 33 26 30 28 22 19 19 19 17 12 6 10 9 6 10 4 8 10 10 6 11 16 9 4 6 3 3 5 7 14 17 21 22 11 7 9 7
22 17 15 14 16 20 28 32 31 35 23 20 18 19 22 19 17 11 7 4 11 14 16 7 13 15 8 12 14 8 5 3 3 2 3 4 7 13 21 23 22 11 11 19
22 19 16 15 16 20 27 31 33 36 24 20 18 19 19 19 16 10 9 6 5 7 7 9 7 13 8 2 9 7 7 2 9 3 1 2 3 3 8 18 21 24 25 27
22 20 16 15 16 20 27 31 34 35 26 20 21 21 18 19 18 8 8 4 4 5 4 3 7 9 10 11 8 9 7 5 3 1 1 2 3 3 9 10 13 14 21 16
23 21 16 15 16 20 25 29 33 33 23 18 18 18 18 18 18 12 6 7 6 6 2 5 5 4 5 7 6 5 5 2 1 1 3 2 3 1 1 2 3 7 14 15
22 21 17 14 15 19 24 28 31 30 19 16 17 17 18 17 17 13 12 9 5 4 3 9 5 3 2 2 3 4 4 3 1 0 2 3 1 2 1 2 1 2 4 7
25 21 16 14 14 18 24 27 29 27 18 15 14 16 16 14 13 13 11 10 9 5 8 6 2 2 2 2 3 6 7 7 4 2 2 0 2 2 2 1 2 4 5 6
26 21 15 13 13 16 21 25 26 24 16 13 14 16 14 14 13 12 9 10 3 6 4 3 2 3 3 1 2 3 5 6 6 4 2 3 3 4 1 1 1 7 10 10
22 20 14 12 11 16 21 22 22 21 17 11 15 14 14 11 10 7 3 4 4 4 2 2 1 1 4 3 3 3 3 5 4 5 2 3 2 2 2 1 3 6 8 10
24 20 14 11 11 16 19 20 20 20 15 9 14 11 12 12 9 6 3 2 5 6 5 4 3 1 3 3 2 5 3 4 3 5 2 2 0 2 2 2 4 6 6 7
25 20 15 11 9 13 16 20 19 20 13 7 12 9 11 12 12 10 5 5 8 5 7 6 6 3 3 3 5 4 5 5 4 2 2 2 4 5 5 6 6 5 7 6
27 21 15 10 10 10 13 17 16 17 11 9 9 7 9 12 11 13 13 7 9 9 11 6 5 5 5 7 6 8 7 4 5 5 5 4 6 6 8 8 7 6 4 3
25 21 16 9 10 7 12 15 11 13 12 8 5 3 7 9 12 14 14 12 7 8 10 13 8 8 6 7 10 9 8 7 7 5 9 11 11 11 7 9 8 6 7 6
27 23 15 15 9 7 13 13 10 12 11 7 3 2 2 6 12 15 14 13 11 5 7 8 16 14 11 6 6 7 10 11 12 13 10 6 6 7 10 9 14 12 13 10
29 22 16 18 9 9 12 13 13 11 11 5 3 2 2 5 11 13 11 10 10 9 6 8 9 14 13 14 17 10 10 12 13 13 12 10 11 11 11 13 12 10 10 11
26 21 15 19 12 11 13 16 12 12 11 2 3 3 2 3 10 11 11 6 8 9 5 5 6 8 15 15 15 19 18 17 21 23 22 20 16 13 12 11 11 12 13 15
28 22 18 19 19 13 13 14 14 13 5 3 4 4 2 4 8 9 10 6 6 5 6 5 7 6 6 5 9 14 15 16 21 20 17 16 15 15 14 14 14 14 15 17
29 27 20 22 17 14 13 15 15 4 4 4 4 5 4 3 5 7 8 4 4 6 4 8 6 8 7 6 6 9 13 20 17 14 18 21 15 14 15 15 16 17 19 22
32 26 26 24 14 13 15 9 6 5 4 4 4 4 5 4 5 7 3 4 4 3 3 4 4 6 6 7 10 14 14 12 15 20 15 15 18 18 19 18 19 22 23 24
29 26 25 17 14 11 8 8 7 6 5 6 5 4 5 5 7 5 3 3 3 4 4 5 4 6 9 12 16 17 19 15 11 16 20 18 18 20 20 21 22 24 21 15
28 28 22 10 13 12 9 11 8 7 6 7 5 5 5 4 1 3 3 2 3 5 5 5 7 8 14 17 17 17 13 9 11 10 13 16 17 19 21 23 22 17 8 6
30 25 15 12 10 10 17 14 10 7 8 6 6 6 5 4 3 4 3 3 4 4 5 6 8 12 11 13 15 11 10 10 10 11 11 12 13 15 15 17 12 10 7 6
24 14 12 17 13 13 11 13 11 9 8 7 7 7 6 6 5 4 5 5 6 7 7 8 9 11 12 13 14 11 8 6 7 8 8 7 5 4 5 6 6 3 4 7
17 14 12 17 17 17 16 14 12 11 9 9 9 7 5 7 6 7 7 5 7 7 9 11 12 14 13 13 12 10 6 3 2 1 1 1 1 1 2 4 6 7 8 12
17 18 20 14 12 12 14 15 14 13 12 11 8 6 8 5 7 7 10 12 12 13 15 17 18 19 19 18 18 14 12 9 7 6 5 4 6 6 6 9 10 11 13 16

GFSNW_700_spd_093.txt.gz
Wind_Speed
21 20 15 11 13 16 21 29 27 29 25 27 20 16 14 9 11 6 4 5 7 12 12 5 6 3 5 7 13 5 2 6 7 8 7 12 12 13 9 6 4 2 2 5
23 21 17 13 13 16 21 27 26 26 24 20 19 15 13 9 9 2 2 7 10 11 9 6 15 3 7 12 8 3 2 7 6 8 6 8 16 17 11 4 2 2 5 8
24 21 18 13 12 15 19 25 22 23 23 22 19 17 13 11 4 4 4 4 9 7 9 8 12 13 7 12 11 7 3 2 2 4 6 10 12 17 20 12 3 3 4 6
25 22 18 15 11 13 17 22 22 23 18 20 17 16 11 12 8 3 2 2 6 11 6 10 15 12 9 14 11 7 3 1 3 4 6 4 9 15 20 28 20 9 7 10
26 24 19 15 11 11 15 20 22 24 19 17 17 16 10 12 6 3 3 4 5 7 8 9 12 11 6 3 11 6 3 2 3 5 3 3 5 9 14 19 19 21 22 23
26 24 18 18 12 10 14 18 24 24 20 15 16 15 13 12 7 4 8 7 5 5 5 4 9 11 10 10 10 7 2 1 2 3 3 3 2 7 10 13 16 17 18 16
23 26 21 17 11 9 12 16 21 21 16 12 12 14 14 14 11 11 15 9 5 2 0 2 5 5 6 6 5 5 1 1 1 1 3 4 5 4 7 8 7 11 17 19
26 25 24 17 11 7 10 15 19 19 12 8 10 11 12 13 14 13 11 7 7 5 4 5 1 2 3 2 3 3 3 1 2 1 3 4 1 2 5 4 3 4 5 7
25 25 23 17 10 6 8 14 17 17 9 6 8 8 9 9 10 10 8 7 4 6 6 4 1 1 2 1 3 4 5 5 2 2 2 1 4 2 2 3 5 3 5 7
27 28 24 16 10 5 7 12 14 14 7 6 3 7 5 6 7 7 5 3 2 4 7 3 2 0 1 2 2 2 2 3 6 5 3 1 3 2 2 3 3 5 6 8
21 22 23 17 11 4 7 10 13 12 7 4 2 5 4 4 1 1 3 1 1 6 4 5 4 5 3 2 4 2 1 2 3 3 2 3 1 1 1 4 5 6 7 7
24 17 23 18 13 9 6 8 12 10 6 4 2 4 4 4 2 1 2 4 4 5 6 5 5 4 4 3 2 5 1 3 1 3 1 4 2 3 3 4 5 7 7 6
22 22 24 19 12 9 4 8 10 9 4 4 4 4 4 5 5 4 2 5 7 8 9 8 7 4 6 4 6 6 6 5 3 2 3 4 6 7 7 6 7 8 7 8
25 28 26 20 15 10 5 5 7 7 4 2 3 2 3 6 7 7 7 6 5 8 9 9 9 8 7 9 10 7 5 5 6 7 8 7 8 8 8 10 9 9 7 5
32 32 28 20 17 8 5 3 4 6 6 5 2 1 0 3 5 7 8 8 8 4 8 11 11 11 8 9 9 9 9 9 5 4 8 10 13 13 14 11 10 9 8 8
39 33 26 22 17 8 6 2 4 5 6 6 3 3 3 1 5 8 8 8 6 5 5 7 10 15 10 6 6 14 13 13 15 18 16 14 10 8 8 10 11 14 14 13
34 31 27 23 20 13 9 5 6 6 6 6 3 3 5 3 3 6 7 8 5 5 4 4 8 10 13 18 13 13 10 10 12 15 14 14 13 12 11 11 13 14 13 12
34 33 28 25 20 16 9 7 7 6 7 5 3 3 5 4 4 7 6 7 4 4 3 4 4 8 11 12 15 23 26 23 23 22 22 21 21 21 17 15 14 13 13 13
38 36 28 24 24 21 9 8 9 9 8 4 6 6 4 5 4 6 7 5 4 3 4 3 6 7 6 7 9 11 15 18 22 26 27 26 22 19 20 19 17 16 16 16
41 35 31 27 24 26 13 10 13 13 10 11 8 8 6 5 5 6 8 5 4 4 3 7 6 7 7 6 6 7 10 12 14 20 23 21 23 20 19 20 20 18 17 18
43 41 34 22 19 20 13 8 7 8 7 9 11 10 8 6 6 7 5 5 4 2 4 4 4 6 4 7 9 13 16 16 18 18 17 20 15 18 21 20 19 19 19 22
40 34 26 22 19 10 9 8 8 8 9 10 12 11 9 7 7 7 6 6 4 4 5 4 5 3 6 10 16 18 20 21 18 15 14 18 21 21 23 25 25 25 24 25
38 31 25 14 15 12 11 13 11 11 10 10 10 10 10 7 7 6 5 4 4 4 4 5 8 6 8 11 13 18 19 16 15 11 13 13 15 20 20 20 21 22 22 23
34 24 22 14 10 15 17 18 16 13 9 9 9 10 8 8 5 6 4 6 5 4 6 7 8 9 10 13 15 20 19 17 15 13 11 13 14 16 16 18 19 20 21 16
32 16 12 19 17 13 19 19 17 15 11 10 9 10 10 7 6 5 5 4 6 7 7 8 8 10 12 15 17 17 16 15 12 10 9 9 11 11 10 9 9 8 8 7
23 14 13 18 26 19 18 17 18 14 12 10 10 9 5 9 6 7 8 5 7 6 7 9 10 13 17 18 17 17 16 15 11 6 3 1 0 2 4 6 6 5 8 11
15 20 17 15 24 19 17 16 17 15 15 12 9 7 7 6 7 8 10 12 11 12 12 13 16 19 20 20 20 21 20 20 18 15 13 10 8 8 10 10 7 8 12 15

GFSNW_700_spd_096.txt.gz
Wind_Speed
21 22 19 16 10 10 14 18 25 27 24 23 21 15 13 10 7 1 4 6 7 10 10 7 5 7 6 3 5 1 2 4 7 6 3 2 11 12 9 1 5 5 4 3
23 23 20 18 12 10 13 17 21 24 20 18 16 12 10 10 5 2 3 7 11 10 10 4 7 9 10 9 5 3 3 6 6 6 6 10 12 20 13 2 4 1 2 4
23 23 21 19 13 9 11 16 17 22 18 17 15 13 11 9 6 3 6 7 7 6 6 9 8 11 10 9 7 3 3 2 3 3 4 8 16 21 18 10 2 2 6 10
26 25 22 18 14 10 9 13 16 20 18 16 13 16 11 9 4 3 7 4 7 6 6 8 8 6 10 7 4 2 1 6 6 6 4 1 7 24 25 21 13 7 7 7
26 25 25 20 14 10 7 10 15 19 15 12 13 15 12 8 1 9 8 6 5 7 10 8 6 5 6 4 7 3 1 5 4 3 3 5 5 12 21 25 25 25 24 18
32 27 26 21 14 11 7 8 13 16 14 10 13 12 12 6 7 10 11 6 4 7 7 7 6 8 6 7 8 5 4 2 2 1 3 4 2 7 13 15 17 18 18 14
32 26 26 21 15 12 6 5 11 13 11 8 9 10 9 7 9 15 12 6 3 3 3 5 5 5 5 7 4 4 4 2 2 1 3 1 2 4 10 11 9 13 15 16
25 26 27 23 17 11 5 3 8 11 9 4 7 7 6 10 12 11 8 5 5 3 6 4 4 5 5 4 1 2 2 4 3 2 2 2 3 3 6 5 6 6 5 6
28 30 28 27 20 12 6 2 7 9 7 2 3 4 4 6 9 7 7 5 3 5 4 5 3 2 2 1 3 3 6 4 0 2 2 0 4 2 3 6 4 4 5 7
29 24 30 24 21 13 8 1 4 7 5 1 1 2 1 3 5 6 5 2 4 6 5 2 3 2 1 2 2 1 1 2 6 6 3 1 3 3 4 4 4 4 6 7
33 26 27 23 22 15 9 4 3 5 3 1 4 0 1 2 4 5 5 3 3 6 4 3 2 4 5 2 3 3 2 2 3 4 2 3 1 3 4 4 6 7 9 8
35 26 20 30 22 17 9 4 2 4 2 1 3 3 2 2 2 4 6 6 4 6 5 5 4 2 3 2 2 3 3 5 2 4 4 4 3 3 4 5 8 8 8 7
40 23 17 31 24 18 12 6 2 2 3 1 2 3 1 1 0 2 3 6 8 10 9 8 7 5 6 3 7 7 5 6 6 2 4 5 7 7 7 7 8 8 8 8
30 27 30 30 23 19 13 7 4 3 3 3 2 4 2 1 2 3 3 3 4 7 8 8 9 8 7 11 11 11 9 3 4 6 8 6 8 8 7 8 8 9 10 7
34 28 33 30 25 18 14 10 6 4 2 2 3 4 4 2 1 3 4 4 5 4 4 8 9 11 9 11 12 7 9 9 9 8 12 10 10 12 11 10 10 9 8 7
37 33 34 31 24 20 16 11 9 5 2 1 3 5 6 5 4 4 4 5 5 4 4 5 6 7 7 5 5 10 11 15 15 16 14 14 14 12 9 8 7 9 10 13
38 36 36 34 26 19 15 10 8 4 3 3 4 4 8 6 6 5 6 6 4 4 3 3 4 5 8 13 17 16 15 11 15 15 14 15 12 13 13 11 10 11 13 14
40 35 34 31 29 24 16 11 9 6 5 4 4 5 8 7 7 7 6 7 5 5 4 5 5 5 6 5 6 13 16 20 23 22 21 22 21 21 19 19 18 16 14 13
41 30 36 28 30 27 18 12 10 8 8 4 6 7 5 7 7 6 7 7 6 6 7 7 5 6 4 4 6 7 9 9 12 16 20 25 26 25 22 21 19 20 18 17
39 41 37 31 29 24 23 11 10 11 14 15 11 9 8 7 6 5 5 5 4 4 4 7 8 9 4 1 3 5 8 12 14 14 15 17 23 22 21 21 18 19 19 20
40 41 38 30 28 26 20 14 7 8 8 12 16 14 10 9 6 5 4 4 4 1 3 4 5 8 3 2 5 10 12 16 18 18 20 20 17 19 16 17 21 17 19 20
41 42 34 29 26 12 12 11 11 9 12 10 18 17 13 10 8 6 5 4 3 2 3 3 5 1 3 3 7 9 14 19 18 16 16 14 14 15 19 19 16 18 18 18
47 39 29 17 15 13 12 14 15 13 11 15 18 16 14 11 9 6 4 4 3 3 4 4 5 3 4 6 8 12 17 20 19 18 14 14 13 12 14 19 19 19 23 25
42 25 21 16 10 15 16 20 19 15 13 15 17 14 12 12 8 6 5 5 5 3 5 7 5 6 7 8 11 15 17 17 17 16 15 12 11 12 14 15 16 17 18 21
28 17 13 20 17 11 21 20 21 16 14 14 15 13 11 9 7 6 6 5 5 7 5 3 6 8 10 12 15 17 17 17 16 15 14 12 10 9 7 7 8 7 7 7
26 16 15 20 20 17 21 23 19 18 17 17 15 10 6 10 6 8 9 6 6 3 3 7 10 12 14 17 18 18 18 17 16 15 13 11 9 7 7 5 5 7 9 8
12 20 20 20 25 21 17 19 19 19 19 18 10 8 9 6 7 8 8 8 7 6 10 12 12 16 18 20 22 22 21 19 18 17 17 17 15 14 14 14 14 13 13 7

GFSNW_700_spd_099.txt.gz
Wind_Speed
26 24 24 21 17 11 7 9 14 18 18 17 16 12 11 5 4 6 6 5 6 10 11 10 2 5 4 2 4 4 4 6 2 3 2 4 8 7 10 2 2 2 2 3
31 25 24 22 18 12 8 7 11 17 13 14 13 10 9 6 5 8 4 4 7 9 11 4 5 5 9 5 2 8 4 4 3 3 3 7 8 15 20 4 2 3 2 3
29 24 23 23 19 13 9 5 8 14 10 15 11 9 8 5 8 8 6 6 5 6 9 7 5 11 7 3 1 4 5 3 2 6 3 6 10 17 21 7 3 4 6 10
28 28 27 25 20 15 9 4 5 11 12 12 10 10 9 4 8 11 9 5 5 4 6 8 7 2 8 6 2 3 4 4 6 5 2 1 7 15 22 14 10 1 13 11
29 29 28 25 21 16 10 5 5 10 10 8 9 11 9 3 11 16 10 7 8 9 7 6 5 5 6 5 6 5 4 3 2 2 3 4 1 13 25 18 18 12 11 10
33 37 31 28 23 18 11 5 3 8 9 4 7 10 9 2 16 14 10 8 7 9 7 7 7 5 5 5 6 5 5 3 2 2 1 2 3 6 19 21 20 19 18 16
33 36 31 28 23 18 12 6 3 7 6 2 5 8 8 6 15 13 10 7 6 5 6 6 5 6 5 5 3 4 4 3 2 3 1 0 0 4 10 14 11 14 15 14
35 29 34 29 27 19 13 8 4 6 5 1 3 5 6 12 15 11 6 4 7 4 9 6 3 3 2 3 2 2 1 2 2 2 3 0 1 2 5 9 7 4 5 7
32 35 30 34 29 20 14 11 5 5 4 4 3 4 6 9 11 8 7 5 4 8 6 6 3 1 1 1 2 2 5 4 2 2 2 1 0 1 2 5 4 3 2 5
32 30 33 36 34 21 18 12 6 5 4 4 5 5 5 8 9 8 7 4 5 6 6 3 5 3 3 3 2 2 2 5 8 4 2 2 2 3 2 3 2 3 5 8
34 34 30 39 30 24 19 14 8 5 4 5 7 6 5 5 6 6 6 5 5 8 8 4 2 3 5 3 3 3 3 2 2 3 2 2 3 3 3 3 6 6 9 9
34 31 24 29 27 27 21 15 10 6 6 5 9 6 5 4 3 5 5 5 3 5 6 5 4 3 1 4 3 4 4 3 2 1 1 2 2 3 3 4 7 8 10 10
34 37 29 24 32 27 21 15 10 7 8 7 7 7 6 5 3 1 2 3 5 7 9 8 7 4 4 4 7 7 6 6 5 3 6 6 4 6 7 8 9 9 8 8
36 36 24 30 35 28 21 15 12 8 9 9 8 8 7 6 4 3 2 2 3 2 4 7 8 5 6 9 9 9 8 7 9 11 11 10 8 8 7 6 9 9 10 9
26 38 28 38 33 27 21 18 13 10 10 8 9 10 9 8 5 2 2 2 3 4 3 4 5 5 6 8 9 9 12 12 11 12 12 13 13 5 8 8 9 10 9 8
34 33 30 37 32 28 23 19 15 12 9 7 9 10 11 9 6 3 2 0 2 2 2 2 1 2 3 4 4 9 8 9 14 12 13 14 11 10 10 9 7 7 9 10
38 31 35 40 32 27 22 18 15 13 10 7 6 8 12 10 8 5 3 2 1 2 1 0 1 2 4 8 13 10 9 13 13 14 17 18 13 11 11 13 12 10 10 12
43 38 37 39 35 27 23 17 15 14 11 8 5 6 12 12 9 7 5 4 3 5 4 4 4 4 5 3 3 3 6 11 14 17 20 21 23 21 17 19 20 19 18 17
41 40 41 38 35 28 22 17 14 13 13 7 7 10 8 12 11 9 6 6 5 5 6 7 5 6 3 3 3 2 2 4 6 9 12 14 17 18 22 26 24 21 19 18
44 42 40 33 32 28 22 16 12 14 15 15 9 12 10 11 12 9 5 4 3 3 4 4 7 7 7 5 2 2 4 7 9 10 14 18 21 21 19 21 19 20 18 19
44 42 35 30 32 31 27 14 11 11 10 16 20 17 14 13 12 9 5 3 3 3 2 3 4 3 8 6 3 4 4 8 12 14 13 14 14 15 18 18 17 16 20 21
41 42 31 31 28 14 12 11 12 9 13 10 19 22 20 15 11 7 6 5 4 3 4 3 3 3 6 5 3 3 7 12 15 14 14 13 14 13 13 14 16 16 16 19
45 37 29 18 16 13 12 15 14 12 9 13 18 24 22 16 13 7 6 6 5 5 5 4 4 4 4 5 6 7 10 14 14 13 13 13 11 11 11 10 13 18 19 18
46 26 23 15 10 14 15 16 14 12 12 11 18 23 20 16 14 7 4 7 7 5 6 4 4 3 4 6 8 10 14 15 15 14 13 12 11 10 11 12 14 15 15 16
33 19 13 18 16 12 18 18 16 17 15 15 22 22 14 14 8 8 7 7 6 9 7 8 4 4 6 9 11 14 16 16 16 15 13 12 10 8 7 7 6 8 8 8
17 18 14 20 20 17 20 22 22 18 17 21 22 16 8 10 7 9 9 6 6 6 8 6 5 7 9 11 14 16 18 20 19 18 16 14 13 11 10 9 8 8 10 13
15 17 22 18 21 18 19 20 21 21 20 25 17 9 9 6 7 8 8 6 6 7 6 6 8 9 11 14 17 19 19 18 17 16 16 17 16 16 15 15 16 15 14 13

GFSNW_700_spd_102.txt.gz
Wind_Speed
30 40 36 34 30 25 18 12 7 9 12 9 10 7 5 8 12 9 4 3 5 5 4 4 2 3 4 5 5 4 5 6 5 3 3 6 8 7 2 2 2 5 3 3
33 40 34 33 30 24 18 11 7 6 7 7 7 5 5 10 13 11 4 4 4 5 3 2 5 7 5 4 6 5 3 5 5 2 1 6 10 13 7 5 5 4 2 4
34 39 32 31 31 25 20 12 6 5 5 9 6 5 5 13 15 10 6 5 6 6 4 4 5 8 4 3 3 4 6 3 2 3 1 3 6 13 13 5 2 3 2 13
38 36 33 34 33 27 20 14 8 4 5 7 5 4 5 14 16 11 9 5 6 7 6 5 6 4 5 4 4 5 4 4 5 3 3 1 3 12 18 9 8 6 5 12
34 41 37 36 34 29 23 15 9 4 6 4 3 3 5 14 19 15 9 6 6 7 5 5 2 4 3 3 7 4 5 2 4 5 4 4 1 10 19 13 9 5 10 9
30 41 40 34 33 31 23 15 9 5 3 1 2 3 4 14 20 14 9 7 6 7 6 8 7 4 2 1 3 2 2 3 4 3 2 2 4 1 20 18 11 10 12 10
35 38 36 37 35 26 23 15 10 6 2 2 1 4 6 18 20 14 11 8 6 5 5 5 7 7 5 4 3 3 3 4 4 4 3 2 2 1 5 13 11 13 13 13
37 37 40 37 32 29 22 16 11 6 3 6 4 7 9 20 17 15 10 7 6 7 7 5 3 3 2 2 3 3 2 3 2 3 4 2 2 2 3 9 8 8 5 6
25 35 43 41 32 30 23 18 13 7 3 8 7 9 12 15 16 13 9 9 6 8 7 4 1 1 1 1 2 0 3 2 1 2 1 1 1 1 1 4 5 5 3 3
31 30 37 38 36 31 24 18 13 8 5 8 8 10 11 14 13 10 8 6 6 8 9 6 4 3 3 2 1 1 1 4 5 3 2 1 1 2 2 3 3 3 3 5
22 27 30 42 37 30 23 18 14 9 6 9 11 11 10 10 10 9 8 6 7 8 8 5 5 5 6 5 4 2 1 1 2 3 2 2 1 0 3 3 4 5 5 7
28 29 34 36 43 29 23 19 15 10 8 10 13 12 11 10 10 10 8 6 4 6 7 6 6 5 5 7 5 7 4 3 2 1 3 4 2 1 2 3 5 6 7 7
25 32 36 29 41 32 24 19 16 11 9 10 14 13 11 10 9 7 7 6 6 7 8 8 6 5 6 6 9 8 7 7 4 6 7 8 8 8 7 7 8 8 8 8
27 30 31 22 40 34 26 20 17 12 10 9 14 13 12 11 9 7 7 5 3 3 5 6 7 7 7 10 8 12 12 9 9 13 10 10 12 10 9 8 8 10 10 9
30 26 27 26 39 31 26 22 17 13 14 10 13 14 13 12 11 9 6 5 3 3 3 2 2 3 5 7 9 12 13 13 13 11 13 13 12 13 13 7 9 8 9 10
27 25 39 28 37 33 28 23 19 15 14 10 14 13 15 13 11 10 8 6 4 5 4 3 2 2 1 1 3 3 8 10 10 11 13 13 13 13 9 10 10 10 8 9
26 33 34 33 37 31 26 21 19 15 14 11 9 12 16 15 13 11 9 7 6 6 5 5 3 2 2 3 4 5 5 7 10 12 14 15 14 14 14 14 14 14 12 12
29 36 32 41 36 30 26 20 16 18 15 12 6 8 19 19 15 13 11 9 8 10 9 8 7 5 4 3 2 1 1 3 6 9 13 17 18 20 22 22 22 19 18 20
37 36 35 40 33 29 24 17 14 19 17 8 8 10 12 19 16 14 12 10 10 10 12 12 7 10 6 6 6 4 3 2 4 7 10 13 14 15 16 17 17 22 27 27
41 39 42 35 34 26 22 17 15 16 17 17 10 14 11 16 18 16 10 8 10 7 12 11 12 13 12 9 8 6 5 4 2 6 10 13 15 16 18 19 20 19 21 21
43 47 41 33 37 25 22 12 14 13 12 17 24 17 14 14 17 14 9 5 5 5 6 7 6 9 11 11 10 8 6 6 7 12 14 13 14 15 16 14 16 18 18 18
45 49 34 32 34 15 14 12 11 10 16 10 23 26 21 18 16 10 8 6 5 3 8 5 5 9 10 11 10 8 8 8 11 13 13 13 13 13 13 12 11 13 14 15
45 45 31 22 19 14 13 15 14 14 11 16 20 27 25 19 16 8 6 6 5 5 6 5 8 9 10 10 9 8 8 10 12 13 13 13 13 12 12 11 11 11 13 17
46 27 22 12 10 13 14 17 15 14 13 14 18 26 23 17 17 7 5 7 6 5 7 6 10 9 9 9 8 8 9 11 13 13 13 13 12 11 11 11 11 12 12 13
30 19 11 15 13 12 18 17 15 16 13 12 19 26 14 18 7 8 7 7 6 8 7 10 10 7 7 8 8 9 11 13 15 16 16 16 15 14 12 11 10 10 8 8
17 14 9 17 20 15 21 20 16 17 13 16 21 21 8 9 7 9 9 6 6 5 9 10 8 7 7 9 9 11 14 16 17 16 16 15 16 16 16 16 15 14 13 12
14 14 22 10 18 15 19 21 16 16 17 21 18 14 11 7 8 10 11 9 8 7 9 9 8 8 10 11 12 14 17 17 16 15 15 15 16 17 18 19 20 19 18 17

GFSNW_700_spd_105.txt.gz
Wind_Speed
33 35 43 38 41 35 33 25 19 15 11 7 5 4 4 13 14 11 5 4 3 3 3 3 3 3 3 5 8 7 5 4 2 4 2 5 8 5 8 4 1 6 4 3
29 41 30 37 37 34 31 25 19 14 11 6 4 3 6 15 16 12 8 5 3 3 4 3 5 6 5 4 9 4 2 2 2 2 2 4 7 6 6 9 5 5 3 3
31 39 43 43 37 37 32 25 18 16 11 8 4 4 10 17 17 11 9 6 4 5 5 5 6 7 3 3 3 5 5 5 5 0 3 1 3 8 7 3 1 9 7 12
23 33 34 43 40 39 33 26 17 11 7 7 4 5 10 20 18 12 10 6 4 5 5 4 6 4 3 2 4 5 5 6 4 4 5 2 3 4 6 1 6 2 15 14
36 27 41 45 42 40 34 28 10 13 7 4 5 6 12 21 18 15 10 6 5 5 4 5 6 5 7 4 3 5 7 3 4 5 6 6 4 2 8 6 3 5 18 14
37 40 48 45 45 39 34 25 14 10 6 5 5 5 12 23 18 14 12 8 7 7 6 8 6 6 3 3 3 5 4 3 3 3 4 4 7 4 9 10 4 4 7 9
24 40 48 45 41 34 28 22 13 10 6 6 5 6 13 23 20 14 13 9 7 5 5 5 7 8 7 6 5 5 5 4 5 3 3 3 3 3 4 6 8 6 6 7
32 36 42 44 40 34 28 21 16 10 7 8 5 8 20 26 19 16 12 9 6 6 6 5 4 3 5 4 3 2 2 4 3 2 4 3 3 3 5 10 7 9 10 10
35 39 57 47 39 36 31 22 17 11 6 10 8 11 22 22 19 16 11 8 7 7 7 2 2 2 2 1 2 1 2 2 2 3 2 1 3 2 3 4 4 3 3 4
35 41 54 47 39 36 34 24 18 12 8 12 12 13 19 21 18 14 11 9 7 9 8 5 3 3 3 2 2 1 1 1 2 1 1 1 1 0 1 2 2 3 2 5
36 49 49 45 41 35 35 24 19 13 10 14 14 15 15 16 14 12 11 8 8 9 8 5 5 5 6 4 4 2 0 1 1 3 2 1 1 1 1 2 3 3 4 6
41 47 51 44 41 43 27 22 18 14 12 14 16 15 15 15 14 12 10 6 7 7 7 6 4 6 7 7 5 6 3 4 2 2 3 3 2 2 1 2 4 4 5 6
30 39 40 46 38 35 24 21 18 14 11 13 16 14 13 13 12 12 11 10 8 8 8 8 7 5 8 9 11 9 8 7 5 5 7 7 6 6 7 7 7 6 6 7
30 29 38 43 41 35 25 21 17 14 12 10 17 15 13 13 12 11 10 9 7 7 7 8 9 8 8 11 9 13 12 9 10 11 10 8 8 10 11 10 10 9 10 9
29 34 32 36 48 33 23 22 18 15 15 10 17 15 14 14 13 11 10 8 6 5 5 5 5 5 5 8 10 13 15 15 15 12 10 12 13 12 12 14 14 11 10 10
32 31 27 33 46 29 25 22 20 18 17 10 16 14 16 16 14 12 11 9 6 6 5 5 4 4 3 2 4 6 12 15 15 15 14 15 15 15 14 11 12 13 12 11
29 26 30 35 42 31 27 21 21 17 16 10 9 12 18 17 16 14 12 10 9 9 8 6 5 5 5 6 5 3 5 7 10 13 14 15 15 17 16 14 14 16 17 15
27 33 32 44 39 31 25 22 19 16 16 12 5 7 19 20 18 16 14 12 11 12 10 9 9 10 10 7 7 5 5 5 5 5 6 8 11 14 17 19 20 20 21 22
31 33 34 44 35 31 23 20 16 19 17 9 7 8 12 21 20 18 15 13 11 12 14 14 10 15 10 8 9 8 6 6 5 5 5 7 10 14 16 18 20 20 19 21
30 36 40 37 34 29 22 17 16 17 20 17 12 12 11 17 21 18 13 11 12 6 13 12 18 21 15 13 12 12 9 8 8 7 8 11 14 15 16 17 18 19 21 23
36 43 39 34 32 25 22 12 14 13 11 17 26 16 13 15 20 18 13 5 7 6 7 11 6 10 15 16 15 13 11 10 10 11 13 14 15 16 16 17 18 18 18 20
43 45 31 36 26 13 11 11 11 10 15 11 22 26 19 18 17 14 12 7 6 4 6 8 6 10 12 14 15 14 12 11 12 13 15 15 15 15 14 15 16 16 16 16
43 40 34 21 19 15 13 16 15 15 11 19 20 28 26 20 17 10 7 6 6 5 7 6 9 12 12 13 14 13 12 12 13 14 14 15 14 14 14 14 15 15 15 16
38 29 20 12 10 11 13 19 19 16 14 12 19 25 24 19 18 7 6 8 6 6 8 8 10 11 11 11 12 11 12 13 13 15 15 15 16 16 16 15 13 12 12 12
24 18 9 14 12 13 18 17 16 18 16 15 20 26 15 20 8 9 8 7 7 8 7 8 11 10 8 8 10 11 12 14 15 16 17 18 18 18 18 17 16 14 13 12
19 11 11 17 17 12 17 18 18 19 17 20 22 22 9 11 8 10 10 6 7 5 5 8 9 8 8 8 10 11 12 15 17 18 18 18 18 17 17 18 18 18 17 16
9 16 11 11 17 12 15 19 18 19 19 25 13 14 11 8 9 12 12 15 10 9 7 9 9 9 9 10 11 12 14 16 18 18 18 17 16 16 17 18 19 20 19 19

GFSNW_700_spd_111.txt.gz
Wind_Speed
20 18 13 19 19 18 23 19 15 20 20 19 17 17 12 6 11 12 7 7 4 2 6 4 2 4 5 10 6 7 8 8 7 11 14 13 16 16 15 3 3 7 8 8
17 19 18 24 29 20 30 9 23 19 26 18 19 13 7 6 14 13 8 6 5 3 8 3 6 4 6 10 11 8 9 7 4 5 8 12 12 16 18 9 9 10 5 6
20 16 19 24 40 26 29 22 23 25 26 22 15 13 9 9 16 13 9 6 6 6 7 6 5 3 3 7 7 7 8 14 13 6 4 8 8 16 22 16 14 16 20 18
18 16 21 30 40 32 31 25 30 27 15 25 16 10 5 11 17 13 10 6 4 6 4 5 6 1 4 6 8 6 9 11 14 13 9 8 11 12 16 19 11 13 17 18
11 16 22 31 38 44 38 32 28 25 17 8 21 14 11 13 17 13 11 8 8 6 6 3 6 4 7 5 7 9 8 7 12 16 16 15 15 13 13 15 21 20 15 16
12 19 40 46 45 49 39 39 22 17 14 9 12 12 8 17 16 13 11 11 8 7 4 6 8 6 5 7 5 8 6 4 5 5 5 4 10 11 11 11 14 12 13 11
9 26 50 46 43 35 38 38 19 13 8 12 12 9 10 20 18 13 13 13 11 9 9 8 7 5 8 8 8 8 6 6 5 3 2 4 4 6 10 12 12 8 5 3
18 23 33 42 39 42 44 33 19 10 9 10 12 10 17 24 18 15 13 13 9 10 10 10 7 7 6 5 6 5 5 5 4 3 7 7 3 5 7 5 5 3 1 0
21 23 31 48 48 42 39 31 19 11 7 11 10 11 20 25 20 18 15 12 9 9 8 4 2 2 3 2 3 3 3 4 4 4 4 2 4 4 6 7 7 4 2 1
31 33 34 36 41 41 35 27 24 15 9 7 10 13 23 25 19 17 14 12 10 9 6 3 3 3 4 3 3 3 3 3 5 6 3 4 6 3 4 2 5 6 3 2
35 41 40 41 43 37 32 24 19 14 8 9 10 17 24 22 17 15 13 11 9 9 6 4 3 3 6 4 5 4 3 3 4 5 4 3 7 6 4 3 6 4 2 4
28 31 42 46 42 37 32 23 13 10 6 10 14 21 23 20 15 13 11 5 7 7 6 4 3 3 5 6 4 7 4 4 3 3 4 8 9 6 6 5 4 4 4 5
30 34 46 40 38 35 29 22 14 9 6 12 15 22 21 19 15 14 10 8 5 6 5 4 4 3 4 5 7 7 8 7 6 6 8 9 8 6 5 5 4 4 4 6
34 41 47 41 34 32 26 20 16 12 8 9 17 19 19 18 15 12 11 10 6 6 6 6 6 5 4 4 5 7 9 8 10 11 9 10 9 7 6 5 6 6 7 8
37 50 49 44 36 32 25 21 18 15 13 6 18 17 17 16 14 13 11 10 8 7 6 5 5 5 5 5 7 9 10 10 10 6 9 10 8 9 9 8 8 10 11 10
37 41 48 39 36 29 25 19 19 15 11 5 17 16 17 16 14 12 11 10 8 6 6 5 4 4 3 3 4 3 3 8 11 11 9 9 10 10 10 11 11 12 12 13
33 41 49 44 41 31 24 19 21 16 9 7 7 10 17 16 14 13 12 11 9 7 6 7 6 6 6 9 9 5 3 3 7 10 10 10 10 10 11 12 12 13 14 14
27 38 50 47 43 28 21 21 19 18 12 10 4 5 17 18 16 15 13 11 9 9 9 8 9 10 9 6 6 6 6 5 4 6 7 7 7 7 7 9 10 11 12 14
23 25 33 46 35 28 21 17 17 18 16 5 5 7 10 19 17 16 13 11 10 11 12 13 10 14 9 5 6 7 8 8 8 7 7 8 8 7 8 11 12 13 15 16
21 31 45 40 33 26 17 11 17 17 18 15 7 9 6 14 20 17 12 8 9 6 9 11 18 22 16 13 11 10 10 10 10 10 9 10 10 10 12 13 15 15 16 16
27 34 41 44 33 24 14 10 14 13 10 15 21 12 8 10 19 17 11 4 5 4 6 7 7 13 10 14 15 14 13 12 11 10 11 12 13 13 15 15 15 15 15 15
35 41 29 40 26 11 9 10 11 10 15 10 20 22 14 12 15 13 12 7 5 5 6 6 7 10 9 12 12 14 14 14 12 12 13 14 15 16 16 17 16 16 16 17
36 38 30 34 18 16 11 17 14 14 13 19 17 26 24 16 14 8 8 7 7 5 7 6 12 11 9 11 14 14 15 14 12 13 14 15 16 17 18 18 18 18 18 18
31 25 28 15 12 14 18 21 24 19 12 10 20 21 23 18 16 7 6 8 6 6 7 9 13 10 9 12 13 13 13 14 14 14 15 16 18 19 20 20 20 19 19 18
20 15 13 18 15 14 20 19 26 25 18 10 20 23 13 20 8 8 8 6 7 8 4 3 4 6 8 10 10 12 12 13 14 15 16 18 20 21 22 21 20 19 19 18
11 11 11 16 17 16 16 21 24 25 20 18 23 18 10 12 8 10 10 6 8 5 7 5 4 5 8 10 10 11 12 12 14 16 17 19 20 22 22 21 20 18 18 18
12 14 15 15 19 14 13 17 20 22 25 27 14 13 11 9 9 11 12 16 8 6 6 5 5 8 10 10 9 10 12 13 15 16 18 20 21 21 22 20 19 17 18 18

GFSNW_700_spd_114.txt.gz
Wind_Speed
17 13 14 14 16 12 29 26 26 18 15 20 22 16 13 9 9 13 9 8 5 5 6 4 2 3 3 6 2 5 7 6 5 9 16 17 20 18 9 3 5 13 11 9
15 14 16 18 19 33 33 33 31 20 20 18 20 14 11 9 11 14 8 7 6 6 7 3 5 3 5 7 6 6 6 4 3 1 8 17 20 22 10 12 8 8 4 6
15 17 20 22 25 21 36 33 21 20 24 25 16 17 11 9 13 15 9 7 7 7 9 4 5 2 3 6 9 3 7 10 12 7 5 10 15 22 15 14 17 22 19 17
17 18 23 29 31 24 23 25 13 14 25 28 19 11 6 10 14 14 10 8 7 8 5 4 5 2 5 5 7 10 9 10 13 10 10 15 21 22 19 25 18 19 16 23
16 19 23 30 35 26 24 26 14 20 14 7 22 15 10 8 16 14 11 7 9 9 7 4 4 5 7 5 6 9 9 9 14 16 17 15 19 18 20 25 22 22 20 21
21 15 22 34 30 34 33 28 17 23 18 13 14 18 9 9 14 12 11 10 8 7 8 6 6 5 4 4 5 7 6 6 5 2 3 4 10 17 16 17 16 14 14 13
19 13 21 26 39 40 30 27 19 19 12 12 10 9 11 13 16 12 12 13 10 7 9 8 6 4 4 3 5 6 5 5 3 2 1 3 3 7 12 12 14 12 8 6
15 20 30 45 45 42 30 29 16 12 6 7 11 8 13 21 16 14 12 12 9 9 12 13 7 7 6 3 3 4 4 3 3 2 7 6 5 8 10 8 8 7 6 4
18 36 45 46 41 42 37 31 16 7 2 7 10 8 15 23 17 16 15 12 11 10 6 4 3 1 3 2 2 2 2 4 3 3 3 2 4 6 8 8 4 4 3 3
21 37 36 38 38 38 37 29 17 9 2 3 10 11 20 22 17 16 14 10 9 8 4 2 2 2 3 1 3 2 3 3 4 4 4 3 8 6 6 2 3 6 3 1
23 33 41 35 45 39 36 29 19 9 5 4 9 12 22 20 16 14 12 9 8 8 5 3 1 2 3 3 3 3 2 2 3 3 2 2 8 6 4 2 6 3 1 1
37 35 43 45 43 38 32 22 14 9 5 5 10 17 24 20 14 12 10 3 7 6 4 3 2 2 3 3 2 5 2 4 3 4 4 8 12 7 5 6 5 3 3 4
41 43 47 42 35 32 25 18 12 7 2 7 13 22 23 19 14 11 11 4 5 3 3 2 2 1 3 4 6 6 7 7 5 5 8 10 9 9 7 6 5 4 4 4
38 37 39 41 36 31 25 18 11 5 4 6 16 21 20 17 13 12 8 8 4 4 4 4 4 4 3 3 4 6 8 8 11 11 10 11 10 9 8 7 7 6 6 7
32 35 42 40 33 29 23 16 10 6 6 6 14 18 17 17 14 11 9 9 8 6 5 6 4 5 5 5 6 7 8 7 9 8 10 11 8 9 8 8 7 8 10 10
35 41 38 35 31 25 19 15 11 8 7 5 12 14 16 16 14 12 11 9 8 6 6 5 6 5 4 4 4 2 2 7 10 9 9 12 12 10 10 10 10 11 12 13
34 41 41 35 31 23 19 13 12 9 8 4 8 7 15 15 14 12 10 9 8 7 7 8 7 6 8 11 11 6 2 3 7 10 10 10 10 9 9 10 10 11 11 12
34 43 40 38 32 25 19 14 11 13 9 7 4 4 14 17 15 14 12 10 9 9 9 8 9 11 10 6 5 6 5 4 4 6 7 8 7 7 6 6 7 9 10 12
28 38 40 37 32 28 21 16 14 16 14 5 4 5 6 17 16 15 12 10 10 12 13 13 11 14 9 5 5 5 6 6 5 5 5 6 7 7 6 6 8 10 12 14
29 43 42 35 32 28 21 15 13 17 18 18 8 8 7 12 18 16 11 8 10 6 10 11 18 23 17 14 10 9 7 8 7 6 7 7 7 7 8 9 11 13 14 15
30 48 39 34 33 25 19 11 11 11 11 15 23 12 9 9 18 16 11 5 6 5 7 7 7 10 8 15 15 14 11 10 10 9 8 8 8 10 11 12 13 14 15 15
26 39 34 28 30 15 12 10 11 10 14 10 16 21 14 11 16 14 11 7 6 6 7 6 6 3 6 11 13 13 14 13 11 12 10 10 10 11 13 14 15 15 17 18
26 32 33 25 19 18 14 19 15 13 9 17 14 23 23 15 15 9 8 7 7 6 7 6 9 7 6 9 12 14 16 16 14 13 12 12 12 13 15 16 17 17 18 20
33 28 26 18 13 14 19 25 23 20 15 10 18 21 24 18 16 8 6 9 7 7 8 8 8 8 7 9 11 14 14 14 15 15 14 14 14 15 16 18 19 20 19 20
28 19 13 22 19 14 18 24 25 28 22 12 15 23 20 19 10 9 9 7 7 9 7 6 4 4 6 8 9 12 13 14 15 16 15 16 16 16 18 19 21 21 20 20
15 18 15 19 23 23 18 17 25 25 23 17 20 22 10 12 9 10 11 7 8 7 9 7 5 7 7 6 9 12 13 14 14 15 16 16 16 18 19 21 21 21 20 20
13 21 20 17 24 24 17 16 25 24 26 26 18 15 12 10 11 13 14 18 9 8 7 8 8 7 7 9 10 11 12 13 14 15 16 16 17 19 20 20 21 20 20 19

GFSNW_700_spd_117.txt.gz
Wind_Speed
12 10 12 14 18 17 19 14 22 14 14 12 18 11 8 4 4 4 8 7 6 5 5 3 2 2 3 8 6 8 10 5 6 6 15 21 15 18 6 6 6 9 10 13
8 10 14 17 18 22 28 21 16 16 11 10 15 10 7 5 5 7 9 6 7 6 6 2 4 1 2 5 5 5 7 7 6 6 7 18 20 18 11 14 8 20 7 7
8 13 18 20 18 17 31 25 18 18 15 15 14 10 5 4 4 11 8 5 5 5 5 2 4 2 0 3 4 5 8 10 10 7 5 12 20 18 15 22 20 21 25 22
11 18 19 19 17 15 28 28 20 17 14 20 13 10 2 5 4 12 8 5 5 7 3 2 3 1 5 4 6 7 6 6 7 8 10 16 18 22 22 23 18 20 21 23
14 20 20 19 19 18 28 27 16 15 5 15 12 7 5 3 7 11 8 3 6 7 5 4 3 4 5 5 5 5 7 4 8 10 11 15 18 18 17 20 19 20 19 20
21 20 20 21 25 23 30 27 10 11 8 5 6 11 8 3 10 10 7 6 5 5 6 5 5 3 2 4 5 6 5 2 1 4 2 3 6 12 13 13 12 11 14 12
20 20 22 22 26 26 26 20 12 7 2 3 4 3 10 4 13 10 9 9 6 4 4 6 4 3 3 5 4 4 6 2 2 3 4 2 1 6 12 11 11 11 9 10
18 17 25 26 31 26 22 18 12 7 3 5 4 5 12 11 13 10 9 8 6 7 9 7 4 3 4 2 2 3 4 4 0 1 6 4 3 7 7 8 6 7 8 7
18 23 33 34 35 28 22 19 13 7 2 1 4 3 9 15 12 11 11 8 8 8 4 4 1 1 1 1 1 1 3 3 2 1 2 1 1 7 7 5 2 1 3 4
22 28 35 35 34 30 28 18 12 7 4 3 6 7 13 19 13 11 11 8 8 7 2 1 0 1 2 1 1 1 1 2 2 3 3 4 7 8 9 2 3 3 2 4
27 32 34 34 31 28 26 17 10 3 5 5 3 5 15 17 12 11 9 7 6 6 2 1 2 1 1 1 2 2 1 1 1 1 1 3 8 8 2 3 7 4 2 3
32 32 33 33 32 32 24 14 7 3 5 6 4 9 19 15 12 9 9 1 5 4 3 1 1 3 1 2 1 3 1 4 2 4 3 3 9 5 4 5 5 2 1 3
34 31 34 34 34 29 21 11 5 3 5 1 5 13 20 16 12 8 10 2 6 2 2 1 1 1 1 1 4 3 5 5 3 2 4 6 7 5 4 4 3 2 3 3
35 30 36 34 27 25 17 9 5 1 1 2 7 15 18 15 11 9 9 5 3 3 3 3 3 3 3 3 4 6 6 5 8 8 7 7 7 6 5 4 4 5 5 6
36 36 37 30 27 23 16 11 5 2 3 1 9 13 15 14 11 10 8 7 6 5 5 5 5 4 5 5 7 6 6 5 6 6 8 10 8 8 7 7 6 7 8 10
41 39 34 32 27 23 19 12 6 1 3 1 7 11 14 13 13 11 9 8 7 7 6 6 6 6 6 5 4 2 2 7 9 7 7 9 10 9 9 9 9 10 11 12
31 36 33 32 28 24 19 11 8 5 3 4 5 5 14 14 14 13 11 9 8 8 8 9 9 7 9 11 11 6 3 4 6 6 7 7 7 7 8 9 9 10 10 10
33 38 39 33 28 22 17 12 7 7 5 4 4 5 9 15 15 14 11 10 9 10 11 10 10 12 11 7 4 5 5 4 4 4 4 6 6 6 6 7 7 9 10 11
36 38 35 32 30 24 18 13 11 8 10 4 6 6 4 13 15 13 11 10 9 12 15 14 12 16 10 7 6 5 5 5 5 4 5 5 6 6 6 7 8 10 12 14
39 38 35 33 30 25 20 14 12 15 15 18 15 8 8 6 15 14 8 6 9 7 10 11 18 26 18 16 12 10 8 7 6 5 5 5 5 6 7 8 10 12 14 16
39 40 37 29 26 24 20 14 9 9 10 14 22 20 11 8 13 15 10 5 5 5 7 7 7 13 10 17 18 17 13 10 11 9 7 7 8 8 9 10 12 14 16 18
26 35 33 26 23 13 12 11 13 11 14 11 15 20 18 10 11 12 9 7 6 7 8 6 7 11 11 12 14 16 16 15 13 12 11 10 10 9 10 12 14 15 17 19
29 35 32 16 17 17 14 19 17 17 8 15 15 17 23 16 13 10 7 7 8 7 7 7 10 10 11 11 13 17 18 18 17 15 14 13 12 11 13 14 16 18 19 20
32 30 27 16 14 16 26 23 23 21 18 9 12 17 21 20 15 9 6 8 7 7 8 9 7 8 10 11 13 15 15 16 17 16 15 15 14 14 15 17 18 20 21 22
31 17 15 24 20 16 15 25 23 28 27 14 13 17 21 19 11 9 9 7 9 9 8 7 6 6 7 9 11 12 13 15 16 16 15 16 16 16 18 19 19 21 23 23
29 22 19 17 24 24 20 19 27 25 29 26 19 17 11 14 10 11 13 8 9 7 8 9 9 8 8 9 8 9 13 15 16 16 15 16 16 17 18 19 21 22 24 24
25 34 39 25 17 27 27 21 17 28 26 28 22 14 13 10 13 16 19 27 16 9 9 10 11 10 10 11 10 12 13 13 13 14 15 17 17 17 18 20 22 23 24 24

GFSNW_700_spd_123.txt.gz
Wind_Speed
8 8 11 13 15 15 16 20 17 8 8 11 11 10 3 3 4 6 9 7 7 6 6 8 6 5 2 6 4 5 7 7 6 12 22 18 17 17 15 6 10 9 3 10
11 12 16 17 16 17 18 16 13 10 7 9 11 9 3 2 6 9 8 6 5 7 7 5 6 5 9 9 7 10 6 8 7 4 14 25 26 21 18 18 12 26 4 8
15 16 19 17 16 15 14 16 10 15 11 10 14 7 4 4 7 9 8 8 8 10 8 7 7 8 11 13 10 10 10 14 16 12 17 22 23 20 18 19 13 16 25 24
18 18 18 15 16 15 16 12 11 12 7 11 10 8 8 8 10 10 7 8 8 6 7 10 10 9 10 12 9 11 13 14 19 20 20 22 24 20 21 27 20 18 22 27
20 19 14 14 16 14 11 9 6 5 15 12 8 9 8 9 10 9 9 7 8 7 8 9 8 8 8 9 8 8 8 9 9 10 12 17 24 23 15 19 17 19 20 26
20 21 19 16 15 14 11 10 16 17 14 9 6 8 6 9 10 9 7 7 6 7 8 9 8 7 9 9 10 8 7 6 4 3 5 3 11 16 14 14 16 16 20 17
22 22 21 19 19 17 17 17 15 16 14 10 8 8 8 11 9 8 10 8 5 8 9 10 10 8 10 8 7 6 4 4 4 3 2 5 3 7 9 11 10 12 14 15
24 24 24 25 22 20 18 15 13 15 14 12 11 10 10 11 10 9 10 10 11 11 11 10 8 7 7 6 6 5 4 3 3 3 10 8 5 3 2 4 8 10 11 13
27 27 23 20 20 18 16 13 14 12 11 11 10 11 14 10 9 8 8 9 11 9 8 7 5 4 3 2 2 3 4 4 3 3 2 2 4 7 4 3 4 6 7 8
26 22 16 17 17 18 15 12 14 10 12 11 10 11 11 10 7 7 6 6 5 7 7 8 4 3 2 1 1 2 4 3 3 0 1 1 4 8 7 2 3 4 5 7
25 22 19 16 15 17 14 12 11 12 12 9 10 12 11 10 7 5 6 5 4 4 4 4 3 2 1 2 2 3 3 4 4 4 3 3 8 10 7 4 10 6 3 3
27 23 19 17 17 16 12 9 10 11 8 7 9 11 11 8 7 5 5 5 3 3 4 3 3 2 3 3 2 7 5 7 4 6 4 3 9 6 4 5 6 4 3 3
28 26 24 20 21 16 9 8 9 10 9 7 8 10 9 7 5 3 3 4 4 3 3 4 3 1 1 3 4 5 8 12 8 7 8 7 10 8 6 6 6 4 3 3
28 28 28 25 23 15 9 7 7 10 6 5 6 9 8 6 4 2 2 2 3 4 4 4 4 4 3 5 6 6 7 9 10 9 11 12 13 12 11 10 8 5 4 2
26 29 28 29 24 15 10 6 8 9 9 2 5 8 7 5 3 3 1 2 4 5 5 6 6 6 7 7 9 4 6 6 6 5 9 7 10 10 9 7 5 3 1 1
24 26 27 30 24 17 12 6 4 5 5 2 2 6 8 7 6 6 5 5 6 7 8 8 6 5 7 5 6 2 1 3 5 5 7 10 9 8 7 6 4 2 1 1
24 26 24 26 25 19 12 6 2 4 4 5 3 5 11 11 10 9 9 9 10 10 12 11 10 9 11 14 12 7 4 3 5 5 6 7 6 5 5 4 2 1 1 2
20 24 24 26 24 18 13 10 6 7 8 9 6 6 8 10 13 13 11 12 12 13 14 14 13 14 14 8 4 6 7 7 6 6 7 7 6 6 5 4 3 1 2 4
23 23 25 26 24 20 16 13 12 12 10 7 7 8 7 6 11 13 12 13 13 15 18 18 15 18 12 6 6 7 7 6 8 8 8 8 8 7 7 5 4 3 3 5
19 23 27 27 24 20 18 19 20 21 22 25 23 16 13 9 6 12 9 8 9 10 13 12 18 25 15 19 16 11 10 10 9 9 9 9 8 8 7 6 5 4 4 6
23 25 30 28 20 19 19 14 11 9 11 15 22 24 23 17 12 9 9 7 6 6 8 9 10 19 9 14 14 18 17 13 14 13 12 11 10 9 7 6 6 6 7 9
22 27 28 27 25 17 12 12 13 13 10 11 12 16 21 23 17 10 8 10 7 7 9 7 8 8 5 12 14 14 17 19 17 15 13 12 10 10 9 10 10 11 11 12
20 23 22 12 14 18 17 18 15 13 12 7 10 15 18 21 19 11 9 8 10 9 9 9 23 17 15 12 13 15 16 19 21 20 17 16 15 14 14 14 14 14 15 16
23 23 17 15 14 15 29 26 16 22 15 14 15 13 12 18 15 13 8 11 9 9 11 20 16 12 11 12 13 15 15 17 19 20 20 19 18 18 17 16 17 17 17 18
26 13 13 23 25 22 10 8 14 22 25 17 17 16 19 13 13 8 12 8 11 11 13 21 17 17 16 15 14 14 15 17 18 21 21 21 21 20 20 19 19 19 19 20
35 23 21 17 18 25 27 21 16 14 15 19 22 16 11 16 10 12 14 12 8 6 11 12 10 12 13 14 13 13 15 17 19 21 22 23 23 22 21 21 21 19 20 22
45 39 45 38 28 19 17 20 25 25 19 22 17 12 15 10 14 23 23 27 19 15 15 14 13 15 16 16 15 15 16 18 18 19 20 23 23 22 21 22 21 21 22 22

GFSNW_700_spd_126.txt.gz
Wind_Speed
20 21 21 18 19 23 23 13 16 20 20 15 13 10 9 8 9 10 9 9 9 7 9 6 3 3 2 4 5 5 7 7 5 12 18 23 21 21 18 6 9 7 6 8
23 22 23 25 26 24 17 13 13 12 13 12 12 9 8 8 11 11 9 8 8 11 8 3 5 3 9 10 9 8 7 5 4 3 11 20 24 17 17 18 5 20 4 10
23 25 25 23 21 17 13 10 12 14 14 14 10 8 7 10 12 10 10 12 14 11 10 8 7 8 11 14 10 9 10 18 15 9 10 13 20 22 16 16 13 9 18 23
22 22 21 21 19 15 14 11 10 9 14 13 11 9 10 14 13 11 10 11 12 10 9 14 13 13 13 12 13 12 11 17 17 19 20 15 20 18 20 24 19 12 19 29
21 19 19 17 17 14 10 6 11 16 15 10 9 11 14 12 12 12 12 12 10 10 11 14 13 12 10 7 11 12 9 6 7 3 4 12 19 18 16 19 19 18 20 26
20 18 18 17 13 12 12 17 17 15 12 8 9 13 11 13 12 11 12 13 10 12 14 13 12 12 11 10 7 7 6 4 1 1 3 3 5 16 16 14 16 17 20 20
20 19 16 14 12 17 13 11 9 11 11 10 13 14 14 12 12 12 11 10 10 13 14 15 14 13 10 7 6 2 0 2 1 4 2 3 4 6 9 11 12 13 15 16
20 17 17 16 20 15 13 11 9 8 10 13 15 17 14 14 14 12 13 12 13 14 15 12 7 8 7 6 4 2 1 1 2 2 3 1 1 2 3 5 8 11 14 14
24 22 19 21 15 12 13 11 9 7 9 10 13 17 16 15 12 11 13 12 10 9 9 6 2 2 3 2 3 2 1 0 0 1 2 0 1 3 2 6 4 7 11 12
26 23 22 17 13 11 10 11 10 8 9 10 12 13 12 11 9 9 9 8 8 7 8 7 3 2 3 3 3 4 3 2 2 0 2 3 4 5 3 1 1 3 7 10
24 21 21 17 14 11 8 8 7 6 8 9 11 12 11 11 9 6 7 6 6 5 3 4 3 3 3 4 5 4 5 3 4 3 3 4 6 5 4 2 2 2 5 6
24 22 19 19 16 11 6 5 7 6 3 8 10 10 10 9 7 6 5 5 3 3 2 3 2 4 3 4 4 9 6 9 4 7 5 5 8 6 5 3 3 1 1 3
22 21 20 18 17 12 5 3 5 5 4 5 8 9 8 8 6 5 3 4 4 4 3 2 2 2 5 6 7 11 11 12 10 9 12 9 11 10 8 7 6 4 3 2
23 21 20 20 19 13 7 3 4 4 4 3 5 9 7 6 5 4 3 2 2 2 3 3 2 4 7 6 7 10 12 13 13 14 12 13 14 14 11 10 9 8 8 6
24 22 21 18 20 15 7 3 2 5 5 1 4 8 8 7 5 4 3 2 4 5 6 7 7 7 8 9 12 9 13 9 11 10 13 10 13 14 13 11 10 8 6 5
22 22 20 20 20 14 9 3 1 4 7 5 2 5 9 10 9 7 6 6 7 8 10 10 9 8 9 7 9 5 4 9 13 11 13 13 14 14 14 13 11 10 9 7
19 20 20 21 23 18 12 8 7 5 5 9 6 5 7 12 12 11 11 11 11 13 15 14 13 12 15 19 19 9 7 8 10 11 13 14 13 9 11 12 11 8 5 3
17 17 21 21 24 23 19 14 12 9 8 9 5 6 7 7 11 16 15 15 15 18 18 18 17 18 18 13 6 9 11 11 11 10 11 13 14 12 13 11 8 7 5 3
20 18 21 23 23 24 23 20 18 16 14 8 7 7 8 5 8 10 15 18 18 19 21 21 17 22 17 8 8 8 8 7 8 12 12 12 11 13 12 10 9 8 6 4
25 23 20 21 22 21 21 23 25 26 27 28 28 21 21 14 12 9 9 10 9 12 15 15 19 29 18 21 19 15 12 13 13 13 13 12 12 11 10 9 11 11 9 8
27 28 25 19 17 17 17 15 12 10 10 13 17 19 23 21 20 14 7 7 7 6 9 9 10 25 10 10 15 18 19 17 15 15 16 14 14 14 14 13 12 12 11 10
19 20 19 18 16 10 10 11 11 12 9 11 12 11 12 18 18 12 8 10 8 8 10 7 9 14 5 8 12 16 18 19 19 18 18 16 15 15 15 16 15 15 15 13
16 17 14 9 13 18 13 14 13 9 8 7 9 9 10 11 12 11 8 8 10 9 9 9 19 20 25 24 18 17 19 21 23 23 23 21 20 19 18 17 18 17 17 17
24 21 15 13 12 14 27 24 12 15 17 13 13 13 7 8 9 12 7 10 8 8 8 15 20 22 21 17 16 16 18 19 21 24 25 24 23 21 21 21 21 20 20 20
30 15 13 23 21 18 10 10 14 17 20 21 19 18 15 11 10 7 10 7 9 7 4 10 13 16 16 19 21 19 18 18 19 23 26 27 27 26 25 24 23 23 22 22
31 21 21 18 17 22 25 21 14 11 13 15 18 17 10 12 10 11 13 9 7 3 8 12 14 16 18 18 18 18 19 19 20 22 25 28 29 28 27 27 26 25 24 23
31 36 40 32 19 13 15 17 22 23 21 18 14 10 14 11 13 18 20 30 23 23 25 26 26 24 20 19 18 19 21 22 22 24 26 28 30 32 31 29 27 26 24 24